Date StartTime U_cm/s V_cm/s W_cm/s Ustd_cm/s Vstd_cm/s Wstd_cm/s Uvar_(cm/s)^2 Vvar_(cm/s)^2 Wvar_(cm/s)^2 KE_(m/s)^2 TurbulentKE_(m/s)^2 HorizWindSpeed_cm/s FrictionSpeec_cm/s DragCoef SpeedOfSound_m/s SonicTemperature_C Pressure_mb 
03/15/2014  00:00:00      -22.776      -98.864       -6.639       31.619       27.707       17.364      999.741      767.675      301.501        0.620        0.103      101.454        9.646        0.009      338.053       10.443      869.888
03/15/2014  00:01:00      -46.958      -92.626       -2.333       19.829       25.815       14.962      393.203      666.436      223.859        0.604        0.064      103.849       11.330        0.012      338.039       10.420      869.894
03/15/2014  00:02:00      -25.804      -44.454       -0.169       23.966       58.457       24.017      574.382     3417.185      576.834        0.360        0.228       51.400       16.630        0.105      338.311       10.877      869.879
03/15/2014  00:03:00       17.638       55.809        4.640       30.069       25.757       22.649      904.135      663.434      512.961        0.276        0.104       58.530        7.483        0.016      338.450       11.110      869.872
03/15/2014  00:04:00      -43.649      103.312      -30.768       46.425       55.559       22.693     2155.285     3086.849      514.970        0.964        0.288      112.154       21.014        0.035      337.694        9.842      869.869
03/15/2014  00:05:00      -93.321      114.418      -23.468       44.696       53.386       27.311     1997.743     2850.017      745.899        1.397        0.280      147.649       23.221        0.025      337.521        9.552      869.873
03/15/2014  00:06:00      -95.976      -15.922      -18.612       27.718       52.639       20.696      768.262     2770.820      428.324        0.689        0.198       97.288       22.044        0.051      337.602        9.688      869.863
03/15/2014  00:07:00      -69.960      -22.411       -6.528       24.139       21.988       12.785      582.683      483.482      163.454        0.333        0.061       73.462       10.494        0.020      337.786        9.995      869.843
03/15/2014  00:08:00      -78.306      -28.623       -6.029       12.897       12.907        7.994      166.341      166.587       63.900        0.369        0.020       83.373        2.269        0.001      337.645        9.759      869.836
03/15/2014  00:09:00      -39.172      -13.310       -3.345       17.949        7.945       10.794      322.181       63.124      116.507        0.111        0.025       41.372        9.068        0.048      337.750        9.934      869.847
03/15/2014  00:10:00      -39.633      -13.421        1.792       21.516       20.699       12.419      462.925      428.461      154.244        0.140        0.052       41.843        7.026        0.028      337.746        9.928      869.851
03/15/2014  00:11:00      -52.471       -0.354       -2.331       24.041       18.120       15.281      577.973      328.332      233.514        0.195        0.057       52.472       13.850        0.070      337.808       10.031      869.857
03/15/2014  00:12:00      -48.842       47.274      -17.112       12.903       17.880       13.909      166.488      319.691      193.473        0.280        0.034       67.973        9.885        0.021      337.714        9.875      869.874
03/15/2014  00:13:00      -48.412       27.237       -1.039       23.440       24.009       17.994      549.424      576.429      323.795        0.227        0.072       55.548        9.262        0.028      337.831       10.071      869.889
03/15/2014  00:14:00      -12.093       20.850       -3.148       29.767       36.984       21.575      886.081     1367.830      465.471        0.165        0.136       24.104       22.740        0.890      337.632        9.738      869.901
03/15/2014  00:15:00      -30.172       -2.946        0.440       29.769       11.552       14.814      886.169      133.438      219.464        0.108        0.062       30.315       16.359        0.291      337.673        9.807      869.909
03/15/2014  00:16:00       10.865       17.620        3.045       23.473       26.936       17.167      550.959      725.543      294.717        0.100        0.079       20.700       16.165        0.610      337.701        9.852      869.923
03/15/2014  00:17:00       11.956       29.063       -4.916       28.672       39.144       20.480      822.069     1532.231      419.443        0.189        0.139       31.426       20.316        0.418      337.745        9.927      869.940
03/15/2014  00:18:00       -1.963       86.828      -14.544       21.510       31.058       10.413      462.699      964.575      108.427        0.464        0.077       86.851       11.414        0.017      337.928       10.234      869.947
03/15/2014  00:19:00       12.130       38.423       -3.352       21.164       16.925        8.451      447.927      286.463       71.416        0.122        0.040       40.292        7.021        0.030      337.993       10.343      869.943
03/15/2014  00:20:00       16.124        8.416       13.447       15.818       14.794       12.717      250.195      218.869      161.722        0.057        0.032       18.188        6.901        0.144      337.787        9.997      869.937
03/15/2014  00:21:00      -28.765       -8.116       -6.517       13.874       13.099       10.628      192.488      171.580      112.948        0.071        0.024       29.889        9.680        0.105      337.627        9.728      869.938
03/15/2014  00:22:00      -40.391      -26.586       -6.935       10.708       12.451        9.061      114.651      155.025       82.100        0.137        0.018       48.356        5.974        0.015      337.705        9.859      869.942
03/15/2014  00:23:00      -28.719      -26.496       -3.262       15.486       19.286       13.397      239.826      371.956      179.487        0.116        0.040       39.075        7.708        0.039      337.688        9.831      869.938
03/15/2014  00:24:00      -56.561      -11.582       -0.438       16.316       14.176       11.332      266.224      200.950      128.413        0.196        0.030       57.735        7.883        0.019      337.510        9.533      869.944
03/15/2014  00:25:00      -76.378      -20.202       -9.505       23.022       14.772       10.659      530.034      218.198      113.608        0.360        0.043       79.004        6.667        0.007      337.395        9.339      869.949
03/15/2014  00:26:00      -83.854      -36.908      -17.008       13.227       12.456        8.445      174.950      155.151       71.311        0.454        0.020       91.617        3.343        0.001      337.290        9.165      869.952
03/15/2014  00:27:00     -107.461      -48.241      -18.274       13.468       26.233       14.112      181.378      688.147      199.135        0.764        0.053      117.792       11.926        0.010      337.420        9.381      869.947
03/15/2014  00:28:00      -98.637      -42.462      -11.300       17.525       31.663       13.101      307.115     1002.514      171.639        0.657        0.074      107.388        8.774        0.007      337.353        9.268      869.935
03/15/2014  00:29:00      -79.423      -57.548       -3.929       16.890       19.172       13.032      285.261      367.580      169.831        0.523        0.041       98.080        8.725        0.008      337.394        9.338      869.936
03/15/2014  00:30:00      -46.835      -59.366       -5.510       18.739       21.537       12.481      351.156      463.830      155.773        0.336        0.049       75.616       10.849        0.021      337.647        9.764      869.944
03/15/2014  00:31:00      -41.591      -71.359       -7.056       34.171       20.371       19.064     1167.638      414.994      363.430        0.441        0.097       82.595       17.669        0.046      337.935       10.246      869.958
03/15/2014  00:32:00      -20.522      -24.077        3.340       23.397       17.386       16.959      547.414      302.264      287.620        0.107        0.057       31.636       16.110        0.259      337.695        9.842      869.981
03/15/2014  00:33:00      -31.609      -53.851        3.701       21.914       25.270       17.609      480.204      638.559      310.087        0.267        0.071       62.443       12.351        0.039      337.747        9.930      870.001
03/15/2014  00:34:00      -10.522      -17.370       17.549       32.206       16.833       18.809     1037.251      283.333      353.762        0.120        0.084       20.309       19.049        0.880      337.585        9.657      870.018
03/15/2014  00:35:00      -59.540      -71.302        6.638       47.263       33.352       21.993     2233.814     1112.352      483.687        0.625        0.191       92.892       22.815        0.060      337.381        9.316      870.026
03/15/2014  00:36:00      -32.538      -43.051        3.568       58.181       37.836       22.129     3385.044     1431.578      489.677        0.411        0.265       53.964       18.434        0.117      337.283        9.154      870.026
03/15/2014  00:37:00      -81.819      -23.527       -7.831       23.954       27.311       16.103      573.771      745.891      259.303        0.444        0.079       85.135       15.243        0.032      337.244        9.088      870.023
03/15/2014  00:38:00      -75.099      -17.450       -8.572       11.547       15.190        9.617      133.325      230.740       92.485        0.324        0.023       77.099        5.133        0.004      337.417        9.377      870.011
03/15/2014  00:39:00      -62.189      -31.565       -9.706       10.230        9.512        7.156      104.659       90.482       51.204        0.260        0.012       69.742        4.645        0.004      337.552        9.602      869.998
03/15/2014  00:40:00      -35.025      -20.733        1.125       32.662       16.108       10.488     1066.827      259.461      109.995        0.155        0.072       40.701        8.538        0.044      337.780        9.985      869.979
03/15/2014  00:41:00      -23.633       -9.235       -0.904       18.659       11.888        6.331      348.145      141.322       40.086        0.059        0.026       25.373        4.970        0.038      337.520        9.549      869.963
03/15/2014  00:42:00      -52.084      -19.163      -13.004       10.581        6.979        4.799      111.958       48.712       23.032        0.172        0.009       55.497        2.161        0.002      337.254        9.104      869.951
03/15/2014  00:43:00      -78.817      -11.754      -17.649       16.515        9.227        8.074      272.752       85.132       65.185        0.354        0.021       79.688        6.499        0.007      337.109        8.861      869.934
03/15/2014  00:44:00      -98.727      -14.364      -19.120       13.591       12.535       13.559      184.713      157.124      183.851        0.542        0.026       99.766        7.917        0.006      337.180        8.979      869.920
03/15/2014  00:45:00     -126.022       -3.895      -18.725       19.381       16.319       15.400      375.616      266.298      237.169        0.856        0.044      126.082       12.299        0.010      337.039        8.743      869.912
03/15/2014  00:46:00      -87.876      -18.496      -18.723       29.007       16.305       14.248      841.397      265.859      202.992        0.486        0.066       89.802       13.465        0.022      336.897        8.507      869.905
03/15/2014  00:47:00      -71.606      -17.201      -13.884       16.393       11.142       10.066      268.723      124.142      101.324        0.306        0.025       73.643        7.144        0.009      336.867        8.458      869.885
03/15/2014  00:48:00      -83.632      -22.857      -17.511       20.443       17.544       10.009      417.933      307.793      100.170        0.432        0.041       86.699        6.478        0.006      336.634        8.068      869.874
03/15/2014  00:49:00     -118.724      -46.364      -15.787       25.415       22.646       11.870      645.898      512.853      140.893        0.890        0.065      127.456        7.058        0.003      336.490        7.827      869.862
03/15/2014  00:50:00     -113.719      -27.803      -13.126       27.040       19.293       16.359      731.164      372.225      267.622        0.762        0.069      117.069       10.889        0.009      336.505        7.852      869.858
03/15/2014  00:51:00     -127.152      -41.390       -6.997       36.408       25.345       19.816     1325.535      642.390      392.689        1.014        0.118      133.719       15.771        0.014      336.518        7.874      869.855
03/15/2014  00:52:00     -135.228      -63.174       -1.761       47.079       36.772       21.456     2216.416     1352.169      460.340        1.315        0.201      149.257       22.364        0.022      336.569        7.958      869.865
03/15/2014  00:53:00     -150.373      -41.341       -8.523       50.260       34.561       23.940     2526.050     1194.455      573.111        1.434        0.215      155.952       24.746        0.025      336.550        7.928      869.887
03/15/2014  00:54:00     -158.158      -36.724       -6.297       53.913       40.401       30.967     2906.566     1632.231      958.945        1.595        0.275      162.366       32.093        0.039      336.537        7.906      869.894
03/15/2014  00:55:00     -180.478      -54.557       -8.646       33.669       37.696       21.909     1133.585     1421.000      480.026        1.933        0.152      188.544       18.765        0.010      336.462        7.779      869.890
03/15/2014  00:56:00     -169.127      -17.236      -18.583       46.113       34.950       28.739     2126.384     1221.492      825.914        1.671        0.209      170.003       27.908        0.027      336.579        7.974      869.896
03/15/2014  00:57:00     -180.170      -20.663      -12.373       35.678       37.689       22.247     1272.946     1420.467      494.947        1.811        0.159      181.351       20.556        0.013      336.405        7.685      869.893
03/15/2014  00:58:00     -144.294      -33.359      -13.785       49.465       34.242       28.646     2446.737     1172.518      820.578        1.328        0.222      148.100       30.683        0.043      336.361        7.612      869.896
03/15/2014  00:59:00     -189.071      -13.053      -24.993       37.521       41.537       21.461     1407.840     1725.287      460.556        2.007        0.180      189.521       17.531        0.009      336.618        8.040      869.900
03/15/2014  01:00:00     -202.505       -1.231      -20.311       34.934       30.546       20.149     1220.402      933.028      405.981        2.199        0.128      202.509       14.559        0.005      336.623        8.048      869.899
03/15/2014  01:01:00     -196.699       16.635      -17.614       29.601       26.407       24.598      876.237      697.333      605.082        2.073        0.109      197.401       18.853        0.009      336.769        8.292      869.906
03/15/2014  01:02:00     -195.317       20.181      -19.245       28.351       26.167       19.538      803.806      684.687      381.749        2.040        0.094      196.357       15.297        0.006      336.789        8.326      869.915
03/15/2014  01:03:00     -201.846       25.869      -17.878       20.842       21.120       21.479      434.402      446.038      461.358        2.154        0.067      203.497       14.839        0.005      336.735        8.236      869.929
03/15/2014  01:04:00     -135.824        3.570      -16.453       60.426       35.929       31.121     3651.332     1290.904      968.519        1.232        0.296      135.870       33.296        0.060      336.532        7.896      869.923
03/15/2014  01:05:00     -198.971        3.372      -26.672       46.817       52.841       31.372     2191.866     2792.184      984.225        2.314        0.298      199.000       30.884        0.024      336.428        7.722      869.916
03/15/2014  01:06:00     -178.324       -8.059      -16.674       65.948       50.672       32.345     4349.118     2567.695     1046.167        2.005        0.398      178.506       31.674        0.031      336.177        7.302      869.915
03/15/2014  01:07:00     -171.413      -43.435       -6.608       80.702       42.541       33.596     6512.833     1809.734     1128.715        2.038        0.473      176.831       39.123        0.049      336.132        7.226      869.908
03/15/2014  01:08:00     -163.909      -59.906       -7.324       50.058       40.163       32.966     2505.786     1613.060     1086.749        1.786        0.260      174.513       30.488        0.031      336.022        7.044      869.921
03/15/2014  01:09:00     -183.328      -25.925      -21.573       33.750       34.021       22.474     1139.059     1157.398      505.089        1.877        0.140      185.152       16.222        0.008      336.216        7.368      869.935
03/15/2014  01:10:00     -216.768       -1.686      -30.257       35.142       46.860       29.853     1234.960     2195.820      891.207        2.611        0.216      216.775       11.864        0.003      336.393        7.661      869.945
03/15/2014  01:11:00     -145.550      -10.127      -13.438       48.234       45.940       35.553     2326.483     2110.513     1264.008        1.358        0.285      145.902       32.412        0.049      336.345        7.583      869.962
03/15/2014  01:12:00     -112.732      -31.987       -4.980       33.107       44.555       25.924     1096.042     1985.105      672.028        0.875        0.188      117.182       17.499        0.022      336.402        7.680      869.969
03/15/2014  01:13:00     -136.384      -33.641      -13.809       40.754       32.017       29.750     1660.878     1025.070      885.037        1.175        0.179      140.472       23.089        0.027      336.480        7.810      869.982
03/15/2014  01:14:00     -114.348      -14.406      -14.893       43.495       33.394       24.263     1891.784     1115.140      588.680        0.855        0.180      115.252       19.380        0.028      336.298        7.505      870.005
03/15/2014  01:15:00     -185.048        5.492      -13.005       63.684       40.884       32.604     4055.634     1671.511     1062.996        2.061        0.340      185.130       34.755        0.035      336.294        7.497      870.021
03/15/2014  01:16:00     -179.131       -3.655      -22.658       57.953       37.070       28.976     3358.545     1374.155      839.624        1.909        0.279      179.168       31.495        0.031      336.285        7.483      870.036
03/15/2014  01:17:00     -142.594       -8.414      -14.152       37.295       27.715       25.377     1390.936      768.144      644.001        1.170        0.140      142.842       23.206        0.026      336.461        7.778      870.037
03/15/2014  01:18:00     -150.976        6.861      -18.867       32.323       34.034       20.404     1044.800     1158.332      416.333        1.291        0.131      151.132       15.716        0.011      336.547        7.922      870.054
03/15/2014  01:19:00     -158.979       12.101      -21.192       36.122       27.708       26.017     1304.793      767.758      676.868        1.431        0.137      159.438       22.368        0.020      336.424        7.716      870.059
03/15/2014  01:20:00     -132.297        7.875       -9.385       24.022       26.990       20.506      577.045      728.455      420.477        0.969        0.086      132.531       13.154        0.010      336.490        7.827      870.072
03/15/2014  01:21:00      -98.784      -31.613       -6.506       27.074       25.464       16.974      732.999      648.411      288.113        0.623        0.083      103.719       11.637        0.013      336.256        7.436      870.081
03/15/2014  01:22:00      -68.517       -6.212       -3.806       40.440       31.015       19.919     1635.364      961.941      396.747        0.387        0.150       68.798       20.573        0.089      336.329        7.558      870.098
03/15/2014  01:23:00      -69.712      -14.524       -5.071       35.169       23.824       16.107     1236.872      567.592      259.435        0.358        0.103       71.209       12.523        0.031      336.359        7.608      870.111
03/15/2014  01:24:00      -63.264       -1.517       -5.697       43.714       25.987       18.634     1910.889      675.314      347.208        0.348        0.147       63.282       16.279        0.066      336.320        7.543      870.110
03/15/2014  01:25:00      -93.731      -13.442      -12.851       32.555       27.047       15.953     1059.831      731.515      254.501        0.559        0.102       94.690       14.206        0.023      336.301        7.512      870.120
03/15/2014  01:26:00     -107.123      -18.947       -7.635       31.600       23.211       14.929      998.588      538.750      222.870        0.683        0.088      108.786       16.919        0.024      336.332        7.562      870.118
03/15/2014  01:27:00     -113.187      -10.154      -15.313       30.541       13.545       12.561      932.732      183.467      157.787        0.721        0.064      113.641       14.243        0.016      336.301        7.512      870.108
03/15/2014  01:28:00      -95.229      -20.972       -9.828       26.840       19.247       14.368      720.389      370.451      206.441        0.545        0.065       97.511       15.125        0.024      336.233        7.397      870.100
03/15/2014  01:29:00     -102.627      -17.569       -1.762       37.079       20.044       19.637     1374.830      401.746      385.621        0.650        0.108      104.120       22.708        0.048      336.160        7.274      870.077
03/15/2014  01:30:00     -133.420      -15.624       -8.907       33.260       19.279       19.876     1106.217      371.698      395.057        1.000        0.094      134.332       19.114        0.020      336.009        7.022      870.064
03/15/2014  01:31:00     -111.480       -2.913       -2.944       52.966       31.452       26.243     2805.439      989.258      688.694        0.846        0.224      111.518       29.599        0.070      335.972        6.962      870.060
03/15/2014  01:32:00     -119.998        1.052       -9.152       50.786       33.939       31.750     2579.194     1151.832     1008.041        0.961        0.237      120.003       34.496        0.083      336.281        7.478      870.049
03/15/2014  01:33:00      -69.627       -1.455        0.804       56.741       39.849       21.728     3219.528     1587.976      472.118        0.506        0.264       69.642       21.952        0.099      336.222        7.379      870.047
03/15/2014  01:34:00      -48.080       16.054       -2.008       26.121       24.540       20.281      682.322      602.201      411.329        0.213        0.085       50.689       15.181        0.090      336.372        7.629      870.066
03/15/2014  01:35:00      -43.638       -9.703       -2.216       19.414       25.216       14.794      376.902      635.826      218.849        0.162        0.062       44.704        7.523        0.028      336.448        7.757      870.076
03/15/2014  01:36:00      -48.194      -11.616       -2.794       33.730       20.189       12.564     1137.717      407.609      157.865        0.208        0.085       49.574        8.919        0.032      336.173        7.296      870.084
03/15/2014  01:37:00      -54.048      -12.540      -12.581       27.891       15.650       15.204      777.880      244.922      231.168        0.225        0.063       55.483       14.100        0.065      336.173        7.298      870.092
03/15/2014  01:38:00      -45.806      -25.445       -4.076       36.934       16.813       12.332     1364.125      282.670      152.082        0.228        0.090       52.399       10.117        0.037      336.097        7.169      870.088
03/15/2014  01:39:00      -77.623      -25.738       -8.933       16.351       18.004       13.903      267.339      324.148      193.298        0.378        0.039       81.779        6.466        0.006      336.058        7.105      870.091
03/15/2014  01:40:00      -70.582      -17.002       -9.311        9.510        9.304        6.583       90.441       86.566       43.337        0.279        0.011       72.600        1.184        0.000      336.176        7.302      870.093
03/15/2014  01:41:00      -91.930      -11.984       -9.684       15.401       13.497       13.841      237.187      182.168      191.560        0.465        0.031       92.708        8.176        0.008      336.118        7.205      870.100
03/15/2014  01:42:00      -87.446      -23.852      -17.153        9.471        9.619        8.387       89.696       92.516       70.349        0.438        0.013       90.640        4.241        0.002      336.163        7.279      870.132
03/15/2014  01:43:00      -85.346      -21.419      -14.036        9.753        9.702        9.438       95.129       94.135       89.074        0.411        0.014       87.993        4.296        0.002      336.224        7.382      870.157
03/15/2014  01:44:00      -86.491      -37.417      -13.257       11.174       10.397        9.103      124.855      108.097       82.860        0.469        0.016       94.238        3.858        0.002      336.197        7.338      870.177
03/15/2014  01:45:00      -91.508      -41.550      -12.827       10.337        8.424        9.095      106.856       70.969       82.722        0.526        0.013      100.499        5.314        0.003      336.264        7.449      870.190
03/15/2014  01:46:00     -126.558      -49.737      -13.495       20.622       16.592       12.297      425.264      275.278      151.222        0.976        0.043      135.980        9.518        0.005      336.141        7.244      870.208
03/15/2014  01:47:00     -104.964      -68.018       -8.153       27.149       19.454       20.181      737.043      378.446      407.270        0.862        0.076      125.076       13.638        0.012      336.016        7.034      870.227
03/15/2014  01:48:00     -142.574      -80.335        3.480       32.437       33.220       20.804     1052.186     1103.582      432.802        1.469        0.129      163.649       16.619        0.010      336.053        7.096      870.245
03/15/2014  01:49:00     -136.111      -77.194       -9.663       37.794       25.884       20.654     1428.381      670.006      426.608        1.355        0.126      156.477        6.648        0.002      336.071        7.125      870.263
03/15/2014  01:50:00     -128.495      -69.095       -4.520       41.609       32.872       15.678     1731.325     1080.547      245.810        1.218        0.153      145.894       16.233        0.012      336.103        7.181      870.272
03/15/2014  01:51:00     -117.680      -56.332       -6.526       38.243       29.960       18.209     1462.506      897.609      331.581        0.988        0.135      130.468       15.245        0.014      336.095        7.166      870.280
03/15/2014  01:52:00     -111.765      -36.374        4.727       58.102       48.612       25.115     3375.866     2363.135      630.773        1.010        0.318      117.535       29.662        0.064      336.063        7.111      870.288
03/15/2014  01:53:00     -106.099      -57.257        0.050       36.953       32.055       22.054     1365.557     1027.528      486.394        0.871        0.144      120.563       18.065        0.022      336.069        7.122      870.289
03/15/2014  01:54:00     -112.184      -50.298       -0.045       32.799       25.210       19.568     1075.773      635.551      382.894        0.860        0.105      122.944       11.816        0.009      336.101        7.175      870.295
03/15/2014  01:55:00      -91.660      -57.543       -6.612       25.785       20.201       14.382      664.850      408.073      206.832        0.652        0.064      108.225       12.716        0.014      336.084        7.146      870.305
03/15/2014  01:56:00      -59.219      -54.836        6.753       29.206       32.569       18.686      853.005     1060.715      349.164        0.441        0.113       80.708       11.479        0.020      336.050        7.091      870.312
03/15/2014  01:57:00      -30.127      -27.899       -0.331       25.903       21.212       17.476      670.983      449.951      305.421        0.156        0.071       41.060       14.133        0.118      336.035        7.066      870.320
03/15/2014  01:58:00      -30.965      -24.531        2.074       30.053       17.058       12.840      903.174      290.986      164.860        0.146        0.068       39.504       12.732        0.104      335.973        6.964      870.340
03/15/2014  01:59:00      -13.773      -26.721        2.795       14.734       10.990        9.771      217.101      120.769       95.476        0.067        0.022       30.061        5.259        0.031      336.073        7.128      870.358
03/15/2014  02:00:00      -41.919      -25.085       -0.798       28.074       12.616       13.880      788.144      159.163      192.663        0.176        0.057       48.851       14.958        0.094      336.042        7.079      870.368
03/15/2014  02:01:00      -26.972      -38.417       -4.631       17.234       12.859       11.999      297.010      165.358      143.976        0.142        0.030       46.940       11.926        0.065      336.057        7.103      870.366
03/15/2014  02:02:00      -11.630      -29.071        6.816       17.503       20.365       12.701      306.360      414.735      161.324        0.095        0.044       31.311       10.726        0.117      336.193        7.330      870.364
03/15/2014  02:03:00      -88.309      -37.356       -5.298       27.234       27.576       15.707      741.669      760.438      246.696        0.549        0.087       95.886       14.787        0.024      336.085        7.150      870.374
03/15/2014  02:04:00      -90.115      -33.314       -2.448       27.541       23.205       16.201      758.501      538.471      262.461        0.540        0.078       96.076       14.779        0.024      336.082        7.145      870.369
03/15/2014  02:05:00      -93.306      -33.552       -4.200       30.283       15.785       15.712      917.047      249.176      246.872        0.563        0.071       99.155       17.735        0.032      335.923        6.880      870.352
03/15/2014  02:06:00     -111.332      -53.846       -7.799       19.582       15.073       12.259      383.470      227.187      150.274        0.806        0.038      123.670       12.425        0.010      335.998        7.004      870.350
03/15/2014  02:07:00     -102.144      -57.651       -7.492       14.911       20.660       15.517      222.351      426.852      240.787        0.735        0.044      117.291       10.030        0.007      335.978        6.971      870.353
03/15/2014  02:08:00     -132.896      -28.404       -2.176       38.314       28.226       19.753     1467.960      796.687      390.170        1.056        0.133      135.898       22.456        0.027      335.974        6.965      870.349
03/15/2014  02:09:00     -149.137      -24.009       -1.787       43.445       38.270       28.964     1887.445     1464.573      838.900        1.351        0.210      151.057       27.744        0.034      336.201        7.343      870.352
03/15/2014  02:10:00     -129.379      -50.185      -10.200       24.053       19.127       17.003      578.544      365.843      289.112        1.030        0.062      138.771       13.053        0.009      336.319        7.541      870.357
03/15/2014  02:11:00     -124.254      -26.364      -14.415       17.406       16.916       14.182      302.957      286.166      201.131        0.857        0.040      127.020        8.800        0.005      336.270        7.459      870.374
03/15/2014  02:12:00     -100.272       -9.668       -9.457       30.073       21.225       14.998      904.370      450.480      224.953        0.591        0.079      100.736       14.077        0.020      336.242        7.412      870.388
03/15/2014  02:13:00      -84.638      -26.560       -5.352       22.045       25.230       14.672      485.965      636.556      215.256        0.462        0.067       88.707       12.725        0.021      336.180        7.308      870.398
03/15/2014  02:14:00      -96.085      -36.553       -6.580       26.985       21.311       14.448      728.170      454.178      208.758        0.600        0.070      102.802       13.367        0.017      336.081        7.142      870.404
03/15/2014  02:15:00      -64.793      -40.237        4.596       37.657       22.987       21.921     1418.056      528.392      480.550        0.413        0.121       76.270       21.876        0.082      336.059        7.106      870.417
03/15/2014  02:16:00      -87.995      -46.383        0.230       42.479       22.371       17.482     1804.471      500.474      305.618        0.625        0.131       99.471       20.846        0.044      335.975        6.965      870.421
03/15/2014  02:17:00      -89.494      -34.059       -5.927       15.550       20.009       13.729      241.807      400.365      188.486        0.502        0.042       95.756       10.044        0.011      336.001        7.010      870.421
03/15/2014  02:18:00     -101.323      -37.428       -4.585       24.901       21.266       13.396      620.079      452.238      179.465        0.647        0.063      108.015       12.864        0.014      335.977        6.968      870.416
03/15/2014  02:19:00     -109.577      -26.607       -7.337       28.231       31.175       15.214      796.987      971.904      231.471        0.738        0.100      112.761       13.735        0.015      335.874        6.799      870.427
03/15/2014  02:20:00      -96.220       -6.957       -7.031       57.457       32.915       28.186     3301.250     1083.396      794.425        0.727        0.259       96.471       27.573        0.082      335.791        6.661      870.434
03/15/2014  02:21:00     -128.116       -0.259       -2.896       43.792       39.393       27.237     1917.764     1551.832      741.833        1.032        0.211      128.116       23.306        0.033      335.805        6.684      870.425
03/15/2014  02:22:00     -158.006       16.906      -18.692       28.430       28.329       20.936      808.237      802.526      438.300        1.382        0.102      158.908       13.177        0.007      335.817        6.703      870.420
03/15/2014  02:23:00     -147.900        9.350      -13.236       33.424       29.846       17.599     1117.135      890.774      309.724        1.223        0.116      148.196       15.189        0.011      335.760        6.608      870.423
03/15/2014  02:24:00     -128.235       -0.921      -17.136       39.020       25.960       20.543     1522.539      673.900      422.000        0.968        0.131      128.239       17.281        0.018      335.717        6.537      870.430
03/15/2014  02:25:00     -121.275      -13.815      -10.064       39.589       33.565       22.000     1567.258     1126.593      484.000        0.909        0.159      122.059       17.826        0.021      335.654        6.433      870.440
03/15/2014  02:26:00     -102.372      -42.838       -9.253       22.726       23.566       12.609      516.478      555.346      158.988        0.682        0.062      110.973        5.646        0.003      335.640        6.409      870.437
03/15/2014  02:27:00     -119.103      -57.025      -13.663       43.643       28.516       21.697     1904.709      813.161      470.743        1.041        0.159      132.051       15.815        0.014      335.547        6.253      870.444
03/15/2014  02:28:00     -157.747      -59.305       -3.846       27.215       23.815       14.288      740.681      567.168      204.135        1.496        0.076      168.527       11.561        0.005      335.446        6.086      870.457
03/15/2014  02:29:00     -141.863      -64.896       -4.954       34.806       28.671       21.640     1211.447      822.041      468.302        1.343        0.125      156.002       14.968        0.009      335.473        6.131      870.476
03/15/2014  02:30:00      -98.678      -50.431       -9.511       60.625       22.371       23.693     3675.345      500.449      561.337        0.855        0.237      110.818       31.686        0.082      335.544        6.249      870.489
03/15/2014  02:31:00      -92.807      -33.289       -9.009       19.820       19.789       11.666      392.833      391.594      136.103        0.536        0.046       98.597        6.706        0.005      335.648        6.423      870.503
03/15/2014  02:32:00      -90.225      -20.329       -5.245       17.963       15.218       10.567      322.674      231.587      111.654        0.462        0.033       92.487        9.529        0.011      335.676        6.469      870.522
03/15/2014  02:33:00      -72.121      -18.546       -8.021       17.294       14.845       10.673      299.067      220.383      113.903        0.312        0.032       74.467        9.394        0.016      335.763        6.614      870.525
03/15/2014  02:34:00      -58.930        0.413      -10.391        7.919        6.782        6.523       62.718       46.000       42.547        0.187        0.008       58.932        2.131        0.001      335.803        6.679      870.522
03/15/2014  02:35:00      -37.700       10.506       -5.099       16.219        8.909        7.425      263.049       79.368       55.124        0.098        0.020       39.136        6.029        0.024      335.993        6.997      870.522
03/15/2014  02:36:00       -0.788        0.077        2.607        5.251        6.372        6.300       27.570       40.607       39.690        0.006        0.005        0.792        3.179       16.106      335.913        6.865      870.527
03/15/2014  02:37:00       -1.856      -17.063        1.221        4.128       10.942        6.250       17.041      119.733       39.056        0.024        0.009       17.163        2.176        0.016      336.034        7.064      870.532
03/15/2014  02:38:00       -8.380      -20.746        2.290       16.121       15.429       10.177      259.878      238.041      103.571        0.055        0.030       22.374        7.055        0.099      335.833        6.730      870.534
03/15/2014  02:39:00      -51.037      -24.395       -4.225       25.759       13.138       11.649      663.548      172.599      135.694        0.209        0.049       56.568       12.836        0.051      335.621        6.377      870.537
03/15/2014  02:40:00      -98.301      -36.887       -8.406       12.179       10.502        8.248      148.331      110.286       68.026        0.571        0.016      104.994        5.381        0.003      335.515        6.200      870.544
03/15/2014  02:41:00     -103.439      -35.270      -15.105       19.851       12.305        9.644      394.048      151.403       93.014        0.640        0.032      109.287        3.475        0.001      335.459        6.106      870.535
03/15/2014  02:42:00     -139.424      -41.940      -14.605       18.076       14.269       11.459      326.730      203.603      131.307        1.104        0.033      145.595        5.290        0.001      335.374        5.965      870.525
03/15/2014  02:43:00     -149.984      -55.911       -3.622       22.713       20.951       17.876      515.875      438.952      319.566        1.345        0.064      160.067       14.641        0.008      335.274        5.798      870.533
03/15/2014  02:44:00      -92.576      -67.184       -2.370       41.649       26.584       23.027     1734.673      706.697      530.257        0.803        0.149      114.385       17.036        0.022      335.270        5.791      870.536
03/15/2014  02:45:00     -114.650      -55.959       -3.085       40.237       23.235       21.709     1618.995      539.878      471.276        0.946        0.132      127.578       22.906        0.032      335.251        5.759      870.529
03/15/2014  02:46:00      -65.664      -15.322        0.313       32.574       26.860       17.103     1061.040      721.437      292.504        0.331        0.104       67.428       16.668        0.061      335.256        5.767      870.520
03/15/2014  02:47:00      -77.896        1.620      -10.838       19.648       12.040       10.503      386.038      144.954      110.320        0.341        0.032       77.912        8.111        0.011      335.178        5.638      870.518
03/15/2014  02:48:00      -98.892       -2.720      -11.526       22.635       16.288       17.595      512.325      265.283      309.590        0.550        0.054       98.930       12.821        0.017      335.181        5.644      870.522
03/15/2014  02:49:00     -109.216      -52.474       -2.625       38.721       26.591       23.281     1499.311      707.097      542.004        0.872        0.137      121.168       22.833        0.036      335.187        5.655      870.521
03/15/2014  02:50:00      -85.499      -55.543       -4.780       35.063       19.267       21.381     1229.440      371.211      457.132        0.624        0.103      101.956       21.802        0.046      335.196        5.667      870.530
03/15/2014  02:51:00     -118.505      -59.313       -5.226       26.343       23.382       17.869      693.980      546.698      319.312        0.957        0.078      132.519       13.286        0.010      335.162        5.613      870.537
03/15/2014  02:52:00     -128.134      -31.122      -13.935       18.313       21.209       16.052      335.357      449.829      257.669        0.931        0.052      131.860       10.904        0.007      335.046        5.421      870.544
03/15/2014  02:53:00     -114.303      -40.094      -14.834       16.124       21.873        8.018      259.971      478.442       64.282        0.785        0.040      121.131        9.926        0.007      335.009        5.359      870.559
03/15/2014  02:54:00     -108.109      -35.233       -7.727       19.656       22.390       14.553      386.341      501.298      211.799        0.704        0.055      113.706       10.633        0.009      335.012        5.365      870.558
03/15/2014  02:55:00     -111.274      -29.818      -11.951       14.699       16.124       10.803      216.067      259.990      116.697        0.700        0.030      115.200        7.271        0.004      334.955        5.269      870.548
03/15/2014  02:56:00     -106.627      -17.521      -11.589       16.189       14.405        9.725      262.099      207.492       94.572        0.619        0.028      108.056        6.986        0.004      334.917        5.206      870.548
03/15/2014  02:57:00     -102.235      -18.118       -6.938       22.955       14.859        9.976      526.912      220.801       99.523        0.584        0.042      103.828        9.677        0.009      334.977        5.307      870.551
03/15/2014  02:58:00     -115.165      -36.767       -8.423       15.696       12.943       14.616      246.363      167.516      213.636        0.766        0.031      120.891       11.096        0.008      334.899        5.177      870.554
03/15/2014  02:59:00     -119.849      -35.256       -4.407       24.638       15.142       14.514      607.042      229.290      210.661        0.834        0.052      124.927       14.919        0.014      334.973        5.299      870.556
03/15/2014  03:00:00      -91.245       -8.689       -6.714       23.744       28.916       11.260      563.799      836.155      126.793        0.499        0.076       91.657       11.922        0.017      335.036        5.403      870.564
03/15/2014  03:01:00      -90.812       -3.219      -12.564       30.106       17.768       19.203      906.385      315.714      368.769        0.500        0.080       90.869       18.511        0.041      334.997        5.339      870.564
03/15/2014  03:02:00     -103.273        0.563      -11.852       28.481       15.782       14.196      811.186      249.067      201.525        0.603        0.063      103.275       15.193        0.022      335.103        5.516      870.560
03/15/2014  03:03:00     -100.244       -7.520      -11.973       26.964       22.395       18.450      727.038      501.552      340.386        0.591        0.078      100.526       14.470        0.021      335.098        5.506      870.558
03/15/2014  03:04:00      -61.219      -18.567       -5.693       28.444       29.380       16.958      809.065      863.159      287.588        0.304        0.098       63.973       15.973        0.062      335.017        5.373      870.564
03/15/2014  03:05:00      -80.514      -46.575       -3.229       30.321       33.503       19.291      919.391     1122.456      372.141        0.554        0.121       93.015       18.720        0.041      334.935        5.236      870.566
03/15/2014  03:06:00      -97.227      -37.269       -7.935       35.350       27.602       17.529     1249.619      761.874      307.259        0.661        0.116      104.125       18.568        0.032      334.825        5.053      870.561
03/15/2014  03:07:00      -98.200      -34.800       -1.915       32.554       25.608       14.933     1059.795      655.788      222.982        0.640        0.097      104.184       13.207        0.016      334.851        5.097      870.549
03/15/2014  03:08:00     -101.059      -32.687      -10.343       36.179       23.647       15.075     1308.892      559.169      227.263        0.674        0.105      106.214       11.733        0.012      334.853        5.099      870.555
03/15/2014  03:09:00      -87.761      -21.800       -5.819       35.668       26.146       21.273     1272.234      683.608      452.530        0.531        0.120       90.428       18.733        0.043      334.760        4.945      870.562
03/15/2014  03:10:00      -88.577      -17.183      -11.167       39.828       24.888       18.700     1586.269      619.431      349.672        0.541        0.128       90.228       18.819        0.044      334.732        4.899      870.571
03/15/2014  03:11:00      -78.675      -13.657      -10.429       27.292       17.850       11.545      744.844      318.623      133.279        0.384        0.060       79.852       13.189        0.027      334.722        4.883      870.583
03/15/2014  03:12:00      -72.782      -32.037      -11.666       20.626       25.736       15.046      425.430      662.332      226.378        0.389        0.066       79.521       12.722        0.026      334.703        4.851      870.607
03/15/2014  03:13:00      -97.346      -60.487      -14.647       14.803       22.976       12.567      219.138      527.885      157.928        0.713        0.045      114.607       11.504        0.010      334.705        4.853      870.632
03/15/2014  03:14:00      -63.056      -40.350        2.404       56.422       32.800       19.972     3183.418     1075.864      398.873        0.513        0.233       74.861       21.985        0.086      334.821        5.046      870.632
03/15/2014  03:15:00      -80.119      -59.487       -7.913       20.685       22.511       13.497      427.872      506.763      182.169        0.557        0.056       99.789       10.284        0.011      335.098        5.506      870.616
03/15/2014  03:16:00      -53.836      -31.857        1.032       28.482       15.338       13.229      811.214      235.264      175.019        0.257        0.061       62.556       14.969        0.057      335.229        5.724      870.603
03/15/2014  03:17:00      -84.783      -35.367       -4.518       38.395       22.857       15.492     1474.187      522.427      239.992        0.535        0.112       91.864       11.562        0.016      335.116        5.537      870.591
03/15/2014  03:18:00     -121.166      -56.285       -3.814       27.726       33.610       22.359      768.738     1129.641      499.903        1.013        0.120      133.600       13.092        0.010      335.206        5.684      870.575
03/15/2014  03:19:00      -59.199      -50.432        7.801       40.173       39.731       21.080     1613.860     1578.573      444.352        0.487        0.182       77.768       21.668        0.078      335.178        5.639      870.565
03/15/2014  03:20:00     -100.835      -44.936       -2.020       34.126       27.027       20.781     1164.608      730.453      431.866        0.726        0.116      110.394       16.990        0.024      334.992        5.332      870.547
03/15/2014  03:21:00     -114.432      -17.911       -8.905       26.944       16.520       13.389      725.990      272.926      179.269        0.734        0.059      115.825       11.994        0.011      334.921        5.214      870.546
03/15/2014  03:22:00     -101.158      -16.698      -17.813       35.630       20.189       14.478     1269.498      407.603      209.614        0.636        0.094      102.527       14.580        0.020      334.856        5.104      870.529
03/15/2014  03:23:00     -131.434      -24.797      -10.319       46.142       27.276       18.391     2129.059      743.964      338.224        1.060        0.161      133.752       18.240        0.019      334.719        4.875      870.514
03/15/2014  03:24:00     -142.346      -27.740       -6.657       36.332       23.700       19.395     1320.032      561.669      376.180        1.167        0.113      145.024       16.575        0.013      334.605        4.688      870.514
03/15/2014  03:25:00     -112.346      -66.696       -5.436       41.298       37.478       25.577     1705.497     1404.568      654.174        1.043        0.188      130.653       19.374        0.022      334.631        4.730      870.501
03/15/2014  03:26:00      -61.822      -53.904        7.944       54.277       34.221       27.317     2945.948     1171.063      746.225        0.583        0.243       82.022       31.908        0.151      334.643        4.749      870.497
03/15/2014  03:27:00     -133.059      -69.479      -10.946       51.165       24.901       21.566     2617.900      620.052      465.109        1.318        0.185      150.107       24.122        0.026      334.624        4.720      870.488
03/15/2014  03:28:00     -149.225      -44.705       -8.473       33.858       18.609       16.830     1146.377      346.302      283.256        1.306        0.089      155.778       16.902        0.012      334.668        4.791      870.493
03/15/2014  03:29:00     -140.774      -52.453       -5.157       35.589       20.261       15.921     1266.577      410.491      253.488        1.226        0.097      150.229       12.737        0.007      334.692        4.832      870.502
03/15/2014  03:30:00      -97.497      -72.226        0.072       47.418       30.550       24.037     2248.425      933.284      577.795        0.924        0.188      121.336       20.196        0.028      334.824        5.052      870.506
03/15/2014  03:31:00      -87.042      -45.470       -1.442       27.302       37.954       15.566      745.403     1440.526      242.301        0.604        0.121       98.203       15.116        0.024      334.810        5.028      870.506
03/15/2014  03:32:00      -95.664      -15.535       -4.375       26.790       21.934       17.460      717.722      481.084      304.866        0.546        0.075       96.917       15.943        0.027      334.788        4.991      870.522
03/15/2014  03:33:00      -90.618      -23.880       -3.975       25.606       17.959       12.814      655.685      322.532      164.207        0.497        0.057       93.711       12.522        0.018      334.910        5.194      870.525
03/15/2014  03:34:00      -82.716      -29.186       -5.528       26.989       14.070        9.586      728.408      197.967       91.894        0.437        0.051       87.714       10.431        0.014      334.972        5.297      870.530
03/15/2014  03:35:00      -32.314      -27.864        0.973       14.076       13.237       12.116      198.130      175.229      146.791        0.117        0.026       42.668       10.811        0.064      335.046        5.422      870.538
03/15/2014  03:36:00      -39.271        0.298        1.985       20.255       11.864        9.406      410.259      140.754       88.473        0.109        0.032       39.272        6.252        0.025      334.940        5.245      870.552
03/15/2014  03:37:00      -61.210       -1.827       -6.243       13.934       13.741       13.097      194.147      188.802      171.544        0.217        0.028       61.237       11.344        0.034      334.932        5.230      870.569
03/15/2014  03:38:00      -37.437      -22.383       -4.210       15.733       10.140       10.039      247.524      102.810      100.774        0.119        0.023       43.618        8.589        0.039      334.920        5.211      870.578
03/15/2014  03:39:00      -30.299      -19.339        0.184       20.462       12.970        8.996      418.708      168.210       80.929        0.098        0.033       35.945        8.222        0.052      334.870        5.129      870.596
03/15/2014  03:40:00      -42.773      -23.475        7.725       24.170        9.715       11.537      584.192       94.385      133.092        0.163        0.041       48.792       12.979        0.071      334.769        4.960      870.618
03/15/2014  03:41:00      -53.212      -28.897        0.794       20.372       16.122       16.607      415.023      259.934      275.781        0.231        0.048       60.552       15.241        0.063      334.766        4.956      870.638
03/15/2014  03:42:00      -15.383      -28.319        8.251       23.635       24.257       13.958      558.635      588.386      194.832        0.122        0.067       32.228       12.661        0.154      334.735        4.904      870.639
03/15/2014  03:43:00      -44.779      -41.548        0.870       32.976       26.103       19.924     1087.392      681.380      396.966        0.295        0.108       61.085       20.539        0.113      334.807        5.024      870.640
03/15/2014  03:44:00      -53.595      -42.929        3.593       24.064       21.328       18.809      579.080      454.867      353.766        0.306        0.069       68.669       15.796        0.053      334.850        5.094      870.648
03/15/2014  03:45:00      -43.563      -29.045        1.769       25.391       15.337       14.432      644.707      235.236      208.286        0.192        0.054       52.358       11.603        0.049      334.791        4.998      870.640
03/15/2014  03:46:00      -39.535      -12.761       -2.307       17.168        9.382        8.675      294.753       88.028       75.248        0.109        0.023       41.543        7.664        0.034      334.777        4.973      870.637
03/15/2014  03:47:00       -8.205       -1.646        8.576       12.962        8.393        9.121      168.004       70.448       83.195        0.023        0.016        8.369        5.086        0.369      334.783        4.984      870.633
03/15/2014  03:48:00      -41.042      -11.578        1.543       17.469       14.633        9.256      305.178      214.110       85.666        0.121        0.030       42.644        6.050        0.020      334.806        5.022      870.635
03/15/2014  03:49:00      -25.450      -11.820       -0.964       19.650        9.863        8.461      386.120       97.286       71.589        0.067        0.028       28.060        9.975        0.126      334.767        4.957      870.640
03/15/2014  03:50:00      -58.779      -17.285       -4.041       14.410       12.502       10.115      207.647      156.298      102.318        0.212        0.023       61.268        6.467        0.011      334.785        4.988      870.635
03/15/2014  03:51:00      -69.234      -32.850       -6.008       11.239       12.604        8.209      126.310      158.859       67.389        0.313        0.018       76.633        2.416        0.001      334.793        5.000      870.632
03/15/2014  03:52:00      -69.783      -29.737       -4.482       12.550       10.933        9.372      157.505      119.536       87.841        0.307        0.018       75.855        8.160        0.012      334.632        4.733      870.634
03/15/2014  03:53:00      -77.300      -30.019       -4.946        9.144       13.871        6.843       83.604      192.395       46.827        0.361        0.016       82.925        7.389        0.008      334.589        4.662      870.634
03/15/2014  03:54:00      -81.335      -45.425       -2.390       22.168       14.846       12.381      491.406      220.418      153.285        0.477        0.043       93.160        8.695        0.009      334.615        4.703      870.631
03/15/2014  03:55:00      -97.714      -39.507        0.518       22.622       14.855       15.180      511.770      220.659      230.431        0.604        0.048      105.399       16.249        0.024      334.536        4.572      870.642
03/15/2014  03:56:00      -97.097      -39.755       -0.113       21.678       18.978       16.284      469.925      360.165      265.183        0.605        0.055      104.921       12.184        0.013      334.489        4.495      870.661
03/15/2014  03:57:00      -60.402      -41.599        1.963       35.291       23.348       18.975     1245.461      545.129      360.046        0.377        0.108       73.340       16.141        0.048      334.659        4.777      870.683
03/15/2014  03:58:00      -46.561      -38.462        5.801       36.709       25.293       19.855     1347.525      639.741      394.230        0.303        0.119       60.393       19.281        0.102      334.656        4.771      870.701
03/15/2014  03:59:00      -73.624      -31.687       -1.893       26.272       16.026       12.378      690.198      256.823      153.214        0.376        0.055       80.154       10.808        0.018      334.591        4.664      870.721
03/15/2014  04:00:00      -91.008      -33.001       -1.485       18.216       15.181       12.952      331.841      230.460      167.743        0.505        0.037       96.806       10.460        0.012      334.600        4.678      870.725
03/15/2014  04:01:00      -69.596      -25.212       -1.181       23.413       19.795       13.244      548.147      391.853      175.412        0.330        0.056       74.022        9.241        0.016      334.582        4.650      870.733
03/15/2014  04:02:00      -73.746      -27.211       -3.361       28.504       14.461       10.528      812.506      209.121      110.830        0.366        0.057       78.606       12.840        0.027      334.538        4.576      870.740
03/15/2014  04:03:00      -85.437      -27.738       -6.150       10.271       13.685        9.560      105.486      187.288       91.400        0.425        0.019       89.827        6.284        0.005      334.534        4.570      870.762
03/15/2014  04:04:00      -88.149      -22.219       -7.085       18.094       12.349       14.934      327.388      152.493      223.023        0.451        0.035       90.906       11.847        0.017      334.509        4.528      870.786
03/15/2014  04:05:00      -71.908      -25.754       -5.416       21.090       16.695       13.772      444.784      278.724      189.665        0.339        0.046       76.381       10.800        0.020      334.512        4.533      870.796
03/15/2014  04:06:00      -67.235      -26.013       -0.435       13.884       10.230        8.130      192.771      104.663       66.090        0.278        0.018       72.092        5.778        0.006      334.548        4.593      870.812
03/15/2014  04:07:00      -71.531      -23.030       -4.239       14.901       19.327        9.479      222.031      373.536       89.844        0.318        0.034       75.147        6.858        0.008      334.616        4.706      870.814
03/15/2014  04:08:00      -94.990      -13.994       -8.256       27.891       21.987       15.439      777.912      483.446      238.357        0.539        0.075       96.015       14.527        0.023      334.501        4.515      870.808
03/15/2014  04:09:00     -107.323      -14.112      -11.493       22.031       14.946       14.789      485.357      223.391      218.726        0.639        0.046      108.247       13.341        0.015      334.424        4.388      870.805
03/15/2014  04:10:00     -110.379      -16.115      -17.561       17.340       10.786        9.208      300.670      116.347       84.791        0.663        0.025      111.549        7.513        0.005      334.417        4.377      870.812
03/15/2014  04:11:00      -79.895      -13.677       -3.306       28.833       15.373       12.574      831.318      236.338      158.095        0.390        0.061       81.057       12.421        0.023      334.426        4.392      870.825
03/15/2014  04:12:00     -105.486      -23.952       -9.534       20.988       15.557       11.430      440.489      242.024      130.645        0.630        0.041      108.171        9.755        0.008      334.463        4.453      870.838
03/15/2014  04:13:00      -79.049      -40.914      -13.643       19.068       19.276       19.576      363.592      371.545      383.231        0.461        0.056       89.010        8.728        0.010      334.369        4.297      870.839
03/15/2014  04:14:00      -38.985      -37.421       -8.868       30.078       13.255       14.874      904.656      175.695      221.227        0.215        0.065       54.039       16.363        0.092      334.303        4.188      870.842
03/15/2014  04:15:00      -63.482      -28.165       -6.295       32.599       20.746       19.696     1062.723      430.408      387.950        0.337        0.094       69.449       21.529        0.096      334.233        4.071      870.846
03/15/2014  04:16:00      -65.920      -50.812       -4.133       16.967       22.614       13.995      287.872      511.388      195.871        0.397        0.050       83.230        7.195        0.007      334.201        4.017      870.851
03/15/2014  04:17:00      -54.394      -24.563       -9.580       18.187       16.851       10.884      330.753      283.972      118.451        0.219        0.037       59.683        6.959        0.014      334.253        4.103      870.863
03/15/2014  04:18:00      -55.995      -32.933       -5.493       17.507       12.647        8.941      306.502      159.939       79.935        0.240        0.027       64.962        5.911        0.008      334.302        4.184      870.891
03/15/2014  04:19:00      -23.029      -26.838       -3.068       27.665       15.817       13.540      765.342      250.193      183.319        0.123        0.060       35.364       10.866        0.094      334.338        4.245      870.914
03/15/2014  04:20:00      -11.199      -29.342        8.762       25.065       17.532       17.478      628.244      307.356      305.484        0.115        0.062       31.406       16.728        0.284      334.314        4.207      870.934
03/15/2014  04:21:00      -29.871      -26.092        9.879       36.873       19.202       15.699     1359.646      368.717      246.446        0.182        0.099       39.662       14.136        0.127      334.317        4.210      870.954
03/15/2014  04:22:00      -14.781      -27.988        9.704       23.797       22.615       14.407      566.281      511.450      207.553        0.119        0.064       31.651       10.499        0.110      334.403        4.353      870.972
03/15/2014  04:23:00      -50.793      -39.595       -1.579       25.520       18.474       16.986      651.257      341.296      288.539        0.272        0.064       64.403       16.470        0.065      334.511        4.531      870.994
03/15/2014  04:24:00      -47.742      -18.783        6.370       42.720       27.249       18.913     1824.967      742.486      357.717        0.280        0.146       51.304       20.230        0.155      334.463        4.452      871.015
03/15/2014  04:25:00      -64.956      -20.582       -2.724       42.139       25.877       16.063     1775.709      669.635      258.014        0.368        0.135       68.139       11.032        0.026      334.537        4.574      871.034
03/15/2014  04:26:00      -76.214      -44.278       -0.312       31.571       25.860       19.660      996.743      668.763      386.520        0.491        0.103       88.143       19.602        0.049      334.422        4.385      871.039
03/15/2014  04:27:00      -42.811      -33.138       12.832       40.299       25.653       22.782     1624.006      658.054      519.026        0.295        0.140       54.138       19.577        0.131      334.438        4.411      871.035
03/15/2014  04:28:00      -78.639      -33.927        4.482       29.033       24.009       15.841      842.909      576.439      250.942        0.451        0.084       85.646       15.931        0.035      334.374        4.306      871.044
03/15/2014  04:29:00      -71.904      -29.866       -3.135       19.968       13.589        8.726      398.711      184.654       76.137        0.337        0.033       77.860        8.212        0.011      334.375        4.305      871.069
03/15/2014  04:30:00      -73.565      -13.484       -8.205       22.372       16.203       11.962      500.486      262.530      143.092        0.328        0.045       74.791       11.143        0.022      334.375        4.305      871.086
03/15/2014  04:31:00      -63.279      -40.005        3.268       26.597       26.876       14.164      707.394      722.321      200.621        0.362        0.082       74.865       10.951        0.021      334.261        4.118      871.091
03/15/2014  04:32:00      -79.134      -36.305      -10.477       15.887       13.610        9.109      252.393      185.220       82.981        0.411        0.026       87.065        8.290        0.009      334.332        4.236      871.102
03/15/2014  04:33:00      -86.397      -28.488      -10.357       12.537       11.106        8.436      157.172      123.334       71.161        0.437        0.018       90.972        7.877        0.007      334.291        4.168      871.119
03/15/2014  04:34:00     -112.965      -30.311       -9.204       17.875       17.986       11.579      319.527      323.514      134.071        0.727        0.039      116.961        8.127        0.005      334.313        4.204      871.141
03/15/2014  04:35:00      -89.695      -44.041        0.906       37.432       26.939       16.928     1401.137      725.684      286.547        0.620        0.121       99.924       18.158        0.033      334.236        4.075      871.154
03/15/2014  04:36:00      -60.095      -31.829        5.360       38.712       24.485       17.032     1498.618      599.496      290.100        0.352        0.119       68.004       21.692        0.102      334.247        4.095      871.168
03/15/2014  04:37:00      -37.801      -30.504        3.697       27.874       14.779       14.484      776.968      218.427      209.791        0.179        0.060       48.574       17.524        0.130      334.320        4.215      871.183
03/15/2014  04:38:00      -84.307      -42.811       -6.681       15.374       16.701        9.843      236.355      278.927       96.879        0.480        0.031       94.554        5.351        0.003      334.321        4.218      871.197
03/15/2014  04:39:00      -98.714      -39.681       -8.527       18.852       14.104        9.284      355.384      198.928       86.197        0.602        0.032      106.391        6.329        0.004      334.230        4.066      871.207
03/15/2014  04:40:00      -75.912      -32.384       -0.842       33.416       21.811       16.656     1116.647      475.706      277.433        0.434        0.093       82.531       17.118        0.043      334.316        4.208      871.222
03/15/2014  04:41:00      -56.397      -32.689        6.594       25.538       19.032       14.249      652.200      362.216      203.034        0.275        0.061       65.186       13.633        0.044      334.377        4.310      871.232
03/15/2014  04:42:00      -29.216      -14.934        9.422       32.407       12.815       15.486     1050.241      164.236      239.821        0.131        0.073       32.811       17.654        0.289      334.328        4.229      871.236
03/15/2014  04:43:00      -12.770      -16.139        3.983       18.918       15.918       13.550      357.891      253.393      183.611        0.062        0.040       20.581       10.790        0.275      334.290        4.166      871.240
03/15/2014  04:44:00      -73.100      -35.124      -11.167       12.348       11.365       12.650      152.481      129.167      160.026        0.357        0.022       81.101        7.753        0.009      334.248        4.095      871.250
03/15/2014  04:45:00      -76.511      -37.407      -10.955       17.273       11.629       12.252      298.350      135.245      150.116        0.398        0.029       85.166        6.265        0.005      334.182        3.986      871.262
03/15/2014  04:46:00     -105.161      -33.572      -14.191       16.302       15.127       11.940      265.766      228.837      142.553        0.651        0.032      110.389        7.310        0.004      334.113        3.872      871.270
03/15/2014  04:47:00      -87.852      -21.818       -4.467       22.159       18.038       14.892      491.000      325.377      221.759        0.463        0.052       90.521       14.060        0.024      334.076        3.811      871.275
03/15/2014  04:48:00      -54.131      -43.250       -4.974       23.558       15.824       10.114      554.984      250.413      102.284        0.287        0.045       69.287       11.848        0.029      334.235        4.074      871.276
03/15/2014  04:49:00      -42.461      -28.103        1.773       25.310       17.807       11.337      640.620      317.100      128.520        0.184        0.054       50.919       11.480        0.051      334.236        4.077      871.278
03/15/2014  04:50:00      -71.218      -42.042       -3.613       16.410       12.174       10.001      269.277      148.212      100.024        0.368        0.026       82.701        8.377        0.010      334.315        4.207      871.284
03/15/2014  04:51:00     -103.546      -47.815      -13.712       11.315        9.249        7.865      128.023       85.540       61.864        0.674        0.014      114.053        6.839        0.004      334.197        4.009      871.288
03/15/2014  04:52:00     -111.088      -50.594       -7.095       24.265       15.000       14.021      588.795      225.013      196.582        0.798        0.051      122.066       13.343        0.012      334.122        3.887      871.297
03/15/2014  04:53:00     -112.453      -66.244       -1.831       33.430       29.035       20.967     1117.584      843.006      439.604        0.972        0.120      130.514       15.101        0.013      334.073        3.807      871.306
03/15/2014  04:54:00     -143.013      -71.286       -4.344       32.847       29.585       18.364     1078.928      875.252      337.240        1.392        0.115      159.795       12.733        0.006      334.014        3.706      871.309
03/15/2014  04:55:00     -143.473      -59.846       -3.359       44.688       29.375       24.270     1997.038      862.887      589.042        1.381        0.172      155.455       19.063        0.015      334.088        3.830      871.319
03/15/2014  04:56:00     -133.136      -70.759       -3.035       37.366       24.652       19.641     1396.238      607.739      385.767        1.256        0.119      150.771       21.150        0.020      334.147        3.926      871.333
03/15/2014  04:57:00      -54.219      -66.116       10.319       41.278       39.171       25.780     1703.903     1534.376      664.601        0.566        0.195       85.504       24.665        0.083      334.228        4.063      871.335
03/15/2014  04:58:00      -88.543      -83.413       -0.034       53.041       41.344       24.381     2813.369     1709.313      594.432        0.996        0.256      121.645       23.016        0.036      334.277        4.143      871.332
03/15/2014  04:59:00      -73.835      -63.724        7.670       43.661       38.333       29.760     1906.256     1469.437      885.663        0.692        0.213       97.532       26.053        0.071      334.076        3.811      871.333
03/15/2014  05:00:00      -69.122      -61.023       -1.826       37.726       34.427       18.990     1423.227     1185.251      360.626        0.574        0.148       92.205       16.020        0.030      334.122        3.886      871.348
03/15/2014  05:01:00      -75.256      -46.611        4.248       41.359       26.429       20.543     1710.552      698.468      422.016        0.534        0.142       88.521       19.009        0.046      334.128        3.896      871.359
03/15/2014  05:02:00      -84.677      -94.932       -7.016       41.730       46.840       23.587     1741.359     2193.985      556.351        1.036        0.225      127.210       20.466        0.026      334.185        3.991      871.361
03/15/2014  05:03:00      -85.299      -65.738        1.531       47.468       28.285       24.169     2253.221      800.019      584.139        0.762        0.182      107.692       25.016        0.054      334.191        4.002      871.359
03/15/2014  05:04:00      -30.818      -38.586        8.504       46.155       29.312       27.356     2130.248      859.220      748.375        0.312        0.187       49.382       27.970        0.321      334.201        4.016      871.369
03/15/2014  05:05:00      -66.289      -60.826       -0.316       56.484       36.101       21.306     3190.438     1303.305      453.959        0.652        0.247       89.967       27.810        0.096      334.180        3.984      871.375
03/15/2014  05:06:00      -76.422      -56.757        4.032       31.538       30.425       18.176      994.634      925.684      330.384        0.566        0.113       95.193       15.466        0.026      334.193        4.005      871.384
03/15/2014  05:07:00     -109.838      -29.331       -7.349       21.132       28.147       15.646      446.580      792.281      244.803        0.723        0.074      113.687       10.679        0.009      333.985        3.660      871.387
03/15/2014  05:08:00     -108.570      -49.614        0.748       35.010       28.617       15.574     1225.728      818.904      242.540        0.827        0.114      119.369       18.602        0.024      334.038        3.747      871.408
03/15/2014  05:09:00      -55.351      -42.793       11.547       44.421       31.910       23.390     1973.185     1018.231      547.110        0.428        0.177       69.964       26.971        0.149      334.057        3.778      871.412
03/15/2014  05:10:00      -16.433      -35.444       12.567       33.822       24.615       22.606     1143.931      605.915      511.026        0.197        0.113       39.069       17.706        0.205      334.090        3.835      871.418
03/15/2014  05:11:00      -18.650      -31.839       14.932       35.437       24.875       19.091     1255.783      618.746      364.475        0.191        0.112       36.899       17.441        0.223      334.139        3.914      871.425
03/15/2014  05:12:00      -61.206      -51.276        7.998       54.894       31.468       25.465     3013.303      990.244      648.469        0.554        0.233       79.846       28.400        0.127      334.116        3.876      871.429
03/15/2014  05:13:00      -94.450      -62.861        4.971       52.987       32.638       24.998     2807.651     1065.254      624.912        0.870        0.225      113.456       16.253        0.021      334.099        3.848      871.435
03/15/2014  05:14:00     -111.813      -52.582        2.843       37.128       22.685       18.077     1378.484      514.612      326.780        0.875        0.111      123.560       15.014        0.015      334.013        3.705      871.445
03/15/2014  05:15:00      -99.034      -23.622       -0.982       26.384       27.128       21.343      696.125      735.910      455.510        0.613        0.094      101.813       17.927        0.031      333.890        3.503      871.444
03/15/2014  05:16:00     -105.122      -25.811       -3.520       30.604       21.955       18.933      936.629      482.028      358.447        0.675        0.089      108.244       17.951        0.028      333.860        3.453      871.455
03/15/2014  05:17:00     -105.345      -28.006       -5.086       26.627       23.070       11.673      709.014      532.209      136.261        0.664        0.069      109.004       10.594        0.009      333.968        3.633      871.458
03/15/2014  05:18:00     -101.416      -25.532       -6.649       32.083       19.651       16.552     1029.303      386.167      273.985        0.634        0.084      104.580       14.427        0.019      334.001        3.686      871.460
03/15/2014  05:19:00      -92.185      -47.864       -6.491       20.619       14.933       11.117      425.162      223.008      123.583        0.580        0.039      103.870        3.392        0.001      334.068        3.796      871.467
03/15/2014  05:20:00      -68.063      -61.462        0.434       25.669       15.783       19.639      658.902      249.102      385.681        0.485        0.065       91.707       13.697        0.022      334.091        3.836      871.487
03/15/2014  05:21:00      -88.490      -44.865       -6.505       23.602       14.726       15.985      557.067      216.848      255.532        0.546        0.051       99.214       15.335        0.024      334.075        3.810      871.511
03/15/2014  05:22:00      -80.239      -38.128       -8.715       14.609       23.260       14.368      213.434      541.025      206.432        0.446        0.048       88.837       11.350        0.016      334.137        3.911      871.531
03/15/2014  05:23:00      -76.605      -36.159        5.115       32.564       17.940       18.470     1060.439      321.851      341.158        0.446        0.086       84.710       17.640        0.043      334.083        3.822      871.548
03/15/2014  05:24:00     -108.942      -22.237       -6.491       25.122       21.663       17.374      631.136      469.300      301.862        0.690        0.070      111.189       13.472        0.015      333.840        3.418      871.574
03/15/2014  05:25:00     -103.527       -9.343       -2.951       30.224       23.282       20.620      913.470      542.043      425.168        0.635        0.094      103.947       17.239        0.028      333.807        3.364      871.591
03/15/2014  05:26:00     -100.727      -16.409        3.683       41.569       25.314       24.657     1727.994      640.807      607.975        0.670        0.149      102.054       24.679        0.058      333.919        3.551      871.593
03/15/2014  05:27:00      -77.875      -19.636       -0.877       22.548       15.199       12.347      508.425      231.007      152.459        0.367        0.045       80.313       10.995        0.019      334.110        3.866      871.592
03/15/2014  05:28:00      -94.453       -5.002       -8.304       24.461       19.330       17.478      598.344      373.666      305.465        0.515        0.064       94.586       14.831        0.025      334.142        3.920      871.595
03/15/2014  05:29:00      -81.387      -29.357       -5.820       21.986       23.709       11.451      483.392      562.130      131.129        0.435        0.059       86.520        8.431        0.009      334.211        4.034      871.595
03/15/2014  05:30:00      -76.827      -39.498        2.247       27.968       21.436       14.106      782.227      459.491      198.980        0.445        0.072       86.385       15.047        0.030      334.213        4.038      871.589
03/15/2014  05:31:00      -71.143      -42.848        3.738       29.846       18.176       16.674      890.810      330.358      278.009        0.420        0.075       83.050       13.416        0.026      334.254        4.106      871.585
03/15/2014  05:32:00      -68.192      -48.796       -4.127       34.593       25.282       17.855     1196.670      639.170      318.792        0.460        0.108       83.852       17.515        0.044      333.943        3.591      871.588
03/15/2014  05:33:00     -114.644      -43.362       -2.263       31.569       18.992       16.041      996.592      360.687      257.324        0.832        0.081      122.571       16.721        0.019      333.791        3.337      871.604
03/15/2014  05:34:00      -99.138      -22.117       -0.912       20.975       21.878       14.219      439.959      478.649      202.187        0.572        0.056      101.575       13.005        0.016      333.823        3.390      871.613
03/15/2014  05:35:00      -78.178      -34.792        2.114       36.081       26.759       14.734     1301.869      716.048      217.103        0.478        0.112       85.570       13.202        0.024      333.891        3.503      871.625
03/15/2014  05:36:00      -86.588      -25.008       -3.313       32.104       15.889       13.650     1030.635      252.458      186.313        0.480        0.073       90.127        6.767        0.006      333.944        3.591      871.636
03/15/2014  05:37:00      -90.853      -21.590       -9.102       23.781       22.517       15.390      565.538      507.032      236.849        0.506        0.065       93.383        7.815        0.007      333.903        3.525      871.639
03/15/2014  05:38:00     -102.471      -40.872       -7.155       23.308       16.793       13.244      543.276      282.010      175.405        0.661        0.050      110.322       10.974        0.010      333.887        3.496      871.638
03/15/2014  05:39:00      -60.982      -44.620       -8.716       46.901       19.007       15.574     2199.704      361.253      242.549        0.429        0.140       75.563       19.432        0.066      333.848        3.432      871.636
03/15/2014  05:40:00      -45.335       -8.817        6.208       37.513       27.570       18.652     1407.189      760.094      347.896        0.234        0.126       46.184       20.002        0.188      333.756        3.279      871.646
03/15/2014  05:41:00      -20.433       -6.965        8.631       23.572       31.750       18.168      555.648     1008.063      330.064        0.122        0.095       21.587       12.677        0.345      333.756        3.279      871.640
03/15/2014  05:42:00      -63.908      -24.578       -4.258       43.039       30.367       18.723     1852.316      922.134      350.547        0.392        0.156       68.471       14.019        0.042      333.697        3.181      871.631
03/15/2014  05:43:00      -41.612      -27.586        2.084       53.076       33.009       23.409     2817.095     1089.626      547.974        0.347        0.223       49.925       22.575        0.204      333.772        3.306      871.634
03/15/2014  05:44:00      -78.974      -40.601      -11.804       49.416       22.800       19.680     2441.893      519.849      387.320        0.569        0.167       88.799       17.684        0.040      333.737        3.249      871.642
03/15/2014  05:45:00      -90.265      -43.433       -7.329       26.456       26.241       20.162      699.918      688.616      406.497        0.594        0.090      100.171       11.877        0.014      333.660        3.120      871.662
03/15/2014  05:46:00      -71.718      -25.089       -3.775       20.993       20.480       10.328      440.725      419.423      106.670        0.338        0.048       75.980        5.109        0.005      333.668        3.133      871.675
03/15/2014  05:47:00      -48.379       -5.486       -0.232       31.358       15.109       14.135      983.335      228.275      199.809        0.189        0.071       48.689       16.866        0.120      333.621        3.057      871.695
03/15/2014  05:48:00      -65.315      -37.441       -1.189       24.284       17.870       13.989      589.720      319.351      195.684        0.339        0.055       75.285       12.898        0.029      333.824        3.393      871.706
03/15/2014  05:49:00      -42.205      -24.236       -0.540       22.386       15.878        9.647      501.138      252.122       93.073        0.161        0.042       48.669        9.805        0.041      333.912        3.538      871.709
03/15/2014  05:50:00      -54.549      -24.779       -4.512       16.380       18.592        9.109      268.313      345.662       82.980        0.215        0.035       59.913        4.302        0.005      334.008        3.699      871.713
03/15/2014  05:51:00      -59.507      -15.978       -2.913       14.813       12.522        8.026      219.420      156.789       64.411        0.212        0.022       61.614        7.953        0.017      333.925        3.561      871.709
03/15/2014  05:52:00      -53.501      -25.051        3.168       14.442       10.301        9.312      208.574      106.104       86.705        0.195        0.020       59.076        7.608        0.017      333.938        3.583      871.705
03/15/2014  05:53:00      -34.964      -25.440        1.046       17.854       14.186       10.227      318.757      201.251      104.585        0.125        0.031       43.240        9.214        0.045      333.928        3.566      871.707
03/15/2014  05:54:00      -63.423      -36.879       -6.863       16.942       12.585        9.871      287.016      158.393       97.437        0.299        0.027       73.366        6.326        0.007      333.886        3.495      871.715
03/15/2014  05:55:00      -72.261      -44.751       -2.707       27.781       15.070       15.008      771.808      227.118      225.255        0.423        0.061       84.996       14.606        0.030      333.757        3.283      871.719
03/15/2014  05:56:00      -88.537      -44.141        0.452       35.837       21.313       19.292     1284.312      454.263      372.184        0.595        0.106       98.930       15.184        0.024      333.712        3.206      871.731
03/15/2014  05:57:00      -85.162      -46.761        6.677       36.549       25.328       19.127     1335.822      641.528      365.846        0.591        0.117       97.156       18.488        0.036      333.732        3.239      871.734
03/15/2014  05:58:00      -63.538      -42.088        3.311       48.573       27.536       19.565     2359.355      758.251      382.785        0.466        0.175       76.214       22.189        0.085      333.806        3.362      871.733
03/15/2014  05:59:00      -91.582      -37.430        6.558       30.720       21.749       20.076      943.695      472.998      403.048        0.583        0.091       98.936       16.751        0.029      333.691        3.171      871.727
03/15/2014  06:00:00      -70.592      -41.629        6.058       34.949       25.987       19.799     1221.406      675.300      391.984        0.452        0.114       81.952       18.579        0.051      333.718        3.217      871.720
03/15/2014  06:01:00      -39.470      -26.485        6.472       36.888       21.595       21.105     1360.693      466.336      445.438        0.229        0.114       47.533       21.400        0.203      333.665        3.128      871.732
03/15/2014  06:02:00     -124.474      -78.235       -0.626       55.282       52.248       36.534     3056.051     2729.892     1334.768        1.437        0.356      147.018       33.651        0.052      333.758        3.282      871.733
03/15/2014  06:03:00     -128.518     -109.295       -6.964       46.817       43.955       28.768     2191.868     1932.008      827.605        1.673        0.248      168.708       22.429        0.018      333.834        3.406      871.743
03/15/2014  06:04:00     -143.007     -121.265       -7.395       45.060       40.895       26.646     2030.437     1672.378      710.009        1.981        0.221      187.500       27.976        0.022      333.756        3.278      871.746
03/15/2014  06:05:00     -141.030     -113.237       -1.874       48.325       49.306       27.315     2335.304     2431.089      746.114        1.911        0.276      180.865       23.149        0.016      333.711        3.204      871.756
03/15/2014  06:06:00      -85.866      -52.156        3.561       54.167       35.171       27.626     2934.101     1237.020      763.215        0.752        0.247      100.465       24.811        0.061      333.715        3.211      871.756
03/15/2014  06:07:00      -86.697      -67.532        7.337       56.041       33.471       25.606     3140.633     1120.288      655.656        0.852        0.246      109.895       29.968        0.074      333.671        3.137      871.750
03/15/2014  06:08:00      -73.240      -60.764       -0.421       53.006       40.701       23.114     2809.657     1656.554      534.270        0.703        0.250       95.164       21.784        0.052      333.654        3.109      871.766
03/15/2014  06:09:00      -58.894      -51.218       -0.854       40.063       34.769       24.843     1605.030     1208.894      617.177        0.476        0.172       78.050       22.901        0.086      333.708        3.201      871.772
03/15/2014  06:10:00      -44.026      -55.378        9.203       41.863       39.157       27.017     1752.549     1533.246      729.924        0.455        0.201       70.746       26.994        0.146      333.680        3.154      871.780
03/15/2014  06:11:00      -65.093      -91.190       -4.510       30.973       30.235       22.386      959.324      914.179      501.137        0.747        0.119      112.039       15.926        0.020      333.701        3.188      871.779
03/15/2014  06:12:00      -74.483      -85.931        3.600       32.069       40.758       21.728     1028.398     1661.212      472.123        0.805        0.158      113.719       19.109        0.028      333.739        3.252      871.783
03/15/2014  06:13:00      -32.648      -40.788       11.181       45.498       26.212       22.723     2070.075      687.076      516.348        0.306        0.164       52.245       22.878        0.192      333.714        3.211      871.791
03/15/2014  06:14:00      -63.945      -59.110        2.695       38.196       46.988       21.131     1458.939     2207.904      446.539        0.585        0.206       87.080       26.294        0.091      333.655        3.112      871.789
03/15/2014  06:15:00      -83.604      -92.505       -0.553       39.067       45.281       23.542     1526.218     2050.387      554.246        0.984        0.207      124.687       20.567        0.027      333.699        3.186      871.788
03/15/2014  06:16:00      -80.634      -78.080      -14.414       38.480       38.597       29.342     1480.685     1489.751      860.927        0.832        0.192      112.242       18.007        0.026      333.643        3.091      871.793
03/15/2014  06:17:00      -90.762      -81.493       -8.037       52.391       30.163       22.776     2744.780      909.812      518.724        0.956        0.209      121.979       11.269        0.009      333.627        3.065      871.780
03/15/2014  06:18:00     -120.863      -95.065       -6.133       47.154       40.747       28.155     2223.484     1660.337      792.699        1.418        0.234      153.770       20.960        0.019      333.529        2.903      871.769
03/15/2014  06:19:00     -124.657      -99.302       -4.318       57.375       33.717       25.680     3291.868     1136.862      659.480        1.525        0.254      159.374       25.315        0.025      333.503        2.861      871.768
03/15/2014  06:20:00     -145.799     -121.259       -9.797       37.657       36.071       24.396     1418.063     1301.105      595.153        1.969        0.166      189.634       12.265        0.004      333.538        2.916      871.755
03/15/2014  06:21:00     -123.885      -83.310       -3.269       46.567       40.690       23.291     2168.447     1655.652      542.489        1.333        0.218      149.292       19.926        0.018      333.538        2.917      871.755
03/15/2014  06:22:00     -118.829     -114.082       -8.921       48.860       31.302       27.496     2387.337      979.818      756.006        1.567        0.206      164.727       25.590        0.024      333.547        2.933      871.766
03/15/2014  06:23:00     -110.775      -95.935       -4.589       37.078       40.706       31.939     1374.781     1657.000     1020.113        1.277        0.203      146.542       28.513        0.038      333.534        2.910      871.771
03/15/2014  06:24:00     -116.097     -101.070       -7.249       50.418       30.855       29.894     2541.968      952.040      893.622        1.407        0.219      153.927       27.500        0.032      333.499        2.852      871.781
03/15/2014  06:25:00     -129.232     -102.769      -16.415       43.252       44.307       31.978     1870.714     1963.109     1022.603        1.619        0.243      165.113       22.605        0.019      333.493        2.842      871.778
03/15/2014  06:26:00     -117.124      -77.683       -4.101       67.165       40.016       30.913     4511.204     1601.316      955.603        1.342        0.353      140.545       35.305        0.063      333.488        2.835      871.780
03/15/2014  06:27:00     -107.189      -85.565        2.409       69.320       38.202       37.710     4805.279     1459.392     1422.059        1.325        0.384      137.153       32.719        0.057      333.512        2.874      871.797
03/15/2014  06:28:00     -127.136      -69.869        1.634       50.362       43.191       33.936     2536.305     1865.420     1151.630        1.330        0.278      145.070       22.728        0.025      333.455        2.780      871.807
03/15/2014  06:29:00     -122.195      -95.679       -4.599       53.784       48.205       33.160     2892.702     2323.682     1099.586        1.521        0.316      155.197       33.854        0.048      333.476        2.813      871.820
03/15/2014  06:30:00     -148.146     -109.361       -9.050       40.505       39.676       25.178     1640.650     1574.180      633.956        1.892        0.192      184.138       24.880        0.018      333.431        2.740      871.825
03/15/2014  06:31:00     -102.824      -73.640       -1.200       46.586       26.777       22.184     2170.284      717.008      492.147        0.969        0.169      126.474       18.129        0.021      333.502        2.858      871.816
03/15/2014  06:32:00      -81.165      -53.069        6.959       53.292       38.314       21.987     2840.037     1467.981      483.420        0.712        0.240       96.975       20.709        0.046      333.486        2.831      871.825
03/15/2014  06:33:00      -49.814      -39.557        3.343       56.046       34.136       20.097     3141.133     1165.264      403.907        0.438        0.236       63.610       20.361        0.102      333.543        2.927      871.826
03/15/2014  06:34:00      -66.913      -63.502        5.334       41.559       29.170       18.880     1727.159      850.881      356.471        0.574        0.147       92.249       22.388        0.059      333.563        2.960      871.824
03/15/2014  06:35:00      -77.048      -71.437        5.613       39.328       28.461       21.212     1546.688      810.038      449.967        0.694        0.140      105.069       21.316        0.041      333.559        2.952      871.827
03/15/2014  06:36:00      -55.104      -49.648       10.167       30.305       21.487       19.836      918.369      461.690      393.477        0.369        0.089       74.172       16.880        0.052      333.551        2.940      871.823
03/15/2014  06:37:00      -62.163      -45.183        0.982       34.274       21.067       21.316     1174.726      443.815      454.356        0.399        0.104       76.849       23.761        0.096      333.524        2.895      871.800
03/15/2014  06:38:00      -64.572      -30.738        1.690       24.166       18.421       13.972      583.980      339.333      195.226        0.312        0.056       71.515       11.532        0.026      333.405        2.697      871.796
03/15/2014  06:39:00      -67.120      -11.824       -2.418       20.606       17.773       12.320      424.589      315.892      151.780        0.277        0.045       68.154       11.229        0.027      333.285        2.499      871.789
03/15/2014  06:40:00      -77.275      -36.320       -4.659       20.964       20.387       10.258      439.500      415.649      105.231        0.414        0.048       85.385        8.692        0.010      333.362        2.627      871.792
03/15/2014  06:41:00      -91.409        1.469       -1.161       36.071       13.182       12.734     1301.106      173.771      162.160        0.500        0.082       91.421       16.660        0.033      333.247        2.437      871.807
03/15/2014  06:42:00     -104.044        6.005       -9.336       45.780       18.883       16.019     2095.802      356.556      256.615        0.683        0.135      104.217       20.530        0.039      333.158        2.289      871.821
03/15/2014  06:43:00      -98.086       -2.430      -10.119       44.958       32.000       21.608     2021.204     1024.002      466.896        0.662        0.176       98.116       21.732        0.049      333.131        2.244      871.817
03/15/2014  06:44:00      -99.783        4.803       -9.748       33.452       30.577       21.440     1119.047      934.970      459.659        0.629        0.126       99.898       19.249        0.037      333.050        2.112      871.823
03/15/2014  06:45:00     -106.534      -12.804       -5.197       32.889       32.882       21.652     1081.694     1081.224      468.796        0.709        0.132      107.301       16.537        0.024      333.011        2.047      871.825
03/15/2014  06:46:00     -119.974      -60.501       -2.589       33.402       33.905       23.601     1115.700     1149.524      556.992        1.044        0.141      134.366       13.850        0.011      333.042        2.098      871.834
03/15/2014  06:47:00     -109.230      -69.583       -4.958       42.220       28.540       28.250     1782.492      814.527      798.049        1.010        0.170      129.511       27.358        0.045      333.084        2.168      871.850
03/15/2014  06:48:00     -135.217      -35.259       -9.317       25.412       19.675       14.647      645.753      387.122      214.531        1.043        0.062      139.738       14.742        0.011      333.132        2.247      871.876
03/15/2014  06:49:00     -110.544      -54.456       -7.487       19.973       20.280       13.642      398.935      411.291      186.097        0.812        0.050      123.229       10.795        0.008      333.218        2.388      871.881
03/15/2014  06:50:00     -104.180      -56.541       -0.532       17.431       30.657       16.608      303.828      939.842      275.813        0.778        0.076      118.534       10.600        0.008      333.282        2.495      871.883
03/15/2014  06:51:00     -125.070      -66.738       -6.415       18.091       23.599       16.437      327.269      556.902      270.183        1.065        0.058      141.762       11.500        0.007      333.202        2.361      871.901
03/15/2014  06:52:00     -132.914      -70.758      -10.723       22.450       18.734       11.675      503.991      350.974      136.296        1.189        0.050      150.575        8.001        0.003      333.221        2.395      871.913
03/15/2014  06:53:00     -106.861      -49.766       -7.911       35.771       24.866       15.862     1279.588      618.313      251.598        0.805        0.107      117.881       15.220        0.017      333.209        2.373      871.912
03/15/2014  06:54:00     -107.006      -31.644       -1.090       32.973       30.043       21.013     1087.212      902.565      441.552        0.744        0.122      111.587       18.475        0.027      333.182        2.329      871.918
03/15/2014  06:55:00     -106.499      -19.558        2.143       33.674       26.302       19.246     1133.961      691.809      370.408        0.696        0.110      108.280       19.582        0.033      333.163        2.297      871.923
03/15/2014  06:56:00     -126.793       -1.305      -13.982       26.618       22.549       25.319      708.530      508.474      641.045        0.907        0.093      126.799       19.949        0.025      333.104        2.200      871.925
03/15/2014  06:57:00     -100.707        5.727       -1.325       58.518       37.000       27.857     3424.298     1368.974      776.008        0.787        0.278      100.869       29.433        0.085      332.967        1.975      871.923
03/15/2014  06:58:00      -72.373      -15.103        5.097       57.281       34.198       27.904     3281.154     1169.498      778.631        0.536        0.261       73.932       32.867        0.198      332.893        1.854      871.931
03/15/2014  06:59:00      -57.350      -22.910        3.190       37.702       39.184       29.418     1421.468     1535.399      865.404        0.382        0.191       61.757       25.504        0.171      332.928        1.910      871.934
03/15/2014  07:00:00      -41.374      -25.248       12.898       38.592       33.455       22.174     1489.377     1119.254      491.701        0.281        0.155       48.469       21.359        0.194      332.980        1.997      871.941
03/15/2014  07:01:00      -25.311      -20.443       -3.923       48.854       21.290       13.892     2386.683      453.257      192.977        0.205        0.152       32.535       21.005        0.417      333.098        2.190      871.950
03/15/2014  07:02:00       -7.391      -35.555       -1.461       22.581       25.076       15.717      509.923      628.823      247.038        0.135        0.069       36.315       13.543        0.139      333.093        2.183      871.974
03/15/2014  07:03:00      -38.741      -31.067      -10.854       16.856       18.724       13.168      284.113      350.595      173.394        0.170        0.040       49.659        6.470        0.017      333.088        2.175      871.991
03/15/2014  07:04:00      -72.554      -49.755       -6.601       40.470       16.964       14.878     1637.834      287.781      221.364        0.496        0.107       87.975        8.539        0.009      333.082        2.162      872.009
03/15/2014  07:05:00      -95.996      -45.465       -2.984       29.450       17.501       17.621      867.306      306.299      310.512        0.639        0.074      106.218       15.343        0.021      333.072        2.147      872.036
03/15/2014  07:06:00     -111.468      -41.462       -9.678       19.597       20.387       12.479      384.039      415.634      155.718        0.760        0.048      118.930        8.672        0.005      333.097        2.190      872.055
03/15/2014  07:07:00      -89.790      -53.696       -8.930       12.740       12.078        9.655      162.317      145.876       93.218        0.571        0.020      104.621        7.049        0.005      333.138        2.257      872.074
03/15/2014  07:08:00      -88.256      -52.240       -5.760       19.469       15.532       12.039      379.023      241.228      144.931        0.566        0.038      102.558        9.422        0.008      333.255        2.449      872.078
03/15/2014  07:09:00      -97.554      -46.233      -11.238       13.123       10.992        8.789      172.205      120.828       77.240        0.608        0.019      107.955        4.712        0.002      333.217        2.386      872.073
03/15/2014  07:10:00      -94.593      -50.104       -9.151       16.370       19.043       13.781      267.970      362.625      189.905        0.618        0.041      107.044        8.819        0.007      333.240        2.424      872.081
03/15/2014  07:11:00      -89.559      -59.471       -4.641       19.411       15.730       12.724      376.803      247.427      161.888        0.618        0.039      107.506        4.849        0.002      333.213        2.380      872.091
03/15/2014  07:12:00      -84.677      -43.204       -3.603       24.431       16.949       16.527      596.864      287.266      273.157        0.510        0.058       95.062       11.956        0.016      333.142        2.264      872.103
03/15/2014  07:13:00      -81.474      -41.293        0.693       43.621       18.358       21.042     1902.763      337.025      442.754        0.551        0.134       91.340       24.904        0.074      333.152        2.278      872.119
03/15/2014  07:14:00      -65.604      -38.990        8.382       51.344       32.592       21.226     2636.243     1062.235      450.536        0.502        0.207       76.316       22.665        0.088      333.077        2.157      872.138
03/15/2014  07:15:00      -80.022      -46.845        7.916       46.930       29.750       23.153     2202.465      885.048      536.083        0.614        0.181       92.726       14.954        0.026      332.990        2.012      872.143
03/15/2014  07:16:00      -90.082      -51.475        2.974       39.810       29.702       23.243     1584.871      882.209      540.246        0.689        0.150      103.752       19.081        0.034      332.937        1.925      872.149
03/15/2014  07:17:00      -53.515      -41.749       14.797       50.709       23.457       20.897     2571.419      550.228      436.700        0.419        0.178       67.874       21.351        0.099      333.025        2.070      872.154
03/15/2014  07:18:00      -68.655      -53.026        6.245       47.410       32.034       15.864     2247.664     1026.198      251.677        0.554        0.176       86.748       18.581        0.046      333.093        2.183      872.155
03/15/2014  07:19:00      -62.346      -39.474       -1.051       48.848       20.222       17.705     2386.165      408.914      313.461        0.428        0.155       73.792       11.521        0.024      333.003        2.034      872.161
03/15/2014  07:20:00      -82.298      -56.876        6.161       42.190       26.062       19.470     1779.955      679.248      379.099        0.644        0.142      100.039       19.009        0.036      333.109        2.209      872.182
03/15/2014  07:21:00      -43.716      -36.180        6.193       48.668       34.281       24.431     2368.617     1175.163      596.897        0.370        0.207       56.746       25.397        0.200      333.176        2.319      872.206
03/15/2014  07:22:00      -52.336      -45.776       12.903       47.947       24.372       21.006     2298.938      594.016      441.232        0.417        0.167       69.530       28.293        0.166      333.173        2.314      872.230
03/15/2014  07:23:00     -128.052      -91.121       -8.949       30.473       27.488       24.471      928.585      755.593      598.842        1.353        0.114      157.164        4.769        0.001      333.232        2.411      872.245
03/15/2014  07:24:00     -117.541     -105.841      -15.174       43.070       27.660       20.160     1855.051      765.063      406.446        1.414        0.151      158.172       18.183        0.013      333.271        2.476      872.266
03/15/2014  07:25:00      -85.593      -76.923       -0.913       33.748       24.343       21.091     1138.914      592.559      444.813        0.771        0.109      115.080       19.828        0.030      333.259        2.457      872.276
03/15/2014  07:26:00      -49.942      -52.675        3.504       41.040       26.283       17.233     1684.275      690.781      296.986        0.398        0.134       72.587       15.806        0.047      333.347        2.603      872.301
03/15/2014  07:27:00      -43.309      -46.199        2.818       26.050       28.566       15.287      678.622      816.044      233.678        0.287        0.086       63.325       14.258        0.051      333.326        2.568      872.318
03/15/2014  07:28:00      -64.324      -59.937      -13.604       27.150       17.154       14.161      737.118      294.257      200.526        0.457        0.062       87.920        7.982        0.008      333.348        2.604      872.325
03/15/2014  07:29:00      -26.752      -22.991       12.245       30.634       21.631       12.078      938.426      467.893      145.885        0.147        0.078       35.274       12.714        0.130      333.330        2.573      872.330
03/15/2014  07:30:00      -37.920      -40.263       -0.671       35.796       22.509       20.560     1281.354      506.642      422.705        0.263        0.111       55.309       15.039        0.074      333.369        2.638      872.330
03/15/2014  07:31:00      -52.813      -64.612        7.189       39.522       39.031       21.814     1561.951     1523.437      475.837        0.529        0.178       83.450       19.997        0.057      333.279        2.489      872.326
03/15/2014  07:32:00      -77.615     -109.210       -1.622       35.395       30.967       19.550     1252.823      958.977      382.213        1.027        0.130      133.981       19.756        0.022      333.276        2.485      872.325
03/15/2014  07:33:00     -110.833     -103.763      -10.231       35.826       42.936       24.695     1283.499     1843.519      609.839        1.345        0.187      151.824       17.023        0.013      333.220        2.391      872.331
03/15/2014  07:34:00     -110.569      -98.259       -7.970       43.055       37.597       23.482     1853.726     1413.550      551.413        1.288        0.191      147.920       16.268        0.012      333.200        2.357      872.340
03/15/2014  07:35:00     -100.093      -84.961      -13.390       35.436       33.051       25.241     1255.716     1092.349      637.087        1.020        0.149      131.289       17.089        0.017      333.256        2.450      872.349
03/15/2014  07:36:00      -73.076      -84.322       -0.520       45.189       32.512       23.939     2042.005     1057.029      573.060        0.806        0.184      111.581       25.242        0.051      333.267        2.469      872.363
03/15/2014  07:37:00      -67.158      -73.804        3.786       40.061       39.438       29.400     1604.920     1555.332      864.363        0.700        0.201       99.786       27.965        0.079      333.263        2.463      872.378
03/15/2014  07:38:00      -64.320      -72.170        1.063       40.244       32.878       25.424     1619.594     1080.961      646.396        0.635        0.167       96.673       27.891        0.083      333.284        2.497      872.389
03/15/2014  07:39:00      -58.436      -59.462        4.203       44.008       33.004       20.421     1936.679     1089.238      417.012        0.520        0.172       83.370       22.400        0.072      333.322        2.561      872.389
03/15/2014  07:40:00     -105.398      -42.198       -2.354       16.106       15.927       12.599      259.391      253.677      158.733        0.678        0.034      113.531        4.840        0.002      333.321        2.559      872.388
03/15/2014  07:41:00      -31.743      -44.218        8.154       28.849       18.652       14.928      832.287      347.895      222.846        0.222        0.070       54.432       10.309        0.036      333.335        2.582      872.385
03/15/2014  07:42:00      -56.868      -55.728        0.448       24.975       20.044       14.629      623.727      401.775      214.006        0.379        0.062       79.621        9.728        0.015      333.413        2.713      872.368
03/15/2014  07:43:00      -46.050      -48.063        4.350       33.863       25.233       12.974     1146.678      636.693      168.324        0.320        0.098       66.563       14.096        0.045      333.464        2.795      872.372
03/15/2014  07:44:00      -68.028      -67.425       -7.183       21.380       23.277       17.547      457.122      541.807      307.907        0.527        0.065       95.781       12.916        0.018      333.385        2.665      872.374
03/15/2014  07:45:00      -43.591      -58.288       -2.179       27.424       21.611       20.330      752.082      467.027      413.290        0.347        0.082       72.785       19.029        0.068      333.450        2.772      872.371
03/15/2014  07:46:00      -35.988      -33.674        0.525       24.640       21.394       12.848      607.121      457.721      165.070        0.183        0.061       49.286       13.678        0.077      333.491        2.840      872.387
03/15/2014  07:47:00      -33.543      -35.396        5.341       25.924       24.583       13.384      672.055      604.320      179.126        0.193        0.073       48.764       12.900        0.070      333.505        2.863      872.398
03/15/2014  07:48:00      -39.800      -62.824       -2.060       30.981       29.837       20.020      959.813      890.224      400.817        0.389        0.113       74.370       15.136        0.041      333.468        2.802      872.405
03/15/2014  07:49:00      -48.506      -53.452        0.827       27.178       24.924       17.089      738.666      621.197      292.046        0.343        0.083       72.179       13.538        0.035      333.429        2.738      872.419
03/15/2014  07:50:00      -38.921      -61.597       -1.793       27.008       20.398       15.655      729.445      416.077      245.066        0.335        0.070       72.863       14.967        0.042      333.400        2.689      872.423
03/15/2014  07:51:00      -53.106      -73.400      -11.584       23.035       35.387       15.401      530.613     1252.270      237.197        0.518        0.101       90.597        7.216        0.006      333.404        2.697      872.420
03/15/2014  07:52:00      -49.162      -40.190       -4.164       21.178       26.813       13.989      448.519      718.912      195.701        0.271        0.068       63.499       12.388        0.038      333.475        2.813      872.417
03/15/2014  07:53:00      -44.187      -23.124       -3.621       19.314       13.458       10.415      373.025      181.109      108.467        0.158        0.033       49.872        8.072        0.026      333.501        2.856      872.423
03/15/2014  07:54:00      -52.008      -24.979       -1.732       19.337       18.941       10.360      373.937      358.773      107.339        0.209        0.042       57.695        7.513        0.017      333.506        2.864      872.430
03/15/2014  07:55:00      -57.528      -46.303      -13.320       16.385       20.595       11.344      268.452      424.134      128.678        0.323        0.041       73.848       11.020        0.022      333.494        2.845      872.445
03/15/2014  07:56:00      -27.557      -40.983       -3.107       25.856       26.272       13.873      668.535      690.204      192.466        0.200        0.078       49.387        9.787        0.039      333.559        2.952      872.451
03/15/2014  07:57:00      -54.630      -51.231      -10.064       27.313       21.824       15.130      746.025      476.295      228.932        0.358        0.073       74.893       13.805        0.034      333.560        2.954      872.456
03/15/2014  07:58:00      -55.874      -39.494       -3.439       31.638       19.608       18.185     1000.969      384.484      330.677        0.320        0.086       68.423        6.886        0.010      333.600        3.021      872.462
03/15/2014  07:59:00      -61.285      -49.375       -5.978       33.409       19.932       18.835     1116.172      397.290      354.764        0.405        0.093       78.700       18.458        0.055      333.595        3.012      872.467
03/15/2014  08:00:00      -60.152      -32.071       -0.050       28.710       22.157       19.595      824.289      490.911      383.971        0.317        0.085       68.167       15.963        0.055      333.585        2.996      872.470
03/15/2014  08:01:00      -36.865      -42.077        1.861       25.129       18.310       14.069      631.451      335.271      197.931        0.215        0.058       55.942        2.354        0.002      333.571        2.973      872.479
03/15/2014  08:02:00      -29.790      -17.320        5.765       22.350       24.094       14.550      499.506      580.501      211.716        0.126        0.065       34.459       12.926        0.141      333.683        3.159      872.487
03/15/2014  08:03:00      -19.739      -29.282       10.587       28.399       23.330       17.239      806.479      544.295      297.176        0.150        0.082       35.314       16.187        0.210      333.717        3.215      872.504
03/15/2014  08:04:00      -59.282      -33.574        3.826       28.717       21.011       13.352      824.686      441.479      178.264        0.305        0.072       68.129       11.320        0.028      333.661        3.123      872.506
03/15/2014  08:05:00      -14.602      -32.091       -2.763       30.630       24.113       16.952      938.212      581.450      287.385        0.153        0.090       35.257       14.748        0.175      333.781        3.322      872.520
03/15/2014  08:06:00      -36.773      -22.783        1.237       29.645       29.398       17.041      878.813      864.267      290.390        0.195        0.102       43.259       16.776        0.150      333.817        3.381      872.540
03/15/2014  08:07:00      -51.731      -30.484        1.949       23.728       28.140       17.832      563.031      791.842      317.972        0.264        0.084       60.045       13.350        0.049      333.724        3.227      872.545
03/15/2014  08:08:00      -17.528      -17.069        2.185       27.448       21.865       14.527      753.367      478.063      211.034        0.102        0.072       24.466        9.120        0.139      333.858        3.449      872.553
03/15/2014  08:09:00      -17.919      -12.968        1.585       23.685       21.603       18.240      560.974      466.695      332.694        0.093        0.068       22.120       16.324        0.545      333.991        3.669      872.557
03/15/2014  08:10:00      -50.908      -30.495        0.831       26.051       22.796       16.003      678.670      519.654      256.089        0.249        0.073       59.343       12.190        0.042      333.794        3.342      872.547
03/15/2014  08:11:00      -52.197      -24.080        4.047       33.386       26.216       15.143     1114.601      687.277      229.309        0.268        0.102       57.484       11.773        0.042      333.858        3.448      872.539
03/15/2014  08:12:00       -5.853        0.644       12.897       34.341       21.994       17.719     1179.290      483.727      313.979        0.109        0.099        5.888        9.994        2.881      334.113        3.873      872.540
03/15/2014  08:13:00      -36.627      -25.159       -3.103       42.693       24.492       20.252     1822.731      599.863      410.155        0.241        0.142       44.435        8.204        0.034      333.953        3.607      872.537
03/15/2014  08:14:00      -58.102      -35.497        0.263       42.949       31.444       17.413     1844.575      988.725      303.215        0.389        0.157       68.087       13.931        0.042      333.932        3.572      872.542
03/15/2014  08:15:00      -38.773      -48.006        2.678       34.583       32.322       17.716     1196.018     1044.700      313.864        0.318        0.128       61.708       14.435        0.055      333.980        3.653      872.536
03/15/2014  08:16:00      -77.231      -57.297       -1.322       43.527       23.938       16.227     1894.607      573.019      263.313        0.599        0.137       96.164       17.893        0.035      333.873        3.473      872.530
03/15/2014  08:17:00      -57.116      -34.567       -3.649       20.376       14.882       11.826      415.195      221.474      139.864        0.262        0.039       66.762        8.184        0.015      333.881        3.487      872.535
03/15/2014  08:18:00      -71.006      -22.653       -6.459       10.102       16.245        9.262      102.056      263.894       85.793        0.302        0.023       74.532        8.776        0.014      333.927        3.565      872.527
03/15/2014  08:19:00      -49.877      -17.539       -6.756       23.380       17.255       11.727      546.610      297.742      137.530        0.191        0.049       52.871        6.950        0.017      334.021        3.719      872.529
03/15/2014  08:20:00      -23.875      -14.954        1.520       25.828       16.780       12.216      667.090      281.576      149.242        0.095        0.055       28.172       14.438        0.263      334.231        4.068      872.528
03/15/2014  08:21:00      -29.194      -18.785        4.863       25.715       17.836       20.362      661.246      318.117      414.627        0.131        0.070       34.716        8.748        0.063      334.143        3.922      872.532
03/15/2014  08:22:00      -25.667      -77.344       -3.607       22.826       22.711       13.024      521.029      515.778      169.616        0.393        0.060       81.491        8.140        0.010      334.053        3.771      872.538
03/15/2014  08:23:00      -20.394      -47.779       -8.304       20.559       36.510       23.408      422.680     1332.984      547.951        0.254        0.115       51.950       15.841        0.093      334.156        3.943      872.549
03/15/2014  08:24:00      -26.888      -57.160        4.101       22.320       51.734       16.226      498.175     2676.366      263.276        0.372        0.172       63.168       17.773        0.079      334.080        3.816      872.559
03/15/2014  08:25:00      -44.034      -28.696       -0.684       24.194       33.429       20.225      585.359     1117.494      409.064        0.244        0.106       52.559       17.425        0.110      334.131        3.902      872.564
03/15/2014  08:26:00      -38.965      -50.459       -5.338       22.395       20.960       11.827      501.551      439.304      139.874        0.259        0.054       63.752        7.778        0.015      334.057        3.779      872.571
03/15/2014  08:27:00      -33.109      -32.123       -4.184       13.257       20.868       12.285      175.751      435.481      150.923        0.145        0.038       46.131       10.217        0.049      334.071        3.803      872.573
03/15/2014  08:28:00      -37.600      -37.898       -7.763       15.385       18.586       11.452      236.683      345.441      131.159        0.181        0.036       53.386       12.749        0.057      334.092        3.836      872.565
03/15/2014  08:29:00      -43.416      -32.916       -5.764       17.517       15.549       11.953      306.851      241.767      142.878        0.185        0.035       54.483        7.696        0.020      334.139        3.915      872.561
03/15/2014  08:30:00       -9.684      -22.378       -5.807       13.275       10.380       18.152      176.234      107.748      329.504        0.062        0.031       24.383        9.874        0.164      334.229        4.064      872.565
03/15/2014  08:31:00      -13.735        1.756        0.902        7.897        9.591       11.660       62.362       91.981      135.948        0.024        0.015       13.847        6.983        0.254      334.427        4.394      872.570
03/15/2014  08:32:00      -29.120       -9.153       -7.304        7.542        7.537        7.389       56.881       56.814       54.596        0.058        0.008       30.524        5.016        0.027      334.327        4.227      872.567
03/15/2014  08:33:00      -31.669        4.473        0.479       12.592       13.441        8.999      158.561      180.658       80.989        0.072        0.021       31.983        6.970        0.047      334.317        4.211      872.574
03/15/2014  08:34:00      -17.492        4.150       -6.056        9.718        5.988        8.092       94.432       35.850       65.486        0.028        0.010       17.978        5.428        0.091      334.464        4.456      872.572
03/15/2014  08:35:00      -25.958       14.723       -1.014       13.596        9.705       11.477      184.854       94.180      131.729        0.065        0.021       29.843        9.143        0.094      334.491        4.500      872.573
03/15/2014  08:36:00      -46.505       -2.971        0.975       14.793       22.418        9.741      218.838      502.584       94.895        0.149        0.041       46.600        8.256        0.031      334.447        4.427      872.569
03/15/2014  08:37:00      -58.227       -5.422       -9.629        9.387       15.047        8.684       88.119      226.427       75.414        0.195        0.019       58.478        6.560        0.013      334.402        4.351      872.569
03/15/2014  08:38:00      -50.736       13.138      -17.996        5.254       11.768        5.119       27.605      138.497       26.201        0.163        0.010       52.409        3.437        0.004      334.450        4.432      872.567
03/15/2014  08:39:00      -29.415      -17.574       -7.221       14.172       14.083        9.658      200.858      198.325       93.286        0.086        0.025       34.265        5.643        0.027      334.501        4.516      872.571
03/15/2014  08:40:00      -21.528      -17.624        0.235       12.717        9.443       10.630      161.727       89.168      112.989        0.057        0.018       27.822        5.960        0.046      334.547        4.590      872.576
03/15/2014  08:41:00       -2.827      -13.407        2.540        5.505        8.313       11.360       30.303       69.099      129.043        0.021        0.011       13.701        7.184        0.275      334.774        4.969      872.583
03/15/2014  08:42:00       -1.040       -2.801       10.489        8.843        9.501       12.901       78.207       90.265      166.427        0.023        0.017        2.988        9.137        9.350      335.275        5.800      872.581
03/15/2014  08:43:00       12.384       55.306       -1.454       14.746       24.165       21.923      217.442      583.931      480.632        0.225        0.064       56.676       17.197        0.092      334.936        5.239      872.582
03/15/2014  08:44:00       35.311        3.655        8.555       20.002       16.181       20.968      400.060      261.840      439.658        0.122        0.055       35.499       10.910        0.094      334.920        5.211      872.590
03/15/2014  08:45:00        5.940       16.684       22.163       25.095       15.592       17.628      629.752      243.110      310.731        0.099        0.059       17.710       12.692        0.514      335.328        5.889      872.586
03/15/2014  08:46:00       10.461       13.653       11.430       18.234       19.929       17.093      332.473      397.159      292.178        0.072        0.051       17.199       11.892        0.478      335.293        5.831      872.592
03/15/2014  08:47:00       36.101       37.475       11.993       52.748       18.077       19.250     2782.347      326.777      370.573        0.316        0.174       52.036       22.786        0.192      334.978        5.307      872.603
03/15/2014  08:48:00       48.802       31.937       12.515       23.688       12.813       20.527      561.135      164.167      421.371        0.235        0.057       58.323       10.161        0.030      334.937        5.240      872.611
03/15/2014  08:49:00       28.908       28.037        7.148       27.509       17.081       17.692      756.737      291.747      312.993        0.152        0.068       40.271        8.082        0.040      335.054        5.434      872.622
03/15/2014  08:50:00       35.575       30.755       -6.705       25.295       20.360       22.890      639.842      414.536      523.963        0.192        0.079       47.027       10.920        0.054      335.151        5.594      872.637
03/15/2014  08:51:00       12.447       13.106        7.250       30.072       19.202       15.719      904.309      368.713      247.085        0.095        0.076       18.075        4.573        0.064      335.534        6.232      872.641
03/15/2014  08:52:00       71.095       60.496       -5.151       19.086       15.609       17.945      364.287      243.626      322.036        0.484        0.046       93.350       10.241        0.012      335.218        5.706      872.638
03/15/2014  08:53:00       20.246       21.244       15.341       26.269       32.215       20.414      690.061     1037.787      416.738        0.162        0.107       29.346       22.449        0.585      335.742        6.578      872.640
03/15/2014  08:54:00       10.870       38.145       38.485       16.435       23.270       16.103      270.100      541.477      259.307        0.206        0.054       39.664       10.606        0.071      335.729        6.558      872.636
03/15/2014  08:55:00       12.432       17.721       27.735       24.157       17.170       20.034      583.566      294.813      401.375        0.126        0.064       21.647       16.925        0.611      335.829        6.724      872.640
03/15/2014  08:56:00       57.989       49.275       17.430       22.493       30.379       28.531      505.918      922.874      813.995        0.417        0.112       76.097       16.561        0.047      335.308        5.856      872.629
03/15/2014  08:57:00       44.306       33.329       26.066       37.349       31.383       25.746     1394.950      984.903      662.863        0.340        0.152       55.442       22.978        0.172      335.595        6.334      872.630
03/15/2014  08:58:00       48.911       68.867       11.605       34.772       20.791       23.908     1209.083      432.270      571.588        0.474        0.111       84.468       12.172        0.021      335.347        5.920      872.620
03/15/2014  08:59:00       30.358       46.801      -16.720       16.199       18.317       21.746      262.420      335.522      472.877        0.223        0.054       55.785       12.043        0.047      335.265        5.784      872.623
03/15/2014  09:00:00       27.732       19.456       17.691       23.503       15.958       27.403      552.382      254.652      750.898        0.151        0.078       33.877       15.832        0.218      335.502        6.179      872.620
03/15/2014  09:01:00      -23.578       18.449        2.482       23.145       15.831       14.749      535.670      250.632      217.538        0.095        0.050       29.938       15.938        0.283      335.638        6.407      872.627
03/15/2014  09:02:00      -18.915       23.880        7.664       18.169       21.322       25.978      330.114      454.635      674.853        0.122        0.073       30.464       19.346        0.403      335.687        6.487      872.628
03/15/2014  09:03:00      -39.358       10.630      -15.657        8.356       12.379        7.003       69.823      153.249       49.048        0.109        0.014       40.768        5.227        0.016      335.289        5.823      872.627
03/15/2014  09:04:00      -42.955        6.594       -6.897        8.007        6.309        6.274       64.113       39.800       39.361        0.104        0.007       43.459        4.213        0.009      335.266        5.785      872.625
03/15/2014  09:05:00      -56.420      -20.853       -5.011       15.969       20.086       11.289      255.018      403.447      127.438        0.221        0.039       60.150        7.698        0.016      335.440        6.076      872.630
03/15/2014  09:06:00      -46.242      -26.649       -4.777       22.843       18.455       15.445      521.807      340.593      238.563        0.199        0.055       53.371        7.723        0.021      335.503        6.179      872.636
03/15/2014  09:07:00      -34.175      -19.280       -2.253       19.271       18.061       10.764      371.375      326.202      115.873        0.118        0.041       39.238        8.324        0.045      335.649        6.423      872.653
03/15/2014  09:08:00      -33.173       -3.296      -13.776        6.573        9.182        5.372       43.207       84.309       28.859        0.073        0.008       33.336        4.673        0.020      335.498        6.173      872.672
03/15/2014  09:09:00      -22.015        0.845       -4.890       17.115       24.170       15.343      292.938      584.187      235.416        0.081        0.056       22.031        8.488        0.148      335.679        6.474      872.674
03/15/2014  09:10:00      -47.549       -1.636       10.680       20.053       27.359       14.540      402.105      748.489      211.419        0.187        0.068       47.577       11.686        0.060      335.614        6.366      872.676
03/15/2014  09:11:00      -12.274        9.850       39.486       19.794       36.065       26.656      391.806     1300.694      710.540        0.210        0.120       15.738       24.377        2.399      336.398        7.673      872.679
03/15/2014  09:12:00      -19.321        4.734       28.408       13.725       13.930       13.394      188.385      194.050      179.390        0.088        0.028       19.893        9.305        0.219      336.406        7.686      872.679
03/15/2014  09:13:00       -6.098       29.659       40.215       14.173       18.373       23.745      200.886      337.585      563.816        0.182        0.055       30.279       11.075        0.134      336.604        8.017      872.681
03/15/2014  09:14:00       -6.831       30.501       24.834       17.882       17.136       22.712      319.781      293.626      515.836        0.136        0.056       31.257        8.516        0.074      336.404        7.684      872.673
03/15/2014  09:15:00       -8.056       23.225       38.948       21.269       14.118        9.166      452.373      199.317       84.017        0.143        0.037       24.582        6.939        0.080      336.653        8.099      872.665
03/15/2014  09:16:00       18.031       31.201        6.383       15.489       17.255       20.553      239.900      297.750      422.412        0.115        0.048       36.036        7.451        0.043      336.022        7.045      872.670
03/15/2014  09:17:00        2.415       11.273      -17.030       17.762       19.245       10.521      315.501      370.364      110.695        0.061        0.040       11.528       10.038        0.758      336.002        7.011      872.668
03/15/2014  09:18:00      -33.140       -0.687        0.417       14.595       16.212       10.880      213.000      262.817      118.365        0.085        0.030       33.147        5.420        0.027      336.017        7.036      872.662
03/15/2014  09:19:00      -43.021       -9.206       -4.248       19.474       22.726        9.645      379.248      516.450       93.023        0.147        0.049       43.995       11.047        0.063      335.969        6.956      872.658
03/15/2014  09:20:00      -38.847      -10.566        1.466       13.704       10.679        8.782      187.792      114.045       77.119        0.100        0.019       40.259        4.773        0.014      336.017        7.037      872.651
03/15/2014  09:21:00      -16.154        9.820       21.837       13.712       15.752       16.184      188.013      248.140      261.912        0.077        0.035       18.905       12.384        0.429      336.587        7.988      872.642
03/15/2014  09:22:00       10.115       26.811       22.934       15.151       25.191       21.867      229.550      634.581      478.186        0.134        0.067       28.655       17.457        0.371      336.665        8.120      872.628
03/15/2014  09:23:00       -5.077       13.711       46.869       18.111       18.966       19.615      327.996      359.716      384.759        0.174        0.054       14.621       17.974        1.511      337.250        9.098      872.616
03/15/2014  09:24:00       -4.468        9.814       49.168       20.152       28.151       14.936      406.109      792.501      223.084        0.198        0.071       10.783       13.245        1.509      337.168        8.960      872.613
03/15/2014  09:25:00       -7.474       17.239       42.926       20.909       20.601       16.886      437.189      424.406      285.149        0.167        0.057       18.790       12.230        0.424      337.111        8.865      872.614
03/15/2014  09:26:00       -3.731       27.967       35.674       26.371       21.585       21.070      695.426      465.907      443.948        0.184        0.080       28.215       17.954        0.405      336.791        8.329      872.611
03/15/2014  09:27:00       -9.874       -8.425        5.111       36.709       19.112       16.201     1347.532      365.255      262.460        0.108        0.099       12.980       16.600        1.636      336.444        7.750      872.614
03/15/2014  09:28:00      -39.011      -25.891        0.507       41.254       21.142       16.427     1701.883      446.982      269.830        0.231        0.121       46.821       12.495        0.071      336.321        7.544      872.618
03/15/2014  09:29:00      -63.225      -52.203       -3.110       42.738       39.406       23.448     1826.578     1552.835      549.810        0.533        0.196       81.992       26.515        0.105      336.282        7.480      872.625
03/15/2014  09:30:00      -60.077      -59.615       -6.668       32.526       29.496       20.940     1057.934      869.999      438.472        0.479        0.118       84.636       17.671        0.044      336.148        7.254      872.629
03/15/2014  09:31:00      -33.455      -33.135        5.260       30.699       20.060       19.793      942.456      402.403      391.760        0.199        0.087       47.087       18.641        0.157      336.305        7.517      872.630
03/15/2014  09:32:00      -21.423      -53.446       -2.139       16.991       15.165       15.158      288.691      229.972      229.766        0.203        0.037       57.580        8.770        0.023      336.180        7.309      872.632
03/15/2014  09:33:00      -29.495      -28.912        1.022       18.362       18.428       13.955      337.175      339.604      194.737        0.129        0.044       41.302        7.820        0.036      336.356        7.604      872.635
03/15/2014  09:34:00       -4.847        3.719       11.749       14.911       10.518       12.827      222.335      110.635      164.520        0.034        0.025        6.110        8.062        1.741      337.026        8.723      872.641
03/15/2014  09:35:00      -38.107        2.372        4.335       12.661       15.830       10.926      160.305      250.578      119.380        0.100        0.027       38.181        6.644        0.030      336.592        7.997      872.642
03/15/2014  09:36:00      -21.726       23.508       35.142       17.523       25.241       31.272      307.059      637.123      977.932        0.209        0.096       32.010       20.129        0.395      337.070        8.797      872.647
03/15/2014  09:37:00       11.214       57.570       57.431       46.084       28.684       36.227     2123.762      822.768     1312.383        0.550        0.213       58.652       29.103        0.246      337.161        8.949      872.659
03/15/2014  09:38:00       30.625       44.125       37.810       27.045       33.316       22.831      731.411     1109.980      521.273        0.334        0.118       53.711       13.917        0.067      337.268        9.128      872.677
03/15/2014  09:39:00       -1.222        3.327       16.208       27.028       43.644       27.526      730.528     1904.789      757.657        0.183        0.170        3.544       24.491       47.757      337.193        9.001      872.697
03/15/2014  09:40:00       -3.940       17.449       58.799       23.058       33.881       29.876      531.687     1147.931      892.580        0.317        0.129       17.888       23.105        1.668      337.573        9.639      872.703
03/15/2014  09:41:00       38.897       19.735       44.586       47.148       51.055       37.506     2222.917     2606.569     1406.676        0.506        0.312       43.617       30.825        0.499      337.133        8.901      872.707
03/15/2014  09:42:00        9.735       45.808       49.348       34.497       47.203       39.754     1190.059     2228.088     1580.408        0.481        0.250       46.831       19.348        0.171      337.253        9.102      872.703
03/15/2014  09:43:00       17.293       61.953       78.531       38.637       41.440       21.347     1492.842     1717.239      455.702        0.698        0.183       64.321       21.795        0.115      337.075        8.805      872.696
03/15/2014  09:44:00       53.293       33.625       39.337       27.670       39.529       38.016      765.632     1562.503     1445.221        0.464        0.189       63.014       27.549        0.191      336.739        8.243      872.702
03/15/2014  09:45:00       21.418       33.314       26.420       27.918       17.458       21.570      779.434      304.795      465.266        0.191        0.077       39.606        9.881        0.062      336.934        8.569      872.693
03/15/2014  09:46:00       27.608       48.721       65.587       38.910       31.617       27.062     1514.026      999.610      732.373        0.534        0.162       55.999       26.148        0.218      337.134        8.903      872.686
03/15/2014  09:47:00       29.828       25.496       72.310       39.491       42.144       32.780     1559.535     1776.109     1074.533        0.559        0.221       39.240       21.392        0.297      337.267        9.127      872.683
03/15/2014  09:48:00       24.293       -7.432       32.930       42.697       29.448       26.251     1823.020      867.170      689.139        0.255        0.169       25.404       18.337        0.521      337.082        8.817      872.678
03/15/2014  09:49:00       12.665        6.055       35.489       24.455       31.783       15.274      598.039     1010.163      233.281        0.165        0.092       14.038       11.756        0.701      337.481        9.484      872.670
03/15/2014  09:50:00       11.270       43.619       69.804       31.255       28.059       16.650      976.888      787.305      277.206        0.447        0.102       45.051       15.400        0.117      337.285        9.156      872.674
03/15/2014  09:51:00       10.437       15.325       63.628       38.890       69.091       42.834     1512.426     4773.558     1834.772        0.625        0.406       18.541       48.865        6.945      337.318        9.211      872.669
03/15/2014  09:52:00       -0.082       24.055       29.454       22.225       39.472       20.127      493.957     1558.063      405.100        0.195        0.123       24.055       15.154        0.397      337.049        8.762      872.673
03/15/2014  09:53:00        8.810       -5.991       11.765       23.390       14.860       14.160      547.085      220.833      200.515        0.061        0.048       10.654       11.454        1.156      337.483        9.487      872.668
03/15/2014  09:54:00        3.278      -20.350       30.732       32.125       54.486       29.080     1032.046     2968.772      845.639        0.311        0.242       20.613       15.492        0.565      337.729        9.901      872.663
03/15/2014  09:55:00       29.666      -53.405       10.053       43.592       87.304       48.018     1900.289     7622.032     2305.692        0.783        0.591       61.091       42.302        0.479      337.570        9.633      872.659
03/15/2014  09:56:00       34.203      -21.343       31.565       51.396       70.531       60.389     2641.529     4974.590     3646.804        0.694        0.563       40.316       52.844        1.718      337.666        9.796      872.664
03/15/2014  09:57:00       11.475       61.382       86.619       51.732       62.817       43.806     2676.189     3945.987     1918.944        0.997        0.427       62.446       43.014        0.474      337.320        9.214      872.668
03/15/2014  09:58:00       86.145      114.844       93.776       63.942       41.867       51.674     4088.585     1752.842     2670.244        1.896        0.426      143.562       36.280        0.064      337.006        8.689      872.669
03/15/2014  09:59:00      134.268       79.280       42.270       39.204       35.620       33.338     1536.964     1268.811     1111.446        1.501        0.196      155.927       25.776        0.027      336.879        8.477      872.661
03/15/2014  10:00:00      119.471       91.547       35.241       40.274       32.382       36.046     1621.989     1048.600     1299.347        1.393        0.198      150.513       18.662        0.015      336.919        8.543      872.657
03/15/2014  10:01:00       72.699       52.297       16.717       51.340       37.407       38.146     2635.794     1399.264     1455.153        0.689        0.275       89.555       32.498        0.132      337.093        8.835      872.658
03/15/2014  10:02:00       54.108       53.525       25.109       53.362       51.169       56.040     2847.527     2618.264     3140.490        0.751        0.430       76.109       35.916        0.223      337.636        9.744      872.652
03/15/2014  10:03:00      135.148      106.512       62.521       54.607       40.440       42.237     2981.891     1635.381     1783.931        1.996        0.320      172.075       31.020        0.032      337.069        8.794      872.647
03/15/2014  10:04:00       35.503       16.930       62.463       47.482       46.208       35.676     2254.494     2135.176     1272.768        0.555        0.283       39.333       24.163        0.377      337.491        9.503      872.653
03/15/2014  10:05:00       71.789       70.495       37.225       64.883       37.108       36.840     4209.756     1377.027     1357.151        0.923        0.347      100.614       35.592        0.125      337.533        9.571      872.655
03/15/2014  10:06:00       66.120       82.474        6.821       30.042       38.272       32.788      902.536     1464.744     1075.054        0.733        0.172      105.706       24.138        0.052      337.194        9.004      872.666
03/15/2014  10:07:00       59.895        5.221       16.628       49.891       45.829       32.456     2489.156     2100.263     1053.414        0.477        0.282       60.122       25.921        0.186      337.358        9.278      872.685
03/15/2014  10:08:00       47.327       33.317       47.626       39.164       51.536       36.378     1533.805     2655.970     1323.368        0.556        0.276       57.878       35.465        0.375      337.657        9.779      872.681
03/15/2014  10:09:00        5.096       32.933       61.172       20.764       35.105       28.525      431.129     1232.345      813.677        0.366        0.124       33.325       22.853        0.470      337.988       10.333      872.689
03/15/2014  10:10:00        5.504      -25.168       23.597       30.398       54.464       36.786      924.016     2966.363     1353.197        0.323        0.262       25.763       38.302        2.210      337.851       10.104      872.703
03/15/2014  10:11:00        4.410       -0.034       55.830       24.902       50.113       34.611      620.104     2511.277     1197.945        0.373        0.216        4.410       28.840       42.768      338.028       10.402      872.702
03/15/2014  10:12:00       58.655       71.860       54.100       38.172       34.634       34.610     1457.115     1199.533     1197.863        0.769        0.193       92.759       12.380        0.018      337.510        9.532      872.697
03/15/2014  10:13:00       26.100       49.776       58.796       30.166       29.534       20.107      909.976      872.244      404.303        0.440        0.109       56.204       11.062        0.039      337.677        9.813      872.693
03/15/2014  10:14:00       30.826       12.946       35.185       31.788       36.375       27.608     1010.499     1323.121      762.213        0.273        0.155       33.434       24.345        0.530      337.839       10.085      872.690
03/15/2014  10:15:00       76.855       74.976       47.266       51.572       30.863       34.217     2659.669      952.527     1170.792        0.927        0.239      107.370       27.670        0.066      337.488        9.494      872.684
03/15/2014  10:16:00       19.017       61.623       67.334       29.775       38.230       33.386      886.521     1461.519     1114.614        0.608        0.173       64.491       28.509        0.195      337.894       10.177      872.687
03/15/2014  10:17:00       25.533       48.107       71.669       39.842       36.663       28.560     1587.414     1344.172      815.676        0.592        0.187       54.463       21.182        0.151      337.982       10.324      872.684
03/15/2014  10:18:00       32.934       -5.239       33.127       42.264       38.528       31.261     1786.206     1484.397      977.277        0.323        0.212       33.348       26.204        0.617      338.109       10.537      872.679
03/15/2014  10:19:00       10.893       32.316       48.512       27.743       35.885       21.238      769.698     1287.756      451.047        0.301        0.125       34.102       18.192        0.285      337.988       10.334      872.670
03/15/2014  10:20:00      -12.763       43.805       85.875       20.045       38.747       36.264      401.802     1501.321     1315.062        0.634        0.161       45.626       29.429        0.416      338.273       10.813      872.646
03/15/2014  10:21:00       96.501       87.557       69.227       71.260       50.471       52.230     5077.937     2547.344     2727.996        1.606        0.518      130.302       50.629        0.151      337.598        9.680      872.634
03/15/2014  10:22:00       88.765       59.125       17.597       32.168       31.176       37.199     1034.749      971.937     1383.747        0.754        0.170      106.654       20.658        0.038      337.671        9.802      872.632
03/15/2014  10:23:00       45.973        4.696       27.913       40.002       32.122       30.917     1600.143     1031.797      955.831        0.325        0.179       46.212       15.989        0.120      338.045       10.430      872.628
03/15/2014  10:24:00       30.007       38.910       39.480       36.164       31.806       26.165     1307.860     1011.631      684.618        0.349        0.150       49.137       10.737        0.048      338.059       10.453      872.625
03/15/2014  10:25:00       15.792       89.211      108.224       57.120       55.411       37.367     3262.677     3070.402     1396.288        1.382        0.386       90.598       36.693        0.164      337.954       10.277      872.623
03/15/2014  10:26:00       48.850       52.899       83.971       41.969       43.659       19.083     1761.415     1906.077      364.152        0.813        0.202       72.004       16.009        0.049      337.788       10.000      872.615
03/15/2014  10:27:00       38.597       61.777       60.205       32.100       28.139       17.259     1030.390      791.829      297.861        0.553        0.106       72.843       14.648        0.040      337.839       10.085      872.622
03/15/2014  10:28:00        7.172      -25.559       19.225       18.267       29.280       24.366      333.674      857.297      593.710        0.143        0.089       26.546       18.105        0.465      337.913       10.209      872.627
03/15/2014  10:29:00       66.309       55.052       50.080       57.752       51.146       36.528     3335.252     2615.917     1334.310        0.861        0.364       86.183       19.204        0.050      337.907       10.198      872.630
03/15/2014  10:30:00       27.851       37.992       67.904       47.620       36.738       38.195     2267.658     1349.692     1458.836        0.595        0.254       47.107       17.618        0.140      338.318       10.889      872.643
03/15/2014  10:31:00       17.999       24.990       69.452       36.523       77.254       37.951     1333.962     5968.118     1440.252        0.726        0.437       30.797       48.799        2.511      338.139       10.588      872.652
03/15/2014  10:32:00       31.515       76.269       48.415       64.861       39.868       66.231     4206.908     1589.452     4386.586        0.967        0.509       82.524       57.936        0.493      338.216       10.717      872.665
03/15/2014  10:33:00       70.443       70.521        5.279       42.889       40.847       36.969     1839.497     1668.440     1366.726        0.742        0.244       99.676       23.207        0.054      337.996       10.348      872.671
03/15/2014  10:34:00       39.862       61.778        2.823       40.993       52.820       28.633     1680.411     2789.940      819.829        0.535        0.265       73.522       24.169        0.108      338.094       10.514      872.686
03/15/2014  10:35:00       35.204       63.936        2.173       32.201       37.882       34.494     1036.895     1435.079     1189.869        0.450        0.183       72.987       30.842        0.179      337.996       10.346      872.697
03/15/2014  10:36:00       80.352       47.004        2.145       44.382       26.447       31.184     1969.790      699.444      972.422        0.616        0.182       93.090       23.954        0.066      337.956       10.282      872.695
03/15/2014  10:37:00       71.291       79.845       21.003       36.658       35.229       32.864     1343.787     1241.078     1080.049        0.778        0.183      107.040       21.437        0.040      338.035       10.412      872.702
03/15/2014  10:38:00      -12.180       99.078      -13.607       33.680       48.845       27.019     1134.331     2385.806      730.052        0.720        0.213       99.823       24.784        0.062      337.946       10.264      872.703
03/15/2014  10:39:00       -4.017       41.663        8.007       39.562       42.353       26.619     1565.120     1793.803      708.584        0.294        0.203       41.857       27.913        0.445      338.367       10.970      872.691
03/15/2014  10:40:00       40.797       44.112       26.778       41.914       44.076       29.381     1756.806     1942.727      863.270        0.444        0.228       60.086       13.461        0.050      338.751       11.616      872.688
03/15/2014  10:41:00       38.590       78.566       73.634       68.972       51.592       44.610     4757.122     2661.725     1990.095        1.124        0.470       87.532       30.250        0.119      338.469       11.142      872.674
03/15/2014  10:42:00       79.096       94.317       64.760       49.918       33.633       47.046     2491.773     1131.186     2213.313        1.259        0.292      123.092       37.075        0.091      338.061       10.457      872.673
03/15/2014  10:43:00       54.321       67.265       46.704       44.639       42.909       36.170     1992.652     1841.145     1308.264        0.740        0.257       86.460       21.763        0.063      338.099       10.520      872.673
03/15/2014  10:44:00       49.781       82.209       73.696       47.801       56.065       38.996     2284.911     3143.326     1520.680        1.081        0.347       96.107       16.272        0.029      338.586       11.337      872.659
03/15/2014  10:45:00       10.439      -13.551       55.770       29.992       68.249       41.009      899.498     4657.971     1681.778        0.532        0.362       17.106       42.245        6.099      338.688       11.509      872.672
03/15/2014  10:46:00      100.493       82.267       61.161       64.725       49.819       55.379     4189.370     2481.917     3066.805        1.517        0.487      129.872       43.523        0.112      338.253       10.778      872.666
03/15/2014  10:47:00       38.917       59.389       84.154       40.972       33.537       19.335     1678.680     1124.759      373.825        0.765        0.159       71.005       15.969        0.051      338.362       10.962      872.683
03/15/2014  10:48:00       20.575        9.818       36.171       29.434       30.526       32.655      866.382      931.843     1066.347        0.235        0.143       22.798       21.289        0.872      338.503       11.200      872.678
03/15/2014  10:49:00       41.530       22.515       32.093       51.350       29.133       40.258     2636.782      848.703     1620.740        0.418        0.255       47.241       38.316        0.658      338.662       11.466      872.681
03/15/2014  10:50:00       54.619       54.640       13.049       54.821       38.501       40.854     3005.390     1482.314     1669.012        0.615        0.308       77.257       22.232        0.083      338.632       11.414      872.672
03/15/2014  10:51:00       81.207       62.278        2.379       43.180       35.285       40.819     1864.528     1245.012     1666.207        0.763        0.239      102.338       15.289        0.022      338.321       10.894      872.664
03/15/2014  10:52:00        9.794       20.406      -15.679       36.396       17.768       19.823     1324.645      315.694      392.962        0.140        0.102       22.634       15.422        0.464      338.245       10.766      872.667
03/15/2014  10:53:00      -14.003       46.684       -8.848       36.973       37.003       26.911     1366.978     1369.197      724.213        0.296        0.173       48.739       26.998        0.307      338.362       10.963      872.655
03/15/2014  10:54:00       -5.654       -8.853        3.298       28.339       25.024       27.443      803.098      626.191      753.114        0.115        0.109       10.504       19.072        3.297      338.722       11.568      872.648
03/15/2014  10:55:00        3.361       54.200       78.098       36.971       37.931       26.763     1366.824     1438.793      716.254        0.628        0.176       54.304       23.481        0.187      339.132       12.258      872.645
03/15/2014  10:56:00       32.073       32.228       44.350       35.259       44.219       24.032     1243.194     1955.362      577.535        0.390        0.189       45.467       12.983        0.082      338.648       11.443      872.633
03/15/2014  10:57:00       74.202       42.626       52.517       51.204       51.941       41.590     2621.872     2697.911     1729.695        0.856        0.352       85.574       36.522        0.182      338.794       11.687      872.623
03/15/2014  10:58:00       23.377       66.726       13.916       45.560       53.268       44.790     2075.752     2837.525     2006.155        0.605        0.346       70.703       32.809        0.215      338.868       11.811      872.619
03/15/2014  10:59:00        1.138       13.975       15.304       22.814       25.246       21.420      520.468      637.355      458.823        0.102        0.081       14.021        7.752        0.306      339.277       12.499      872.621
03/15/2014  11:00:00       14.941        7.294       13.843       27.239       25.093       24.860      741.977      629.681      618.042        0.123        0.099       16.626       10.537        0.402      339.229       12.419      872.611
03/15/2014  11:01:00       22.538       22.225       12.630       56.718       44.423       43.325     3216.890     1973.425     1877.062        0.411        0.353       31.653       27.364        0.747      339.244       12.445      872.610
03/15/2014  11:02:00       56.706      -88.357        0.798       53.938       62.973       33.308     2909.332     3965.592     1109.394        0.950        0.399      104.988       31.412        0.090      338.763       11.635      872.610
03/15/2014  11:03:00       53.345      -69.269        2.258       52.224       60.215       48.675     2727.313     3625.893     2369.251        0.818        0.436       87.429       37.027        0.179      339.016       12.061      872.613
03/15/2014  11:04:00       19.959       27.022       72.386       33.453       47.973       30.519     1119.076     2301.415      931.415        0.536        0.218       33.593       30.581        0.829      339.204       12.378      872.620
03/15/2014  11:05:00       13.973       -9.560       12.998       26.957       50.300       40.274      726.669     2530.095     1621.998        0.267        0.244       16.931       39.947        5.567      338.664       11.468      872.619
03/15/2014  11:06:00      -28.822       18.321       20.058       29.242       18.712       22.992      855.098      350.147      528.632        0.165        0.087       34.152       22.031        0.416      339.377       12.669      872.610
03/15/2014  11:07:00      -75.848       10.066       -8.408       26.229       33.046       17.818      687.943     1092.039      317.479        0.401        0.105       76.513       10.826        0.020      338.768       11.643      872.591
03/15/2014  11:08:00      -38.101      -20.824       -4.647       32.389       20.496       16.965     1049.023      420.091      287.815        0.183        0.088       43.420       15.682        0.130      339.175       12.329      872.592
03/15/2014  11:09:00        5.423      -10.300       32.940       52.522       53.126       39.796     2758.533     2822.336     1583.695        0.419        0.358       11.641       37.155       10.188      339.541       12.945      872.576
03/15/2014  11:10:00       15.192        0.544       52.261       50.062       64.345       41.071     2506.212     4140.220     1686.826        0.565        0.417       15.201       36.370        5.724      339.568       12.992      872.563
03/15/2014  11:11:00       28.000       13.095       65.681       51.838       64.010       37.300     2687.137     4097.262     1391.295        0.672        0.409       30.911       36.793        1.417      339.493       12.864      872.546
03/15/2014  11:12:00      -27.293      -40.442       25.020       33.786       51.344       35.604     1141.508     2636.210     1267.664        0.402        0.252       48.790       31.157        0.408      339.163       12.309      872.543
03/15/2014  11:13:00       54.702       74.785       61.516       55.384       34.840       45.013     3067.366     1213.801     2026.194        0.934        0.315       92.655       38.383        0.172      339.237       12.433      872.531
03/15/2014  11:14:00       84.351       55.142       24.693       37.460       44.514       37.830     1403.284     1981.464     1431.143        0.779        0.241      100.775       20.697        0.042      339.063       12.141      872.529
03/15/2014  11:15:00      -10.181       14.416       18.452       64.178       76.052       43.014     4118.826     5783.933     1850.222        0.620        0.588       17.648       33.652        3.636      339.682       13.184      872.526
03/15/2014  11:16:00        8.177        5.124       60.680       36.264       42.010       24.662     1315.073     1764.851      608.234        0.373        0.184        9.650       17.675        3.355      340.149       13.972      872.543
03/15/2014  11:17:00       25.248      -33.837       34.644       39.552       73.954       41.169     1564.376     5469.133     1694.868        0.585        0.436       42.219       42.575        1.017      339.969       13.667      872.555
03/15/2014  11:18:00       16.674       29.465       80.923       53.485       73.570       32.051     2860.686     5412.547     1027.260        0.850        0.465       33.856       36.632        1.171      340.051       13.805      872.546
03/15/2014  11:19:00       93.156      -25.264       47.621       72.598      112.094       62.410     5270.426    12565.068     3894.994        1.665        1.087       96.521       70.804        0.538      339.502       12.879      872.550
03/15/2014  11:20:00       16.416       38.770       82.208       56.929      100.414       54.482     3240.903    10082.952     2968.325        1.241        0.815       42.103       62.281        2.188      339.625       13.086      872.555
03/15/2014  11:21:00       29.366      -15.494       50.963       43.142       77.107       49.562     1861.258     5945.415     2456.412        0.698        0.513       33.203       56.983        2.945      339.780       13.349      872.564
03/15/2014  11:22:00       76.955       86.962       76.974       64.069       39.546       50.173     4104.895     1563.847     2517.355        1.380        0.409      116.123       45.014        0.150      339.366       12.651      872.555
03/15/2014  11:23:00       98.241      101.013       47.876       50.198       45.160       44.385     2519.832     2039.396     1970.041        1.434        0.326      140.908       29.584        0.044      339.203       12.375      872.548
03/15/2014  11:24:00      -23.149      -24.650       -4.467       48.020       52.105       32.773     2305.922     2714.924     1074.048        0.363        0.305       33.816       24.866        0.541      339.636       13.106      872.533
03/15/2014  11:25:00      -59.622      -30.285        5.505       51.741       33.455       26.854     2677.106     1119.218      721.125        0.451        0.226       66.873       16.200        0.059      339.639       13.109      872.529
03/15/2014  11:26:00       -5.422      -18.024       32.324       55.490       72.519       40.917     3079.174     5258.938     1674.175        0.570        0.501       18.821       43.922        5.446      339.871       13.502      872.509
03/15/2014  11:27:00      -49.930      -40.377       20.971       64.147       55.787       46.290     4114.884     3112.217     2142.791        0.696        0.468       64.213       37.893        0.348      339.574       13.002      872.502
03/15/2014  11:28:00      -68.814       22.448       -1.681       34.558       21.056       23.824     1194.222      443.346      567.592        0.372        0.110       72.383       21.801        0.091      339.143       12.274      872.491
03/15/2014  11:29:00       -7.371      -34.908        7.431       29.394       50.895       26.266      864.018     2590.264      689.903        0.274        0.207       35.678       23.049        0.417      339.686       13.190      872.492
03/15/2014  11:30:00      -51.385      -25.182        3.419       26.609       30.736       19.660      708.050      944.705      386.525        0.266        0.102       57.224       10.864        0.036      339.548       12.956      872.478
03/15/2014  11:31:00       32.057      -49.959       -0.244       43.465       49.660       27.801     1889.188     2466.109      772.891        0.432        0.256       59.359       16.307        0.075      339.522       12.913      872.496
03/15/2014  11:32:00        5.837       42.727       27.652       34.602       48.214       51.401     1197.325     2324.552     2642.064        0.439        0.308       43.124       43.169        1.002      340.321       14.262      872.487
03/15/2014  11:33:00       13.814       66.060       84.290       36.050       43.590       49.834     1299.632     1900.105     2483.381        0.867        0.284       67.489       37.519        0.309      340.258       14.155      872.482
03/15/2014  11:34:00       76.430       64.092       26.399       45.743       48.026       40.586     2092.388     2306.513     1647.231        0.834        0.302       99.747       34.440        0.119      339.609       13.059      872.483
03/15/2014  11:35:00       23.484       -2.549       17.835       40.161       71.166       35.983     1612.927     5064.535     1294.805        0.442        0.399       23.622       37.302        2.494      340.045       13.796      872.478
03/15/2014  11:36:00       17.998       12.096       29.185       70.295       54.731       31.603     4941.364     2995.503      998.740        0.513        0.447       21.685       27.664        1.627      340.422       14.432      872.476
03/15/2014  11:37:00       96.812      115.996       64.843       62.095       54.215       73.966     3855.793     2939.316     5470.968        1.965        0.613      151.089       52.295        0.120      339.756       13.307      872.468
03/15/2014  11:38:00      163.182      119.871       73.999       69.370       89.976       58.971     4812.192     8095.656     3477.637        3.143        0.819      202.478       48.580        0.058      339.543       12.946      872.471
03/15/2014  11:39:00       56.685       44.990       40.719       47.658       58.455       48.460     2271.287     3417.035     2348.324        0.746        0.402       72.369       33.844        0.219      339.764       13.322      872.468
03/15/2014  11:40:00       92.231       96.218        2.809       53.089       46.175       35.440     2818.452     2132.096     1255.973        1.199        0.310      133.283       27.297        0.042      339.615       13.069      872.459
03/15/2014  11:41:00       82.960      -15.057       20.174       95.456      111.136       65.469     9111.845    12351.200     4286.127        1.663        1.287       84.315       85.103        1.019      339.915       13.576      872.464
03/15/2014  11:42:00       56.907      -18.452       28.387       44.140       71.452       34.309     1948.304     5105.384     1177.120        0.631        0.412       59.824       36.900        0.380      339.759       13.312      872.460
03/15/2014  11:43:00      -47.832       40.887       24.110       45.431       46.685       33.442     2063.948     2179.451     1118.368        0.495        0.268       62.926       27.052        0.185      339.804       13.388      872.449
03/15/2014  11:44:00      -45.137      -62.030       -8.699       37.782       37.781       33.144     1427.515     1427.368     1098.504        0.496        0.198       76.714       21.264        0.077      339.750       13.298      872.442
03/15/2014  11:45:00      -37.574      -52.907      -12.352       34.780       56.823       22.099     1209.683     3228.868      488.382        0.464        0.246       64.892       25.637        0.156      339.920       13.585      872.440
03/15/2014  11:46:00       22.155     -114.801      -11.814       48.822       43.447       31.290     2383.572     1887.659      979.053        0.953        0.263      116.919       16.029        0.019      339.847       13.460      872.433
03/15/2014  11:47:00      -57.195      -69.037        0.986       51.925       64.093       32.958     2696.230     4107.971     1086.201        0.796        0.395       89.651       31.809        0.126      339.849       13.464      872.412
03/15/2014  11:48:00      -64.869        1.211       16.257       73.809       42.724       34.213     5447.815     1825.339     1170.525        0.646        0.422       64.880       47.080        0.527      339.928       13.598      872.404
03/15/2014  11:49:00       46.839      -61.319       16.805       54.581       73.428       47.972     2979.061     5391.713     2301.356        0.845        0.534       77.162       49.228        0.407      340.248       14.138      872.399
03/15/2014  11:50:00       65.457     -176.228      -23.695       52.801       51.074       35.301     2787.906     2608.529     1246.141        2.127        0.332      187.992       27.396        0.021      339.728       13.260      872.386
03/15/2014  11:51:00       -3.151     -106.445      -24.595       59.772       35.435       23.444     3572.691     1255.662      549.598        0.866        0.269      106.492       22.879        0.046      339.428       12.755      872.383
03/15/2014  11:52:00       -5.236      -13.876       22.380       21.178       45.770       24.494      448.503     2094.883      599.939        0.193        0.157       14.831       27.408        3.415      340.386       14.370      872.352
03/15/2014  11:53:00       11.522       -0.953       41.201       33.172       63.838       33.024     1100.414     4075.257     1090.591        0.405        0.313       11.562       29.572        6.542      340.852       15.161      872.351
03/15/2014  11:54:00       21.866       32.868       60.955       63.690       78.896       49.043     4056.475     6224.642     2405.262        0.898        0.634       39.477       43.554        1.217      340.636       14.794      872.337
03/15/2014  11:55:00       16.968      -11.060       12.928       38.142       30.651       39.295     1454.828      939.459     1544.075        0.226        0.197       20.254       23.621        1.360      340.413       14.416      872.349
03/15/2014  11:56:00       23.558        6.892       36.655       36.685       40.563       30.177     1345.808     1645.346      910.632        0.292        0.195       24.545       30.340        1.528      340.526       14.609      872.346
03/15/2014  11:57:00       30.170       11.942       23.536       39.261       29.565       37.122     1541.424      874.111     1378.072        0.270        0.190       32.448        9.294        0.082      340.719       14.934      872.335
03/15/2014  11:58:00       78.382       69.842       85.593       84.860       52.727       50.341     7201.224     2780.153     2534.201        1.543        0.626      104.984       48.293        0.212      340.435       14.455      872.326
03/15/2014  11:59:00      120.652       36.205       53.424       62.228       59.178       54.410     3872.374     3502.080     2960.458        1.453        0.517      125.967       34.955        0.077      340.218       14.086      872.328
03/15/2014  12:00:00       30.268       35.282       10.351       48.573       35.545       25.468     2359.357     1263.455      648.635        0.327        0.214       46.486       21.608        0.216      340.116       13.916      872.329
03/15/2014  12:01:00       75.971       54.731       46.755       84.516       77.751       43.509     7142.975     6045.210     1893.035        1.301        0.754       93.633       23.834        0.065      340.570       14.681      872.315
03/15/2014  12:02:00       81.070       59.567      110.102       88.124       91.716       61.010     7765.903     8411.883     3722.267        2.107        0.995      100.601       59.309        0.348      340.661       14.834      872.336
03/15/2014  12:03:00      113.853       50.430       74.440       98.819      110.314       54.784     9765.274    12169.205     3001.275        2.299        1.247      124.522       56.063        0.203      340.489       14.542      872.336
03/15/2014  12:04:00       79.647      -37.886       29.454       79.799      103.646       47.395     6367.838    10742.468     2246.247        1.400        0.968       88.198       40.338        0.209      340.588       14.711      872.343
03/15/2014  12:05:00      113.826       32.931       65.459       57.767       58.904       57.611     3336.982     3469.725     3318.975        1.422        0.506      118.494       38.778        0.107      340.345       14.300      872.344
03/15/2014  12:06:00       60.710       98.814      101.582       89.680       71.894       48.890     8042.426     5168.730     2390.257        1.968        0.780      115.974       41.183        0.126      340.618       14.761      872.329
03/15/2014  12:07:00       68.266       92.762       62.450       75.416       59.249       50.729     5687.592     3510.422     2573.461        1.447        0.589      115.174       42.433        0.136      340.446       14.471      872.328
03/15/2014  12:08:00      158.099       94.206        9.110       66.599       55.372       48.087     4435.399     3066.072     2312.343        2.188        0.491      184.038       34.316        0.035      340.272       14.177      872.307
03/15/2014  12:09:00      151.849      110.124       13.241       52.472       42.123       50.192     2753.288     1774.360     2519.239        2.120        0.352      187.578       27.539        0.022      340.073       13.840      872.298
03/15/2014  12:10:00      100.837       67.945       11.311       48.289       46.684       29.142     2331.837     2179.374      849.235        1.014        0.268      121.592       16.466        0.018      339.868       13.497      872.294
03/15/2014  12:11:00       64.044       35.203        6.198       29.096       28.664       33.038      846.589      821.652     1091.510        0.407        0.138       73.081       21.702        0.088      340.199       14.055      872.289
03/15/2014  12:12:00       81.476       94.397       46.836       42.809       61.800       67.210     1832.591     3819.226     4517.223        1.395        0.508      124.696       46.112        0.137      340.481       14.528      872.277
03/15/2014  12:13:00       76.979      118.852      107.521       83.830       60.295       72.783     7027.541     3635.468     5297.358        2.378        0.798      141.604       64.090        0.205      340.303       14.229      872.277
03/15/2014  12:14:00      133.177      104.733        8.220       45.054       31.157       31.147     2029.850      970.762      970.154        1.637        0.199      169.426       18.820        0.012      339.794       13.372      872.284
03/15/2014  12:15:00       66.424       51.458      -11.913       50.691       45.461       24.473     2569.541     2066.746      598.933        0.622        0.262       84.024       23.901        0.081      340.063       13.825      872.271
03/15/2014  12:16:00       24.063       52.123        7.245       37.063       44.473       34.106     1373.647     1977.881     1163.208        0.393        0.226       57.409       27.543        0.230      340.516       14.592      872.262
03/15/2014  12:17:00      -20.648       72.786       10.510       27.942       82.527       32.802      780.742     6810.743     1075.963        0.725        0.433       75.658       37.165        0.241      340.633       14.790      872.255
03/15/2014  12:18:00       80.341       95.056       72.575       71.278       58.527       69.417     5080.537     3425.406     4818.698        1.704        0.666      124.460       23.410        0.035      340.618       14.762      872.253
03/15/2014  12:19:00      111.392       77.289       41.392       77.459       66.184       49.577     5999.881     4380.262     2457.873        1.646        0.642      135.579       33.997        0.063      340.479       14.528      872.268
03/15/2014  12:20:00      180.177      116.642       53.151      124.904       86.410       87.066    15600.917     7466.732     7580.488        3.977        1.532      214.637       76.806        0.128      340.472       14.512      872.259
03/15/2014  12:21:00      158.379       89.223       18.966       44.336       48.498       53.155     1965.720     2352.025     2825.466        2.027        0.357      181.782       36.044        0.039      340.532       14.617      872.261
03/15/2014  12:22:00       78.760       23.589       58.930       78.693       78.909       70.433     6192.524     6226.644     4960.781        1.380        0.869       82.217       59.914        0.531      341.270       15.866      872.251
03/15/2014  12:23:00       94.618       31.874       55.998       64.786       59.295       50.557     4197.276     3515.943     2556.045        1.168        0.513       99.842       42.457        0.181      340.814       15.095      872.249
03/15/2014  12:24:00       68.124       81.558      133.635       93.300      161.956      107.055     8704.871    26229.728    11460.683        3.776        2.320      106.267      115.758        1.187      340.972       15.359      872.236
03/15/2014  12:25:00       57.589       70.294      116.812       76.992       90.833       68.442     5927.790     8250.716     4684.303        2.038        0.943       90.872       59.731        0.432      341.048       15.489      872.229
03/15/2014  12:26:00       66.480       50.256       39.122       57.432       66.361       58.158     3298.463     4403.746     3382.395        0.978        0.554       83.338       51.276        0.379      340.830       15.121      872.229
03/15/2014  12:27:00       62.201       58.250      108.106       79.976      108.979       81.062     6396.233    11876.377     6570.971        2.189        1.242       85.218       51.410        0.364      341.189       15.727      872.205
03/15/2014  12:28:00       81.812        6.059      104.497      106.291      219.045      120.346    11297.799    47980.834    14483.267        4.569        3.688       82.036      152.910        3.474      340.754       14.990      872.186
03/15/2014  12:29:00       90.051     -142.780       -0.570       80.829      112.260       65.684     6533.256    12602.371     4314.418        2.597        1.173      168.806       66.871        0.157      340.689       14.881      872.200
03/15/2014  12:30:00       89.214     -183.288       -2.736       91.440      106.509       71.325     8361.299    11344.173     5087.262        3.317        1.240      203.848       62.767        0.095      340.827       15.112      872.181
03/15/2014  12:31:00       97.815     -156.434      -16.521       84.551      115.854       61.709     7148.808    13422.077     3807.952        2.934        1.219      184.498       68.103        0.136      340.880       15.204      872.183
03/15/2014  12:32:00      142.046     -132.977      -35.594       67.888       74.358       53.019     4608.776     5529.166     2811.049        2.604        0.647      194.576       59.106        0.092      340.749       14.982      872.175
03/15/2014  12:33:00       79.905      -63.048       -1.503       48.200       77.406       44.647     2323.288     5991.619     1993.348        1.033        0.515      101.783       52.071        0.262      340.604       14.738      872.166
03/15/2014  12:34:00       43.165       61.662       62.000       32.045       33.371       26.717     1026.889     1113.620      713.786        0.618        0.143       75.269       18.987        0.064      340.762       15.006      872.132
03/15/2014  12:35:00       39.660       79.283      101.168       53.992      101.384       49.570     2915.175    10278.756     2457.197        1.687        0.783       88.649       58.887        0.441      341.037       15.471      872.131
03/15/2014  12:36:00       68.362       46.606       39.813       70.575       54.935       51.657     4980.863     3017.861     2668.404        0.955        0.533       82.738       43.270        0.274      341.227       15.794      872.128
03/15/2014  12:37:00       21.366       50.470       82.862       50.528       97.366       56.061     2553.065     9480.132     3142.869        1.252        0.759       54.806       62.552        1.303      341.624       16.465      872.127
03/15/2014  12:38:00       81.955       81.695       63.657       78.586       66.749       47.912     6175.749     4455.390     2295.547        1.518        0.646      115.718       44.006        0.145      341.438       16.151      872.123
03/15/2014  12:39:00       81.848      128.962      124.269       87.845       86.950       82.509     7716.813     7560.224     6807.801        3.042        1.104      152.743       67.900        0.198      341.260       15.848      872.108
03/15/2014  12:40:00      116.221       90.647       93.217      115.057       88.919       74.375    13238.053     7906.654     5531.657        2.854        1.334      147.391       61.348        0.173      340.902       15.243      872.105
03/15/2014  12:41:00       66.104       85.381       74.321       84.408       71.014       45.694     7124.642     5042.951     2087.923        1.572        0.713      107.980       25.563        0.056      341.311       15.935      872.104
03/15/2014  12:42:00       31.404      -18.482       12.417       60.758       88.656       45.043     3691.577     7859.873     2028.882        0.753        0.679       36.439       40.958        1.263      341.048       15.490      872.107
03/15/2014  12:43:00       48.224      -36.288        7.801       85.952       74.624       49.114     7387.743     5568.811     2412.157        0.953        0.768       60.352       49.819        0.681      340.952       15.329      872.097
03/15/2014  12:44:00       -3.653       28.294       -3.094       50.706       41.840       27.907     2571.137     1750.606      778.806        0.296        0.255       28.529       24.274        0.724      341.072       15.531      872.089
03/15/2014  12:45:00       42.586       81.016       92.981       47.182       46.857       55.952     2226.143     2195.594     3130.612        1.229        0.378       91.527       44.620        0.238      341.140       15.645      872.094
03/15/2014  12:46:00       44.408       70.556       47.582       71.174       60.258       55.930     5065.780     3631.067     3128.220        1.052        0.591       83.368       19.729        0.056      341.069       15.525      872.086
03/15/2014  12:47:00      258.505      153.782       49.412       85.504       68.624       68.277     7310.947     4709.214     4661.779        5.480        0.834      300.788       51.921        0.030      341.275       15.871      872.075
03/15/2014  12:48:00      263.514      176.110       41.090      114.167       91.315       73.645    13034.131     8338.508     5423.568        6.446        1.340      316.945       35.770        0.013      340.881       15.205      872.081
03/15/2014  12:49:00      272.665      175.560       43.204       82.173       62.081       66.045     6752.344     3854.088     4361.980        6.100        0.748      324.296       46.311        0.020      340.570       14.677      872.075
03/15/2014  12:50:00      187.600       84.007       23.872       91.055       70.081       67.947     8290.928     4911.410     4616.792        3.032        0.891      205.550       39.998        0.038      340.766       15.010      872.067
03/15/2014  12:51:00      198.415      127.084       24.289       87.043       74.138       64.811     7576.467     5496.510     4200.438        3.669        0.864      235.624       20.912        0.008      340.984       15.379      872.033
03/15/2014  12:52:00      163.412      107.132       79.386      107.873       84.166       70.169    11636.537     7083.864     4923.744        3.406        1.182      195.399       48.562        0.062      341.395       16.076      872.017
03/15/2014  12:53:00       38.419       38.170       49.216       75.342       78.467       52.848     5676.421     6157.146     2792.871        0.999        0.731       54.157       33.357        0.379      341.738       16.658      871.995
03/15/2014  12:54:00      110.653      111.181      132.700      112.547       80.587       72.177    12666.808     6494.256     5209.471        3.329        1.219      156.861       53.481        0.116      341.317       15.944      871.976
03/15/2014  12:55:00      181.811      131.855      125.253      120.285       81.656       77.745    14468.441     6667.738     6044.252        4.665        1.359      224.591       69.350        0.095      341.004       15.412      871.964
03/15/2014  12:56:00      178.933      104.884       43.066      126.949      102.483       64.577    16116.019    10502.839     4170.177        3.782        1.539      207.407       46.580        0.050      341.423       16.121      871.968
03/15/2014  12:57:00      240.252      191.926       67.641       82.827       59.432       71.395     6860.369     3532.112     5097.239        5.731        0.774      307.501       47.124        0.023      340.755       14.991      871.965
03/15/2014  12:58:00      173.877       88.664       -0.528      116.274       78.441       51.874    13519.643     6153.035     2690.940        3.022        1.118      195.179       30.496        0.024      340.660       14.831      871.938
03/15/2014  12:59:00      155.854       81.737        6.235       72.294       47.528       48.094     5226.449     2258.915     2313.066        2.040        0.490      175.987       32.867        0.035      340.986       15.385      871.911
03/15/2014  13:00:00      144.489       56.088       57.021      138.325       81.173       67.447    19133.897     6589.117     4549.129        2.877        1.514      154.994       49.141        0.101      341.223       15.785      871.869
03/15/2014  13:01:00      169.874      134.323      116.569      125.595       83.863       91.536    15774.009     7032.991     8378.854        4.583        1.559      216.563       73.878        0.116      341.460       16.186      871.858
03/15/2014  13:02:00      166.924       91.109       98.587       99.675       91.331       85.157     9935.149     8341.263     7251.635        3.570        1.276      190.169       61.304        0.104      341.175       15.702      871.867
03/15/2014  13:03:00       77.203      -74.186       28.216       86.981      107.887       66.686     7565.667    11639.498     4447.045        1.795        1.183      107.070       61.164        0.326      341.532       16.309      871.855
03/15/2014  13:04:00      114.689       49.665       75.949      122.125      120.124       82.821    14914.461    14429.883     6859.390        2.879        1.810      124.981       74.084        0.351      341.356       16.011      871.833
03/15/2014  13:05:00      105.581      122.299      124.703      119.789      111.587       77.439    14349.427    12451.605     5996.805        3.722        1.640      161.568       72.701        0.202      341.296       15.909      871.821
03/15/2014  13:06:00       88.199       88.438      120.299       97.650      124.271       77.462     9535.506    15443.259     6000.422        3.052        1.549      124.902       75.688        0.367      341.466       16.196      871.815
03/15/2014  13:07:00       50.077      107.558      127.679       85.176       98.173       73.010     7254.963     9637.985     5330.474        2.630        1.111      118.645       62.623        0.279      341.424       16.124      871.829
03/15/2014  13:08:00      112.810       71.805       61.419       86.296       77.758       54.683     7446.934     6046.246     2990.256        1.907        0.824      133.723       42.878        0.103      341.088       15.558      871.833
03/15/2014  13:09:00      227.017      155.747       35.424      103.759       72.580       68.694    10765.884     5267.864     4718.903        4.890        1.038      275.306       54.629        0.039      341.218       15.774      871.809
03/15/2014  13:10:00      187.390      115.918       25.030      120.312       95.557       74.262    14474.919     9131.233     5514.829        3.914        1.456      220.345       42.422        0.037      341.319       15.946      871.806
03/15/2014  13:11:00      158.386       94.427       45.280       98.008       84.917       68.161     9605.608     7210.851     4645.970        2.875        1.073      184.398       49.491        0.072      341.416       16.112      871.791
03/15/2014  13:12:00      148.405       89.387       47.133      120.760       95.189       70.970    14582.988     9060.903     5036.685        3.045        1.434      173.246       57.924        0.112      341.326       15.959      871.766
03/15/2014  13:13:00      239.403      160.665       68.933      122.278       74.900       74.356    14951.943     5609.943     5528.884        5.698        1.305      288.317       69.447        0.058      341.188       15.723      871.748
03/15/2014  13:14:00      197.052      154.172       32.292       78.143       85.828       70.684     6106.390     7366.505     4996.279        4.105        0.923      250.196       28.169        0.013      341.544       16.325      871.728
03/15/2014  13:15:00      192.229      155.570       15.020      115.205       85.905       65.953    13272.191     7379.635     4349.790        4.319        1.250      247.293       41.718        0.028      341.131       15.628      871.722
03/15/2014  13:16:00      180.440      129.729       21.532       96.714       67.888       65.708     9353.555     4608.736     4317.551        3.406        0.914      222.235       33.392        0.023      341.057       15.504      871.720
03/15/2014  13:17:00      102.243      108.879       20.454       86.536       88.514       65.792     7488.554     7834.709     4328.544        2.119        0.983      149.360       51.361        0.118      341.201       15.746      871.695
03/15/2014  13:18:00      180.756      127.347       17.186       67.840       62.712       51.691     4602.316     3932.786     2671.992        3.019        0.560      221.110       28.998        0.017      341.222       15.782      871.679
03/15/2014  13:19:00      101.717       73.173        4.963       77.771       45.114       52.590     6048.361     2035.302     2765.693        1.329        0.542      125.302       19.574        0.024      341.617       16.454      871.668
03/15/2014  13:20:00      121.023       43.749       15.871       65.583       49.243       46.172     4301.091     2424.895     2131.888        1.283        0.443      128.688       34.967        0.074      341.696       16.587      871.655
03/15/2014  13:21:00      102.184       75.149       10.905       81.824       78.377       42.414     6695.242     6142.913     1798.913        1.542        0.732      126.842       22.232        0.031      341.492       16.241      871.639
03/15/2014  13:22:00      255.668      131.272       34.957      104.869       84.064       55.982    10997.420     7066.687     3133.973        5.251        1.060      287.400       26.469        0.008      341.171       15.697      871.625
03/15/2014  13:23:00       89.575       91.131       30.789       92.678       52.487       47.759     8589.217     2754.899     2280.967        1.545        0.681      127.783       33.544        0.069      341.238       15.810      871.623
03/15/2014  13:24:00      155.545      154.304      120.434       83.239       82.841       94.774     6928.677     6862.639     8982.074        4.264        1.139      219.098       65.661        0.090      341.349       15.996      871.580
03/15/2014  13:25:00      152.571      110.573       97.012      104.056       79.543       88.346    10827.716     6327.013     7804.997        3.493        1.248      188.426       71.192        0.143      341.405       16.091      871.558
03/15/2014  13:26:00      180.003       69.842       25.157       75.167       66.325       54.492     5650.097     4399.071     2969.431        2.546        0.651      193.078       38.647        0.040      341.435       16.143      871.541
03/15/2014  13:27:00       72.944       61.176       56.853       72.032       61.277       48.247     5188.594     3754.891     2327.810        1.178        0.564       95.201       22.931        0.058      341.666       16.537      871.520
03/15/2014  13:28:00       74.742       34.455       61.959       84.858       88.315       59.859     7200.864     7799.517     3583.047        1.459        0.929       82.301       61.457        0.558      341.566       16.366      871.505
03/15/2014  13:29:00      132.557     -163.720       -7.372      102.703      106.046       59.595    10547.919    11245.709     3551.600        3.488        1.267      210.655       59.831        0.081      341.320       15.949      871.476
03/15/2014  13:30:00       48.972      -80.569       -3.429       52.199       52.829       43.966     2724.728     2790.911     1933.022        0.817        0.372       94.285        9.548        0.010      341.428       16.134      871.484
03/15/2014  13:31:00       64.375       49.319       18.931       49.641       42.565       34.587     2464.272     1811.764     1196.250        0.620        0.274       81.096       27.565        0.116      342.052       17.191      871.466
03/15/2014  13:32:00      170.756      130.849       81.806       87.117       60.437       55.537     7589.402     3652.677     3084.376        3.365        0.716      215.126       48.230        0.050      341.282       15.883      871.472
03/15/2014  13:33:00       93.598       13.612        6.031       63.617       49.509       35.486     4047.087     2451.105     1259.221        0.837        0.388       94.583       19.426        0.042      341.020       15.442      871.476
03/15/2014  13:34:00       93.602       38.103       64.692       63.785       72.587       45.001     4068.506     5268.879     2025.045        1.288        0.568      101.060       37.966        0.141      341.300       15.916      871.458
03/15/2014  13:35:00      114.457       85.693       62.204       47.621       50.509       51.817     2267.776     2551.125     2684.997        1.591        0.375      142.981       37.042        0.067      341.126       15.624      871.451
03/15/2014  13:36:00       91.346       71.062       54.991       64.535       52.452       48.656     4164.754     2751.210     2367.389        1.285        0.464      115.732       49.010        0.179      341.517       16.285      871.433
03/15/2014  13:37:00      114.604      -72.091       30.046       69.134       85.399       45.632     4779.533     7293.026     2082.246        1.669        0.708      135.393       43.170        0.102      341.411       16.105      871.420
03/15/2014  13:38:00       35.968      -34.098       18.019       28.509       32.854       27.901      812.788     1079.357      778.479        0.273        0.134       49.562       25.256        0.260      341.373       16.041      871.421
03/15/2014  13:39:00       49.588       10.842       25.977       53.328       42.329       29.515     2843.893     1791.749      871.126        0.438        0.275       50.759       20.186        0.158      341.390       16.070      871.413
03/15/2014  13:40:00      193.595       95.878       60.755      120.090      112.074       96.485    14421.623    12560.554     9309.422        4.332        1.815      216.036       79.766        0.136      341.417       16.113      871.385
03/15/2014  13:41:00      177.800      128.008       12.599      107.338       77.088       68.779    11521.539     5942.556     4730.616        3.517        1.110      219.087       43.741        0.040      341.384       16.057      871.366
03/15/2014  13:42:00      143.665      112.775       17.455       73.773       54.055       58.129     5442.499     2921.991     3378.964        2.270        0.587      182.641       31.430        0.030      341.549       16.336      871.362
03/15/2014  13:43:00      172.034      117.821       26.047       94.334       73.049       55.448     8898.915     5336.181     3074.473        3.073        0.865      208.513       36.775        0.031      341.586       16.398      871.333
03/15/2014  13:44:00       57.940       63.629       73.355       70.496       51.192       60.120     4969.721     2620.629     3614.355        1.199        0.560       86.056       47.569        0.306      342.124       17.314      871.314
03/15/2014  13:45:00       28.212       25.831       13.663       78.114       57.684       38.206     6101.867     3327.449     1459.666        0.627        0.544       38.251       16.937        0.196      342.320       17.646      871.304
03/15/2014  13:46:00       28.308       95.008      103.589       74.213       82.748       92.569     5507.623     6847.160     8569.061        2.074        1.046       99.135       73.220        0.546      342.267       17.556      871.285
03/15/2014  13:47:00       10.547       35.863       53.758       68.134      103.147       71.306     4642.264    10639.367     5084.584        1.232        1.018       37.382       53.932        2.081      342.308       17.626      871.273
03/15/2014  13:48:00      177.779      114.638       78.380      144.302       71.358       85.539    20823.113     5091.945     7316.907        4.205        1.662      211.535       94.379        0.199      341.713       16.614      871.265
03/15/2014  13:49:00      104.772       76.773       44.821       99.959       59.039       52.049     9991.845     3485.639     2709.144        1.753        0.809      129.889       13.150        0.010      341.845       16.840      871.268
03/15/2014  13:50:00      109.333       83.544       49.624       83.407       58.198       48.378     6956.660     3387.032     2340.416        1.704        0.634      137.598       28.776        0.044      341.971       17.055      871.252
03/15/2014  13:51:00       78.852       40.011       79.685       81.962      138.359       99.866     6717.730    19143.274     9973.165        2.499        1.792       88.423      103.274        1.364      342.027       17.148      871.249
03/15/2014  13:52:00       81.402      132.433      152.387       90.993      101.273       78.022     8279.761    10256.259     6087.492        3.600        1.231      155.450       70.774        0.207      341.635       16.481      871.258
03/15/2014  13:53:00      225.034       25.143       35.565       65.582      126.877       64.211     4301.022    16097.726     4123.063        3.852        1.226      226.434       43.824        0.037      341.455       16.174      871.261
03/15/2014  13:54:00       85.838       68.919       38.112       66.304       40.947       41.634     4396.261     1676.681     1733.375        1.069        0.390      110.081       39.076        0.126      341.617       16.454      871.252
03/15/2014  13:55:00       25.615       46.822        2.547       31.334       29.210       41.733      981.799      853.200     1741.620        0.322        0.179       53.371       22.018        0.170      341.832       16.820      871.235
03/15/2014  13:56:00       82.417      -70.219       -2.774       82.841       86.790       43.982     6862.630     7532.543     1934.383        1.403        0.816      108.274       50.510        0.218      341.711       16.612      871.235
03/15/2014  13:57:00       54.828     -131.672      -15.811       47.528       48.497       24.456     2258.951     2351.987      598.073        1.290        0.260      142.631       16.022        0.013      341.247       15.828      871.236
03/15/2014  13:58:00      -86.527      -40.108       -1.920      106.235       89.725       51.931    11285.792     8050.615     2696.871        1.556        1.102       95.370       66.892        0.492      341.852       16.853      871.178
03/15/2014  13:59:00      113.967      138.874      115.366      103.745       79.729       70.102    10763.101     6356.674     4914.296        3.380        1.102      179.651       69.292        0.149      341.744       16.666      871.198
03/15/2014  14:00:00       68.383       45.734       59.842       70.275       57.819       43.321     4938.582     3343.032     1876.733        1.025        0.508       82.267       39.490        0.230      341.747       16.673      871.206
03/15/2014  14:01:00      138.553       69.611       49.235      118.282       98.210       61.643    13990.689     9645.174     3799.806        2.695        1.372      155.056       57.275        0.136      341.859       16.863      871.178
03/15/2014  14:02:00       52.786      -15.137       33.517       52.484       61.907       50.648     2754.612     3832.526     2565.189        0.664        0.458       54.913       43.888        0.639      341.730       16.646      871.171
03/15/2014  14:03:00       49.791      -41.574       16.665       52.694       62.521       28.213     2776.636     3908.863      795.987        0.598        0.374       64.865       28.462        0.193      341.740       16.663      871.149
03/15/2014  14:04:00       58.969       69.642       68.858       84.379       54.947       56.336     7119.770     3019.195     3173.717        1.319        0.666       91.254       42.519        0.217      342.097       17.268      871.128
03/15/2014  14:05:00       88.057       17.277       39.291       72.880       52.514       49.259     5311.532     2757.759     2426.404        1.004        0.525       89.736       49.739        0.307      341.735       16.655      871.105
03/15/2014  14:06:00       44.215       21.384       14.160       23.618       29.087       36.318      557.816      846.060     1318.995        0.267        0.136       49.115       20.576        0.176      341.969       17.051      871.081
03/15/2014  14:07:00       18.720        0.687        6.783       31.729       53.904       28.477     1006.727     2905.681      810.967        0.256        0.236       18.733       19.567        1.091      342.422       17.820      871.063
03/15/2014  14:08:00        3.308       11.419       43.183       31.444       58.672       29.662      988.703     3442.410      879.859        0.366        0.266       11.889       30.506        6.584      342.548       18.035      871.041
03/15/2014  14:09:00      109.196       48.399       63.319       52.768       57.226       49.991     2784.474     3274.769     2499.068        1.342        0.428      119.441       30.751        0.066      341.882       16.903      871.033
03/15/2014  14:10:00      105.320       79.396       34.320       45.373       38.019       41.783     2058.670     1445.478     1745.798        1.191        0.262      131.894       24.948        0.036      341.545       16.331      871.022
03/15/2014  14:11:00       59.279       28.665       17.302       23.038       34.756       32.719      530.752     1207.974     1070.540        0.372        0.140       65.845       16.929        0.066      341.809       16.779      870.990
03/15/2014  14:12:00       10.817       -1.184        5.326       38.466       33.996       23.259     1479.608     1155.748      540.971        0.166        0.159       10.882       22.399        4.237      341.889       16.915      870.978
03/15/2014  14:13:00      -12.708       41.056       14.427       34.971       28.961       28.902     1222.951      838.727      835.310        0.248        0.145       42.978       27.821        0.419      342.163       17.380      870.955
03/15/2014  14:14:00       19.057       55.258      -11.988       30.136       39.545       23.496      908.173     1563.804      552.082        0.329        0.151       58.452       19.047        0.106      342.079       17.239      870.936
03/15/2014  14:15:00      -27.200      112.342       -4.395       28.930       56.528       27.909      836.935     3195.433      778.895        0.909        0.241      115.588       28.535        0.061      341.888       16.914      870.922
03/15/2014  14:16:00       -3.296       17.656        6.894       20.503       36.125       19.715      420.375     1305.045      388.664        0.124        0.106       17.961       18.954        1.114      342.159       17.375      870.900
03/15/2014  14:17:00       20.868      -55.384       22.783       52.852       35.777       36.958     2793.351     1280.008     1365.859        0.473        0.272       59.185       38.506        0.423      341.916       16.962      870.862
03/15/2014  14:18:00       14.229      -43.674       20.910       32.191       31.177       28.297     1036.250      972.033      800.731        0.268        0.140       45.934       21.410        0.217      342.200       17.445      870.834
03/15/2014  14:19:00      -31.956       39.205       -7.928       36.892       48.017       22.078     1360.985     2305.633      487.435        0.339        0.208       50.579       18.285        0.131      342.364       17.721      870.806
03/15/2014  14:20:00       37.834      108.542        6.192       65.320       81.453       47.300     4266.767     6634.639     2237.301        1.319        0.657      114.947       43.182        0.141      342.334       17.670      870.798
03/15/2014  14:21:00       27.637      167.605      -22.857       53.477       87.250       45.486     2859.763     7612.529     2068.975        2.096        0.627      169.869       43.644        0.066      341.686       16.570      870.782
03/15/2014  14:22:00      -17.371       96.279       -0.539       51.230       57.557       37.742     2624.541     3312.798     1424.487        0.847        0.368       97.833       35.264        0.130      342.297       17.607      870.756
03/15/2014  14:23:00       21.932      130.498       -7.864       47.775       68.108       43.092     2282.495     4638.693     1856.885        1.317        0.439      132.328       42.596        0.104      342.366       17.725      870.737
03/15/2014  14:24:00       56.736       97.189        1.798       55.278       70.807       42.264     3055.659     5013.645     1786.262        1.126        0.493      112.538       41.810        0.138      342.087       17.250      870.722
03/15/2014  14:25:00       -6.944      160.259      -27.864       37.612       48.198       28.098     1414.657     2323.088      789.491        1.552        0.226      160.410       19.048        0.014      341.939       17.001      870.714
03/15/2014  14:26:00      -42.373       65.240      -10.762       37.973       30.041       25.467     1441.940      902.474      648.573        0.458        0.150       77.793       19.519        0.063      342.059       17.204      870.699
03/15/2014  14:27:00       -4.669       75.541        7.586       76.660       71.771       41.054     5876.816     5151.101     1685.398        0.925        0.636       75.685       19.488        0.066      342.464       17.893      870.695
03/15/2014  14:28:00      191.100      130.712       13.715      103.748       85.890       53.424    10763.744     7377.177     2854.159        3.739        1.050      231.527       34.050        0.022      341.985       17.074      870.685
03/15/2014  14:29:00       81.882       46.359       22.106       77.043       47.392       42.951     5935.602     2246.031     1844.755        0.968        0.501       94.095       28.761        0.093      342.308       17.627      870.677
03/15/2014  14:30:00      -44.174       94.205      -25.799       66.665       35.480       27.008     4444.164     1258.808      729.424        0.896        0.322      104.048       28.487        0.075      341.858       16.862      870.671
03/15/2014  14:31:00      -55.764       61.585       -2.071       47.014       34.108       29.228     2210.287     1163.364      854.254        0.557        0.211       83.080       14.901        0.032      342.119       17.307      870.661
03/15/2014  14:32:00      141.704      121.117       29.273       92.616       56.416       54.336     8577.684     3182.785     2952.393        2.516        0.736      186.412       44.878        0.058      342.061       17.204      870.657
03/15/2014  14:33:00      170.423       90.203       48.107      111.317       73.152       64.309    12391.446     5351.247     4135.589        3.068        1.094      192.823       57.359        0.088      342.156       17.366      870.625
03/15/2014  14:34:00      244.123      177.815       63.779      103.052       75.859       78.385    10619.784     5754.553     6144.226        5.890        1.126      302.017       65.276        0.047      342.358       17.707      870.617
03/15/2014  14:35:00      206.484      145.868       89.813      121.626       89.349       85.432    14792.858     7983.195     7298.682        5.102        1.504      252.811       74.952        0.088      342.182       17.408      870.592
03/15/2014  14:36:00      168.764       87.818       14.150      107.995       67.949       58.464    11662.981     4617.081     3418.051        2.804        0.985      190.245       29.147        0.023      342.202       17.445      870.604
03/15/2014  14:37:00       44.882      184.064      -21.716       65.936       92.082       42.726     4347.523     8479.074     1825.504        2.551        0.733      189.457       39.376        0.043      342.339       17.677      870.604
03/15/2014  14:38:00       12.125      117.054       -6.091       67.162       87.165       42.407     4510.748     7597.782     1798.331        1.389        0.695      117.681       44.290        0.142      342.308       17.625      870.597
03/15/2014  14:39:00       66.352      141.559      -11.179       77.456       83.681       56.035     5999.406     7002.483     3139.866        2.035        0.807      156.338       47.461        0.092      342.177       17.401      870.583
03/15/2014  14:40:00      115.142      115.172       10.370       66.508       62.616       51.739     4423.372     3920.767     2676.966        1.882        0.551      162.857       34.378        0.045      342.025       17.144      870.565
03/15/2014  14:41:00       24.908      135.256      -12.383       55.007       70.842       48.668     3025.740     5018.568     2368.526        1.474        0.521      137.530       37.743        0.075      342.140       17.341      870.550
03/15/2014  14:42:00      136.546      119.952        4.134       81.471       45.993       45.338     6637.585     2115.396     2055.543        2.193        0.540      181.751       30.417        0.028      341.968       17.047      870.541
03/15/2014  14:43:00       48.389       53.988        5.686       67.638       57.209       25.735     4574.923     3272.888      662.283        0.690        0.426       72.500       23.249        0.103      342.296       17.606      870.519
03/15/2014  14:44:00       63.442       55.927       28.535       62.206       46.188       40.480     3869.539     2133.314     1638.620        0.780        0.382       84.574       28.943        0.117      342.469       17.901      870.503
03/15/2014  14:45:00       80.756       57.879       14.226       34.116       33.208       38.308     1163.886     1102.790     1467.502        0.690        0.187       99.355       23.068        0.054      342.339       17.681      870.515
03/15/2014  14:46:00       81.082       53.089       25.015       35.873       36.207       35.278     1286.895     1310.965     1244.568        0.693        0.192       96.917       17.736        0.033      342.323       17.652      870.505
03/15/2014  14:47:00        2.171       14.570       32.038       29.635       31.812       25.416      878.220     1012.024      645.956        0.189        0.127       14.731       12.744        0.748      343.047       18.884      870.488
03/15/2014  14:48:00       38.310       16.765        9.901       46.320       64.328       38.125     2145.505     4138.029     1453.489        0.479        0.387       41.818       29.994        0.514      342.643       18.197      870.484
03/15/2014  14:49:00       47.366       27.849       25.910       73.743       59.330       53.062     5438.065     3520.014     2815.528        0.773        0.589       54.947       49.394        0.808      342.485       17.928      870.477
03/15/2014  14:50:00      234.842      178.840      122.561      136.358      100.929       98.753    18593.463    10186.731     9752.243        7.034        1.927      295.186       75.663        0.066      342.210       17.457      870.442
03/15/2014  14:51:00      119.620      173.588      152.067      116.483      101.657       88.983    13568.308    10334.192     7917.939        4.969        1.591      210.812       66.637        0.100      342.380       17.746      870.467
03/15/2014  14:52:00      208.795      183.568      121.560      106.911       93.341       75.215    11429.878     8712.552     5657.334        5.893        1.290      278.016       61.491        0.049      342.216       17.468      870.493
03/15/2014  14:53:00      159.544       84.550       53.266       81.064       59.019       52.564     6571.435     3483.260     2763.002        2.413        0.641      180.563       45.209        0.063      342.050       17.188      870.521
03/15/2014  14:54:00      190.074      142.543       33.644       66.370       67.094       42.829     4405.034     4501.623     1834.285        3.416        0.537      237.585       30.171        0.016      342.090       17.252      870.512
03/15/2014  14:55:00      110.659       85.749       71.566       75.075       59.011       57.822     5636.225     3482.287     3343.424        1.859        0.623      139.994       52.914        0.143      342.812       18.484      870.516
03/15/2014  14:56:00       38.639       83.811       92.358       65.562       73.651       60.754     4298.348     5424.510     3691.106        1.523        0.671       92.289       57.987        0.395      342.781       18.430      870.536
03/15/2014  14:57:00       99.586      -57.841       79.784      106.279      170.267       96.646    11295.313    28990.879     9340.413        3.462        2.481      115.164      127.138        1.219      342.490       17.934      870.536
03/15/2014  14:58:00      138.104      -47.324       34.644       67.218      131.488       71.191     4518.208    17289.043     5068.148        2.469        1.344      145.987       78.303        0.288      342.415       17.806      870.541
03/15/2014  14:59:00       88.658       22.787       61.764       75.540       93.928       57.910     5706.229     8822.527     3353.578        1.503        0.894       91.540       55.449        0.367      342.442       17.855      870.547
03/15/2014  15:00:00       30.622      -68.387       -1.725       70.679       28.819       27.709     4995.560      830.536      767.794        0.610        0.330       74.930       17.579        0.055      342.122       17.310      870.545
03/15/2014  15:01:00        0.889      -20.364       32.400       45.909       42.967       38.389     2107.591     1846.156     1473.738        0.345        0.271       20.383       32.475        2.538      342.807       18.475      870.501
03/15/2014  15:02:00       23.444        0.758       43.042       33.369       29.929       29.667     1113.465      895.735      880.102        0.265        0.144       23.456       28.606        1.487      342.554       18.044      870.505
03/15/2014  15:03:00       73.628       77.152       48.195       68.564       41.714       50.719     4701.014     1740.078     2572.423        1.135        0.451      106.647       35.775        0.113      342.475       17.910      870.505
03/15/2014  15:04:00      127.696       83.652       70.998       72.819       69.878       53.635     5302.653     4882.957     2876.738        2.070        0.653      152.656       41.996        0.076      342.360       17.714      870.510
03/15/2014  15:05:00       73.594       97.878       -0.358       55.668       53.508       45.245     3098.934     2863.107     2047.138        1.150        0.400      122.459       32.605        0.071      342.375       17.740      870.504
03/15/2014  15:06:00      102.150       85.446       12.826       42.045       30.705       36.047     1767.815      942.798     1299.385        1.095        0.200      133.175       15.375        0.013      342.223       17.482      870.492
03/15/2014  15:07:00       13.600       38.608       -5.341       47.718       47.029       25.558     2277.027     2211.694      653.188        0.342        0.257       40.933       18.852        0.212      342.581       18.092      870.489
03/15/2014  15:08:00       15.506       -5.820        0.838       45.808       32.643       18.872     2098.416     1065.570      356.139        0.190        0.176       16.563       20.874        1.588      342.909       18.650      870.500
03/15/2014  15:09:00       11.391      -93.573      -13.760       33.312       55.863       19.788     1109.710     3120.628      391.582        0.685        0.231       94.264       11.849        0.016      342.695       18.283      870.505
03/15/2014  15:10:00      -25.762      -84.498      -12.518       27.356       35.580       21.342      748.324     1265.923      455.478        0.521        0.123       88.338       18.157        0.042      342.516       17.980      870.491
03/15/2014  15:11:00       12.861       22.099       18.336       38.885       59.440       25.662     1512.069     3533.090      658.531        0.335        0.285       25.569       13.318        0.271      343.015       18.829      870.479
03/15/2014  15:12:00      127.305       85.043       17.654       42.906       48.728       50.368     1840.967     2374.459     2536.912        1.525        0.338      153.097       23.016        0.023      342.286       17.591      870.472
03/15/2014  15:13:00      122.890       66.228        2.326       62.609       47.494       38.573     3919.827     2255.668     1487.889        1.358        0.383      139.600       10.110        0.005      342.371       17.732      870.474
03/15/2014  15:14:00       64.859       29.702       18.426       52.945       59.305       36.531     2803.222     3517.044     1334.547        0.654        0.383       71.336       33.214        0.217      342.686       18.268      870.475
03/15/2014  15:15:00       22.986       55.126      -14.220       48.750       50.612       30.327     2376.531     2561.617      919.722        0.481        0.293       59.726       20.540        0.118      342.412       17.804      870.486
03/15/2014  15:16:00       -3.966        1.802        9.750       31.747       27.239       22.028     1007.880      741.955      485.212        0.117        0.112        4.356       15.637       12.888      342.875       18.590      870.479
03/15/2014  15:17:00       87.041       63.530        8.761       50.782       46.167       38.353     2578.818     2131.397     1470.964        0.893        0.309      107.760       31.596        0.086      342.648       18.204      870.472
03/15/2014  15:18:00       74.645       52.911       57.986       78.325       57.846       57.557     6134.860     3346.159     3312.778        1.226        0.640       91.495       48.827        0.285      342.847       18.542      870.472
03/15/2014  15:19:00       28.729       92.844       89.364       89.490       71.085       67.551     8008.419     5053.062     4563.123        1.752        0.881       97.187       59.910        0.380      342.789       18.442      870.453
03/15/2014  15:20:00      136.035      113.337       90.435      106.003       93.759       90.988    11236.565     8790.809     8278.794        3.391        1.415      177.062       67.327        0.145      342.722       18.327      870.457
03/15/2014  15:21:00      110.027       54.371       36.230       85.009       54.518       57.697     7226.598     2972.184     3328.923        1.495        0.676      122.728       48.224        0.154      342.906       18.642      870.476
03/15/2014  15:22:00       27.182       87.110       57.264       52.142       54.753       68.773     2718.836     2997.892     4729.731        1.102        0.522       91.253       41.025        0.202      342.791       18.448      870.461
03/15/2014  15:23:00       54.333       97.072        9.540       83.770       73.477       51.198     7017.337     5398.930     2621.274        1.375        0.752      111.243       44.094        0.157      342.603       18.126      870.468
03/15/2014  15:24:00       44.457       50.750       -6.115       43.907       43.339       25.078     1927.810     1878.227      628.919        0.451        0.222       67.468       23.262        0.119      342.792       18.450      870.479
03/15/2014  15:25:00       93.003       60.248       35.908       85.995       69.837       46.266     7395.142     4877.151     2140.560        1.399        0.721      110.812       28.370        0.066      343.004       18.809      870.472
03/15/2014  15:26:00       68.555       31.421       51.268       72.530       87.055       48.224     5260.571     7578.549     2325.592        1.174        0.758       75.413       38.718        0.264      342.893       18.621      870.477
03/15/2014  15:27:00       70.201       66.176       55.966       67.087       52.052       38.427     4500.674     2709.370     1476.613        1.056        0.434       96.475       29.816        0.096      342.938       18.699      870.484
03/15/2014  15:28:00      104.450       60.922        5.097       71.599       41.283       40.251     5126.398     1704.274     1620.139        1.155        0.423      120.919       26.653        0.049      342.467       17.896      870.496
03/15/2014  15:29:00      187.587      108.769       20.948      120.403       71.274       44.924    14496.897     5080.052     2018.138        3.452        1.080      216.840       30.284        0.020      342.517       17.980      870.488
03/15/2014  15:30:00       72.037       66.153       21.032       82.938       69.451       33.365     6878.751     4823.484     1113.246        1.141        0.641       97.803       34.194        0.122      342.537       18.014      870.498
03/15/2014  15:31:00       90.230       79.780        0.132       58.711       43.933       39.461     3447.010     1930.137     1557.185        1.072        0.347      120.442       23.806        0.039      342.556       18.048      870.507
03/15/2014  15:32:00      118.276       56.877       22.463       71.665       51.580       44.658     5135.874     2660.466     1994.333        1.376        0.490      131.241       14.925        0.013      342.746       18.371      870.516
03/15/2014  15:33:00       39.511       53.066       89.085       71.266       57.229       39.616     5078.864     3275.113     1569.436        1.112        0.496       66.160       38.899        0.346      343.208       19.158      870.509
03/15/2014  15:34:00       14.479       28.793       75.168       54.379       59.513       44.196     2957.088     3541.854     1953.250        0.757        0.423       32.229       34.128        1.121      343.302       19.317      870.516
03/15/2014  15:35:00       38.051       87.654       90.308       64.911       59.625       48.636     4213.402     3555.173     2365.423        1.371        0.507       95.557       37.493        0.154      342.920       18.668      870.530
03/15/2014  15:36:00       54.693       54.861       40.566       53.694       36.094       33.567     2883.019     1302.810     1126.719        0.648        0.266       77.467       33.186        0.184      342.827       18.511      870.532
03/15/2014  15:37:00       82.459       34.312       31.983       45.082       33.451       26.509     2032.400     1118.945      702.717        0.643        0.193       89.313       16.105        0.033      342.654       18.215      870.523
03/15/2014  15:38:00       27.075       34.425       18.847       41.848       30.964       33.552     1751.263      958.765     1125.746        0.305        0.192       43.796       19.807        0.205      342.830       18.513      870.509
03/15/2014  15:39:00       -4.501       68.109      -20.749       19.140       31.571       16.046      366.330      996.743      257.481        0.335        0.081       68.258       17.154        0.063      342.416       17.809      870.509
03/15/2014  15:40:00      -12.293       47.203       -5.146       36.215       26.287       28.407     1311.554      691.028      806.983        0.261        0.140       48.777       14.469        0.088      342.698       18.289      870.505
03/15/2014  15:41:00      -95.531       37.100      -13.987       75.656       29.968       22.063     5723.901      898.059      486.768        0.890        0.355      102.482       13.468        0.017      342.834       18.521      870.485
03/15/2014  15:42:00     -148.566      -18.094       -3.772       74.204       83.192       39.580     5506.196     6920.985     1566.616        1.820        0.700      149.663       28.465        0.036      342.874       18.587      870.453
03/15/2014  15:43:00     -131.176       27.791       -0.374       79.605       49.259       28.486     6336.964     2426.426      811.456        1.378        0.479      134.088       29.854        0.050      343.027       18.849      870.442
03/15/2014  15:44:00      -34.850      -50.463       19.555       74.536       51.666       37.860     5555.590     2669.415     1433.393        0.690        0.483       61.327       48.153        0.617      343.094       18.964      870.437
03/15/2014  15:45:00     -116.710      -75.691        2.451       83.695       44.770       40.432     7004.872     2004.314     1634.725        1.500        0.532      139.106       28.302        0.041      342.872       18.586      870.425
03/15/2014  15:46:00     -167.611      -62.600      -11.523       57.918       46.022       29.951     3354.514     2118.068      897.063        1.926        0.318      178.919       23.910        0.018      342.735       18.351      870.410
03/15/2014  15:47:00     -156.468      -33.052      -10.082       39.811       41.607       25.616     1584.910     1731.159      656.205        1.482        0.199      159.921       18.891        0.014      342.790       18.447      870.412
03/15/2014  15:48:00      -99.250      -24.164        7.379       46.129       46.225       27.109     2127.914     2136.730      734.904        0.774        0.250      102.149       25.280        0.061      343.213       19.168      870.408
03/15/2014  15:49:00     -143.053      -32.345       -2.556       64.330       55.927       33.996     4138.413     3127.817     1155.742        1.497        0.421      146.664       29.018        0.039      343.144       19.049      870.369
03/15/2014  15:50:00      -58.582       17.056       28.145       80.819       60.419       41.312     6531.750     3650.460     1706.650        0.820        0.594       61.014       49.717        0.664      343.262       19.248      870.359
03/15/2014  15:51:00      161.782      118.940       28.112       89.654       59.594       63.949     8037.923     3551.423     4089.465        2.839        0.784      200.799       24.477        0.015      343.008       18.815      870.401
03/15/2014  15:52:00      206.937      111.519       31.490      131.119       68.598       50.625    17192.290     4705.704     2562.849        4.035        1.223      235.073       50.434        0.046      342.784       18.434      870.411
03/15/2014  15:53:00      127.351       63.646       32.673       71.379       49.212       57.316     5094.962     2421.840     3285.180        1.607        0.540      142.369       29.039        0.042      342.960       18.735      870.405
03/15/2014  15:54:00       68.378      165.031      166.038      106.072      108.266       83.108    11251.362    11721.590     6906.994        4.467        1.494      178.636       86.679        0.235      342.727       18.337      870.386
03/15/2014  15:55:00       53.849       81.250      144.583       87.161       99.931       67.518     7597.120     9986.295     4558.676        2.627        1.107       97.475       67.905        0.485      343.138       19.037      870.382
03/15/2014  15:56:00      152.120      134.125      120.462       83.433       85.590       62.717     6961.029     7325.640     3933.431        3.693        0.911      202.806       50.530        0.062      342.811       18.480      870.391
03/15/2014  15:57:00       50.667       97.561      111.489       77.410       53.671       50.495     5992.286     2880.543     2549.736        1.797        0.571      109.933       49.601        0.204      343.006       18.813      870.388
03/15/2014  15:58:00      110.631       45.035       64.137       51.769       69.839       45.982     2679.985     4877.533     2114.307        1.402        0.484      119.446       42.652        0.128      342.723       18.333      870.376
03/15/2014  15:59:00       26.100       81.466      109.326       48.282       52.278       33.335     2331.191     2733.019     1111.235        1.272        0.309       85.545       33.852        0.157      342.877       18.595      870.369
03/15/2014  16:00:00       27.944       63.070       81.352       37.672       82.470       58.547     1419.180     6801.232     3427.775        1.151        0.582       68.983       64.652        0.878      342.755       18.387      870.368
03/15/2014  16:01:00       30.812      -64.111       -7.677       26.213       18.797       18.454      687.106      353.320      340.546        0.325        0.069       71.131       12.918        0.033      342.641       18.192      870.352
03/15/2014  16:02:00       47.344      -11.663       24.150       45.216       68.671       40.286     2044.524     4715.729     1622.927        0.567        0.419       48.759       37.279        0.585      343.006       18.814      870.333
03/15/2014  16:03:00       85.834       61.964       18.093       38.537       26.500       28.990     1485.121      702.273      840.446        0.728        0.151      105.863       13.843        0.017      342.659       18.223      870.314
03/15/2014  16:04:00       41.677      -65.802        1.435       55.521       64.012       45.530     3082.539     4097.565     2072.975        0.766        0.463       77.890       36.498        0.220      343.091       18.959      870.295
03/15/2014  16:05:00      136.781     -156.347      -22.342       48.886       68.494       29.318     2389.865     4691.374      859.547        2.580        0.397      207.734       28.183        0.018      342.642       18.192      870.281
03/15/2014  16:06:00        2.779      -36.041       -4.665       29.825       28.607       24.443      889.525      818.383      597.438        0.182        0.115       36.148       11.586        0.103      342.770       18.413      870.289
03/15/2014  16:07:00       14.407      -30.287       20.371       29.750       33.588       22.706      885.082     1128.156      515.550        0.203        0.126       33.539       13.835        0.170      343.152       19.064      870.278
03/15/2014  16:08:00       92.686     -100.487       16.772       44.246       57.047       35.815     1957.684     3254.336     1282.686        1.273        0.325      136.705       28.330        0.043      342.897       18.630      870.276
03/15/2014  16:09:00        2.336       58.768       -4.251       65.878       38.040       44.916     4339.933     1447.057     2017.446        0.564        0.390       58.815       30.791        0.274      342.881       18.600      870.251
03/15/2014  16:10:00      -58.169      -20.227       -9.364       57.532       40.046       30.057     3309.938     1603.712      903.436        0.485        0.291       61.585       26.001        0.178      343.464       19.596      870.229
03/15/2014  16:11:00       -2.207      -25.183       24.548       63.142       50.824       28.930     3986.890     2583.066      836.952        0.432        0.370       25.280       26.087        1.065      343.338       19.380      870.233
03/15/2014  16:12:00       79.726      -43.270       15.838       81.504       98.987       55.345     6642.831     9798.408     3063.033        1.399        0.975       90.712       65.432        0.520      343.144       19.048      870.244
03/15/2014  16:13:00      189.952     -230.504      -32.218       53.322       62.284       28.943     2843.244     3879.353      837.694        4.890        0.378      298.687       15.825        0.003      342.636       18.180      870.236
03/15/2014  16:14:00      113.201     -176.671      -17.577       68.864       53.888       34.805     4742.187     2903.864     1211.390        2.659        0.443      209.826       35.770        0.029      342.749       18.373      870.244
03/15/2014  16:15:00       58.283      -91.964       35.031       59.918      142.634       61.269     3590.201    20344.477     3753.917        2.038        1.384      108.878       84.466        0.602      342.928       18.679      870.234
03/15/2014  16:16:00       82.000       83.172       94.656       63.985       75.790       56.376     4094.055     5744.116     3178.241        1.781        0.651      116.797       52.528        0.202      342.870       18.582      870.230
03/15/2014  16:17:00       27.385      -61.691        5.572       53.640      102.259       50.219     2877.224    10456.938     2521.967        1.022        0.793       67.496       61.335        0.826      343.282       19.284      870.222
03/15/2014  16:18:00       55.381      -73.825        2.861       80.239       78.911       54.848     6438.296     6227.024     3008.356        1.210        0.784       92.288       57.960        0.394      343.492       19.640      870.207
03/15/2014  16:19:00       80.385      -83.732       43.729      128.484      175.660       82.651    16508.241    30856.308     6831.133        3.478        2.710      116.073      117.448        1.024      343.526       19.698      870.201
03/15/2014  16:20:00      203.774     -179.735      -13.032      116.528      185.917      101.346    13578.868    34565.123    10270.918        6.620        2.921      271.714      134.100        0.244      342.905       18.640      870.189
03/15/2014  16:21:00      103.302     -113.324       37.678       95.820      178.875       93.637     9181.403    31996.425     8767.830        3.743        2.497      153.341      108.547        0.501      343.134       19.029      870.205
03/15/2014  16:22:00       39.154       93.417      113.343       65.023       93.832       72.852     4227.942     8804.453     5307.480        2.072        0.917      101.291       78.052        0.594      343.053       18.893      870.223
03/15/2014  16:23:00       51.742      -65.700       54.560       64.208      134.939       74.611     4122.666    18208.572     5566.833        1.893        1.395       83.628       94.183        1.268      343.011       18.822      870.228
03/15/2014  16:24:00       50.966      -35.240       12.945       31.051       94.692       25.357      964.189     8966.503      642.970        0.729        0.529       61.963       10.529        0.029      343.005       18.812      870.233
03/15/2014  16:25:00       82.097       45.834       28.652       55.990       42.880       45.673     3134.849     1838.661     2086.008        0.836        0.353       94.024       33.439        0.126      343.102       18.978      870.232
03/15/2014  16:26:00       62.394       52.236       25.973       51.787       36.408       35.728     2681.860     1325.506     1276.477        0.629        0.264       81.373       15.880        0.038      343.127       19.021      870.223
03/15/2014  16:27:00       80.400       46.619       72.250       87.866       80.281       62.969     7720.366     6444.983     3965.087        1.599        0.907       92.938       62.144        0.447      343.119       19.007      870.233
03/15/2014  16:28:00       83.303        3.399       24.330       82.498      104.360       57.828     6805.886    10891.017     3344.128        1.429        1.052       83.372       52.739        0.400      343.322       19.353      870.219
03/15/2014  16:29:00      141.423       74.500      100.193      112.749       92.240       73.253    12712.418     8508.210     5366.007        3.108        1.329      159.846       64.508        0.163      343.171       19.092      870.216
03/15/2014  16:30:00      108.508       24.518       34.449       80.948       70.575       47.407     6552.646     4980.810     2247.420        1.367        0.689      111.244       49.519        0.198      342.975       18.760      870.219
03/15/2014  16:31:00       97.806       71.394       78.876      108.336       80.357       60.310    11736.722     6457.305     3637.292        2.135        1.092      121.091       63.543        0.275      343.177       19.104      870.205
03/15/2014  16:32:00      130.164       34.075       75.718      112.141      141.471       65.335    12575.606    20013.966     4268.703        3.034        1.843      134.550       70.207        0.272      343.337       19.375      870.179
03/15/2014  16:33:00       68.697       29.859       60.489      105.299      131.923       85.310    11087.873    17403.710     7277.780        2.251        1.788       74.906       77.145        1.061      343.442       19.553      870.168
03/15/2014  16:34:00       97.663       58.861      112.304      101.851      109.460       91.989    10373.714    11981.546     8462.055        2.821        1.541      114.029      102.654        0.810      343.233       19.199      870.162
03/15/2014  16:35:00      101.004       41.564       93.354       75.589      137.629       72.905     5713.683    18941.790     5315.197        2.530        1.499      109.222       87.164        0.637      343.043       18.875      870.177
03/15/2014  16:36:00       66.236      139.903      134.084      106.995       88.203       80.415    11447.926     7779.704     6466.532        3.381        1.285      154.791       78.199        0.255      343.178       19.104      870.176
03/15/2014  16:37:00      162.121       99.013       31.975      100.375       80.343       72.281    10075.099     6454.969     5224.534        2.943        1.088      189.965       54.304        0.082      343.100       18.971      870.209
03/15/2014  16:38:00       54.232      230.451      -35.683       85.261      123.535       50.991     7269.374    15260.904     2600.079        4.122        1.257      236.746       64.557        0.074      343.003       18.806      870.215
03/15/2014  16:39:00       39.479       25.117        3.356       64.055       36.339       23.859     4102.984     1320.533      569.230        0.410        0.300       46.792       19.785        0.179      342.814       18.488      870.204
03/15/2014  16:40:00      -25.265      143.040      -24.889       21.219       39.918       14.972      450.243     1593.430      224.150        1.199        0.113      145.254        9.039        0.004      342.772       18.416      870.186
03/15/2014  16:41:00      -24.541      105.725      -19.949       20.131       29.789       12.466      405.240      887.389      155.405        0.681        0.072      108.535        9.568        0.008      342.813       18.484      870.173
03/15/2014  16:42:00       57.397      120.338      -10.788       77.467       42.970       31.916     6001.193     1846.381     1018.652        1.338        0.443      133.326       32.885        0.061      342.941       18.703      870.175
03/15/2014  16:43:00       56.686       75.133        4.806       64.371       48.775       30.536     4143.651     2379.014      932.419        0.817        0.373       94.118       15.633        0.028      343.225       19.185      870.158
03/15/2014  16:44:00       66.106       98.095       -8.067       58.292       63.979       45.560     3398.003     4093.347     2075.709        1.181        0.478      118.291       43.324        0.134      343.053       18.894      870.162
03/15/2014  16:45:00      152.444      147.661        0.993      120.084       79.694       72.558    14420.194     6351.159     5264.667        3.553        1.302      212.233       54.980        0.067      342.898       18.628      870.172
03/15/2014  16:46:00      151.679      121.745       -1.042       81.258       49.959       40.867     6602.839     2495.937     1670.087        2.430        0.538      194.496       32.737        0.028      342.869       18.580      870.179
03/15/2014  16:47:00      127.268       98.303       43.024       73.530       43.946       53.119     5406.608     1931.279     2821.674        1.893        0.508      160.812       41.237        0.066      342.989       18.783      870.179
03/15/2014  16:48:00      159.168      106.078       19.151      124.141       82.281       48.868    15411.020     6770.137     2388.119        3.076        1.228      191.277       25.983        0.018      343.082       18.942      870.199
03/15/2014  16:49:00      121.368       94.745        9.525       81.598       63.488       49.108     6658.191     4030.785     2411.642        1.845        0.655      153.970       36.567        0.056      343.107       18.985      870.203
03/15/2014  16:50:00       95.051      112.755       -1.192       76.072       77.630       51.706     5787.024     6026.343     2673.527        1.812        0.724      147.474       46.677        0.100      343.104       18.977      870.204
03/15/2014  16:51:00      260.311      211.717       43.735      121.467       84.769       79.053    14754.267     7185.793     6249.375        7.134        1.409      335.539       46.547        0.019      342.986       18.774      870.199
03/15/2014  16:52:00      245.106      124.703       54.454      116.189       90.079       68.201    13499.841     8114.294     4651.346        5.242        1.313      275.005       30.076        0.012      343.105       18.979      870.198
03/15/2014  16:53:00      232.458      165.953       58.225      104.619       71.125       70.107    10945.072     5058.806     4915.057        5.294        1.046      285.617       30.664        0.012      343.272       19.263      870.194
03/15/2014  16:54:00      104.313       76.319       43.762       79.219       69.264       73.130     6275.637     4797.527     5347.931        1.752        0.821      129.251       23.889        0.034      343.352       19.402      870.201
03/15/2014  16:55:00      141.954      108.409       95.385      105.809      103.124       81.154    11195.638    10634.514     6585.898        3.470        1.421      178.615       77.517        0.188      342.946       18.708      870.189
03/15/2014  16:56:00       89.475      109.982      124.136       97.111      101.990       79.001     9430.527    10402.012     6241.219        3.079        1.304      141.781       66.130        0.218      343.125       19.015      870.182
03/15/2014  16:57:00      122.781      124.910      135.966       85.082       65.746       62.899     7239.031     4322.480     3956.237        3.234        0.776      175.150       50.099        0.082      343.221       19.177      870.179
03/15/2014  16:58:00      145.962      137.426      129.328      110.251       79.882       61.169    12155.194     6381.090     3741.587        3.959        1.114      200.476       56.999        0.081      343.128       19.017      870.175
03/15/2014  16:59:00      161.481      138.886      118.408      103.941       97.679       87.122    10803.710     9541.186     7590.243        4.365        1.397      212.991       76.592        0.129      343.018       18.832      870.191
03/15/2014  17:00:00      131.761       92.533       27.015      100.499       75.913       62.592    10100.138     5762.787     3917.776        2.321        0.989      161.007       40.193        0.062      343.172       19.094      870.212
03/15/2014  17:01:00      136.576       59.053       25.032       67.655       54.791       58.904     4577.228     3002.003     3469.652        1.691        0.552      148.796       42.124        0.080      343.195       19.135      870.219
03/15/2014  17:02:00       81.598       33.729       23.255       67.086       67.030       47.710     4500.589     4493.030     2276.225        0.980        0.563       88.295       36.980        0.175      343.261       19.247      870.216
03/15/2014  17:03:00      160.147      115.897       10.606      107.839       66.062       59.350    11629.225     4364.128     3522.468        2.935        0.976      197.684       31.965        0.026      343.152       19.061      870.214
03/15/2014  17:04:00      289.769      171.945       72.539      131.570       99.640      103.236    17310.747     9928.057    10657.755        7.834        1.895      336.944       78.137        0.054      342.952       18.718      870.228
03/15/2014  17:05:00      172.972      159.801       97.816      135.838       89.003       93.539    18451.874     7921.554     8749.504        5.007        1.756      235.490       89.041        0.143      342.963       18.737      870.243
03/15/2014  17:06:00       75.081      -23.076       26.985       89.224      103.812       56.588     7960.873    10776.932     3202.190        1.441        1.097       78.547       54.431        0.480      342.912       18.653      870.258
03/15/2014  17:07:00      128.967       51.036       31.899       78.637       62.138       45.265     6183.700     3861.115     2048.890        1.617        0.605      138.699       28.394        0.042      342.869       18.579      870.239
03/15/2014  17:08:00      132.267       62.518       10.050       84.446       49.212       32.709     7131.046     2421.836     1069.858        1.606        0.531      146.298       23.682        0.026      342.819       18.494      870.231
03/15/2014  17:09:00       58.363       18.823       11.989       33.550       31.335       24.800     1125.588      981.866      615.052        0.331        0.136       61.323       17.371        0.080      342.795       18.455      870.215
03/15/2014  17:10:00       86.958       31.212       26.039       96.573       61.322       55.488     9326.285     3760.446     3078.869        1.269        0.808       92.390       22.083        0.057      343.015       18.828      870.196
03/15/2014  17:11:00       69.581       77.579      -12.572       66.966       54.517       35.782     4484.454     2972.050     1280.324        0.988        0.437      104.212       24.729        0.056      342.953       18.723      870.204
03/15/2014  17:12:00       40.393       45.201       -5.904       52.693       53.384       28.157     2776.595     2849.832      792.798        0.506        0.321       60.620       24.739        0.167      343.039       18.871      870.196
03/15/2014  17:13:00       94.321       43.566       19.102       83.744       47.550       45.987     7013.048     2260.986     2114.807        1.127        0.569      103.896       25.592        0.061      343.029       18.853      870.201
03/15/2014  17:14:00      215.849      112.044       43.098       91.154       62.150       52.010     8308.977     3862.651     2705.075        3.794        0.744      243.197       45.179        0.035      342.830       18.510      870.197
03/15/2014  17:15:00       83.146       39.772        8.156       67.582       57.127       25.069     4567.306     3263.483      628.444        0.851        0.423       92.169       18.653        0.041      342.948       18.714      870.213
03/15/2014  17:16:00       51.527       82.408       33.105       48.711       43.261       47.634     2372.784     1871.540     2269.045        0.853        0.326       97.191       26.763        0.076      343.000       18.803      870.221
03/15/2014  17:17:00       62.459       82.785        7.181       60.959       58.060       35.566     3716.057     3370.921     1264.931        0.958        0.418      103.704       31.848        0.094      342.999       18.801      870.240
03/15/2014  17:18:00       60.965       61.897       10.190       83.822       56.362       35.225     7026.210     3176.700     1240.829        0.955        0.572       86.879       30.946        0.127      342.951       18.718      870.255
03/15/2014  17:19:00      -34.133      102.540      -20.595       19.706       18.813       13.354      388.346      353.937      178.329        0.651        0.046      108.072        5.909        0.003      342.790       18.443      870.252
03/15/2014  17:20:00      -16.270       72.984      -15.172       25.255       22.922       10.709      637.802      525.423      114.675        0.355        0.064       74.775        8.797        0.014      342.792       18.449      870.243
03/15/2014  17:21:00      -16.052      144.613      -29.630       39.026       67.038       21.783     1523.061     4494.089      474.512        1.427        0.325      145.501       25.717        0.031      342.847       18.541      870.264
03/15/2014  17:22:00      105.790      181.311      -14.163      102.222       93.471       59.460    10449.248     8736.776     3535.539        3.349        1.136      209.917       51.929        0.061      342.960       18.732      870.273
03/15/2014  17:23:00       87.931      139.423        3.802       83.243       81.992       64.870     6929.366     6722.675     4208.133        2.252        0.893      164.835       56.086        0.116      342.945       18.707      870.273
03/15/2014  17:24:00       58.505      176.934      -13.442       49.960       84.227       53.497     2495.963     7094.125     2861.930        2.368        0.623      186.355       52.259        0.079      342.894       18.621      870.287
03/15/2014  17:25:00       35.931      154.265       -6.742       54.134       92.172       49.691     2930.524     8495.590     2469.202        1.951        0.695      158.394       50.176        0.100      342.870       18.581      870.288
03/15/2014  17:26:00       45.009      150.942      -12.630       54.559       87.350       44.334     2976.694     7629.997     1965.540        1.877        0.629      157.510       42.870        0.074      342.874       18.589      870.275
03/15/2014  17:27:00       56.296      196.644      -33.993       41.821       90.857       36.575     1748.967     8255.077     1337.705        2.717        0.567      204.544       45.308        0.049      342.869       18.579      870.277
03/15/2014  17:28:00      -34.928      181.981      -25.288       68.017       82.894       35.829     4626.265     6871.371     1283.723        2.388        0.639      185.303       44.617        0.058      342.987       18.779      870.264
03/15/2014  17:29:00      -21.412      285.182      -39.557       84.675       83.309       43.501     7169.847     6940.348     1892.317        4.967        0.800      285.984       35.507        0.015      342.920       18.664      870.259
03/15/2014  17:30:00        9.909      201.941      -31.985       39.174       44.723       21.733     1534.600     2000.137      472.344        2.295        0.200      202.184       24.007        0.014      342.854       18.552      870.260
03/15/2014  17:31:00       42.431      103.097        4.473       51.493       69.118       37.866     2651.507     4777.244     1433.827        1.065        0.443      111.487       45.228        0.165      342.889       18.615      870.278
03/15/2014  17:32:00       67.362       67.749       12.421       55.299       48.729       33.483     3057.927     2374.491     1121.120        0.792        0.328       95.538       21.418        0.050      342.979       18.766      870.293
03/15/2014  17:33:00       62.272       28.454       22.118       72.459       81.027       38.156     5250.234     6565.356     1455.847        0.922        0.664       68.465       30.003        0.192      343.079       18.938      870.292
03/15/2014  17:34:00      201.441      118.389       43.702       73.650       50.235       53.346     5424.259     2523.593     2845.746        3.365        0.540      233.655       44.431        0.036      342.888       18.611      870.299
03/15/2014  17:35:00      108.651       49.580       60.398       82.825       60.940       48.632     6860.014     3713.697     2365.110        1.542        0.647      119.429       40.371        0.114      342.950       18.717      870.300
03/15/2014  17:36:00      120.144       83.847       45.262       94.625       51.338       40.016     8953.876     2635.624     1601.252        1.835        0.660      146.509       42.167        0.083      343.000       18.802      870.305
03/15/2014  17:37:00      174.789       74.549       22.814       56.982       60.415       39.496     3246.946     3649.937     1559.939        2.254        0.423      190.023       17.278        0.008      342.966       18.745      870.324
03/15/2014  17:38:00       58.718       61.950        8.427       66.023       41.400       34.362     4358.992     1713.960     1180.723        0.730        0.363       85.356       20.860        0.060      342.860       18.565      870.325
03/15/2014  17:39:00       74.219       49.720       16.633       67.124       31.677       28.939     4505.574     1003.452      837.441        0.730        0.317       89.334       23.573        0.070      342.900       18.633      870.321
03/15/2014  17:40:00      101.098       49.066       12.008       74.150       39.630       32.303     5498.272     1570.563     1043.497        1.044        0.406      112.376       16.434        0.021      342.890       18.617      870.318
03/15/2014  17:41:00       65.029      122.726      -16.516       45.406       86.086       39.204     2061.660     7410.802     1536.958        1.528        0.550      138.891       46.308        0.111      342.862       18.567      870.315
03/15/2014  17:42:00       65.264      146.141      -26.337       54.743       68.931       37.885     2996.845     4751.435     1435.236        1.775        0.459      160.052       36.803        0.053      342.813       18.482      870.323
03/15/2014  17:43:00       32.484      143.012      -30.535       28.246       40.965       21.667      797.819     1678.135      469.468        1.269        0.147      146.655       19.271        0.017      342.882       18.603      870.328
03/15/2014  17:44:00      -16.280      103.289      -28.280       28.173       43.573       12.494      793.695     1898.569      156.107        0.729        0.142      104.564       14.509        0.019      342.836       18.524      870.326
03/15/2014  17:45:00      -30.421       47.698      -18.345       20.370       32.171       17.251      414.944     1034.964      297.612        0.264        0.087       56.573       10.147        0.032      343.017       18.833      870.321
03/15/2014  17:46:00       48.555       46.117        0.820       49.176       42.433       25.264     2418.237     1800.545      638.247        0.467        0.243       66.966       19.185        0.082      342.965       18.746      870.313
03/15/2014  17:47:00      137.631       66.700       20.205       55.319       48.164       36.049     3060.180     2319.786     1299.549        1.524        0.334      152.942       24.357        0.025      343.096       18.966      870.325
03/15/2014  17:48:00       90.924       56.976        9.644       56.188       38.237       32.273     3157.077     1462.085     1041.527        0.863        0.283      107.301       21.285        0.039      343.023       18.842      870.333
03/15/2014  17:49:00       44.359       61.141       -0.448       62.484       48.729       37.110     3904.293     2374.474     1377.119        0.668        0.383       75.537       25.320        0.112      342.969       18.750      870.331
03/15/2014  17:50:00      140.371       99.601       62.427       86.629       83.305       75.943     7504.531     6939.644     5767.334        2.686        1.011      172.117       59.788        0.121      343.023       18.840      870.326
03/15/2014  17:51:00      245.211      133.021        8.677       96.743       75.217       58.969     9359.236     5657.541     3477.382        4.819        0.925      278.968       23.505        0.007      342.908       18.643      870.339
03/15/2014  17:52:00      181.652       91.592       27.054       96.442       75.777       55.607     9301.148     5742.217     3092.125        3.012        0.907      203.437       41.784        0.042      342.878       18.593      870.345
03/15/2014  17:53:00      170.341       95.434       75.745      100.694       92.351       69.288    10139.191     8528.755     4800.895        3.366        1.173      195.253       66.540        0.116      342.956       18.725      870.343
03/15/2014  17:54:00      230.690      166.678       46.787       62.747       60.515       53.477     3937.208     3662.097     2859.815        4.682        0.523      284.604       37.381        0.017      342.869       18.577      870.346
03/15/2014  17:55:00      151.606       79.044       27.374       62.269       43.432       38.667     3877.396     1886.376     1495.149        1.862        0.363      170.975       25.373        0.022      342.905       18.639      870.340
03/15/2014  17:56:00      205.651      102.610       21.730       67.571       73.420       54.024     4565.846     5390.531     2918.612        3.308        0.644      229.828       35.750        0.024      342.915       18.654      870.332
03/15/2014  17:57:00      226.981      142.025       21.747       93.308       71.578       57.794     8706.399     5123.474     3340.155        4.466        0.859      267.753       41.862        0.024      342.831       18.512      870.331
03/15/2014  17:58:00      118.664       92.658       14.885       77.878       53.648       60.247     6064.974     2878.130     3629.747        1.773        0.629      150.555       40.558        0.073      342.869       18.579      870.326
03/15/2014  17:59:00       99.859      131.542       10.089      100.295       91.589       69.786    10059.022     8388.455     4870.109        2.534        1.166      165.152       60.180        0.133      342.823       18.499      870.329
03/15/2014  18:00:00       49.203      160.352      -11.880       71.167       94.587       58.836     5064.800     8946.776     3461.695        2.287        0.874      167.731       58.288        0.121      342.794       18.448      870.335
03/15/2014  18:01:00       42.185      101.533       -6.862       47.139       72.098       40.538     2222.045     5198.165     1643.346        1.060        0.453      109.948       40.107        0.133      342.828       18.509      870.338
03/15/2014  18:02:00       32.357       84.860       -6.105       44.839       43.102       27.104     2010.538     1857.767      734.631        0.644        0.230       90.820       17.214        0.036      342.811       18.483      870.324
03/15/2014  18:03:00      115.548       64.034       10.025       69.118       38.520       29.300     4777.277     1483.762      858.518        1.233        0.356      132.105       21.101        0.026      342.837       18.527      870.333
03/15/2014  18:04:00       28.356       52.017       72.521       51.607       51.523       46.710     2663.299     2654.651     2181.818        0.813        0.375       59.244       39.243        0.439      342.975       18.760      870.334
03/15/2014  18:05:00       73.225       80.041       92.418       57.686       92.347       39.469     3327.667     8528.000     1557.796        1.686        0.671      108.482       43.489        0.161      342.909       18.649      870.327
03/15/2014  18:06:00       39.010       69.427       95.444       59.270       63.359       45.732     3512.990     4014.424     2091.372        1.253        0.481       79.636       35.522        0.199      342.897       18.627      870.316
03/15/2014  18:07:00       76.070       63.872       65.080       56.470       64.686       56.895     3188.889     4184.267     3237.003        1.235        0.531       99.329       46.182        0.216      342.930       18.684      870.314
03/15/2014  18:08:00       75.100       57.137       62.013       53.829       47.068       33.290     2897.541     2215.404     1108.215        0.948        0.311       94.365       28.435        0.091      342.985       18.778      870.306
03/15/2014  18:09:00       99.216       68.252       75.892       64.748       59.652       47.015     4192.365     3558.356     2210.421        1.511        0.498      120.425       32.344        0.072      342.902       18.637      870.306
03/15/2014  18:10:00      118.860       36.691       38.989       71.246       44.876       41.641     5075.948     2013.887     1733.970        1.291        0.441      124.395       40.841        0.108      342.918       18.663      870.304
03/15/2014  18:11:00       55.296       25.264       10.577       47.440       39.117       44.365     2250.589     1530.122     1968.287        0.478        0.287       60.794       22.679        0.139      342.889       18.614      870.299
03/15/2014  18:12:00      109.769       79.221       77.922      110.952       93.914       61.155    12310.244     8819.932     3739.903        2.463        1.244      135.371       64.023        0.224      342.821       18.498      870.321
03/15/2014  18:13:00      130.609      118.485       80.405       83.569       66.359       74.245     6983.751     4403.565     5512.353        2.723        0.845      176.344       64.842        0.135      342.748       18.371      870.324
03/15/2014  18:14:00       75.589       31.567       73.323       59.631       68.508       44.253     3555.814     4693.396     1958.360        1.114        0.510       81.915       47.865        0.341      342.810       18.481      870.318
03/15/2014  18:15:00       78.313      118.550      101.345       64.718       43.805       47.538     4188.357     1918.846     2259.887        1.941        0.418      142.081       39.774        0.078      342.791       18.447      870.315
03/15/2014  18:16:00      112.689       62.263       40.345       70.116       55.485       41.993     4916.302     3078.613     1763.447        1.398        0.488      128.746       27.976        0.047      342.755       18.386      870.325
03/15/2014  18:17:00      141.590       78.054       12.224       68.374       52.665       41.930     4674.959     2773.565     1758.118        1.775        0.460      161.679       34.089        0.044      342.745       18.368      870.335
03/15/2014  18:18:00       19.780       19.167       40.296       58.023       52.422       32.612     3366.676     2748.108     1063.572        0.478        0.359       27.543       19.604        0.507      342.839       18.528      870.344
03/15/2014  18:19:00       45.571       26.023       31.475       64.871       48.489       30.652     4208.269     2351.209      939.574        0.562        0.375       52.478       25.252        0.232      342.873       18.588      870.350
03/15/2014  18:20:00      135.656       53.377       47.468       68.411       56.848       50.794     4680.061     3231.744     2579.991        1.700        0.525      145.780       27.857        0.037      342.708       18.305      870.354
03/15/2014  18:21:00      105.471       54.220       53.584       78.986       48.486       51.163     6238.853     2350.905     2617.664        1.407        0.560      118.592       32.726        0.076      342.733       18.348      870.347
03/15/2014  18:22:00      125.498       70.392       38.010       49.858       42.817       40.723     2485.835     1833.260     1658.332        1.406        0.299      143.891       23.982        0.028      342.678       18.256      870.349
03/15/2014  18:23:00      117.643       69.480       46.310       64.342       58.810       40.530     4139.886     3458.649     1642.646        1.502        0.462      136.628       21.456        0.025      342.687       18.271      870.351
03/15/2014  18:24:00      187.500       96.083       33.080      102.971       82.068       60.725    10602.937     6735.198     3687.503        3.325        1.051      210.685       52.651        0.062      342.653       18.212      870.368
03/15/2014  18:25:00      132.021       61.103       59.163      103.890       65.757       63.901    10793.041     4324.049     4083.342        2.193        0.960      145.476       56.053        0.148      342.673       18.245      870.389
03/15/2014  18:26:00       71.752       60.080       77.181       84.392       53.655       43.839     7121.956     2878.853     1921.889        1.332        0.596       93.584       39.538        0.178      342.658       18.221      870.404
03/15/2014  18:27:00      172.882       78.433       38.535       76.182       62.233       43.111     5803.745     3872.977     1858.589        2.453        0.577      189.842       27.571        0.021      342.630       18.172      870.406
03/15/2014  18:28:00       87.379       27.020       15.110       56.930       28.977       28.202     3240.999      839.638      795.336        0.673        0.244       91.462       22.927        0.063      342.559       18.053      870.405
03/15/2014  18:29:00       77.513       48.023       25.974       44.664       36.951       29.198     1994.883     1365.371      852.506        0.660        0.211       91.184       16.168        0.031      342.550       18.037      870.409
03/15/2014  18:30:00      159.447       81.746       33.005       67.565       61.567       46.680     4564.977     3790.471     2178.996        2.186        0.527      179.181       36.251        0.041      342.610       18.136      870.402
03/15/2014  18:31:00       90.963       81.555       91.305       75.734       63.904       40.674     5735.566     4083.679     1654.376        1.737        0.574      122.169       34.994        0.082      342.627       18.169      870.394
03/15/2014  18:32:00      174.638      104.192       66.808       81.689       65.393       63.506     6673.024     4276.229     4033.058        3.040        0.749      203.357       45.269        0.050      342.587       18.098      870.372
03/15/2014  18:33:00      165.044      124.225      127.809       96.005      119.411       83.178     9216.894    14258.886     6918.580        4.469        1.520      206.570       76.759        0.138      342.551       18.037      870.349
03/15/2014  18:34:00      119.622      158.689      148.312      101.322       81.558       59.642    10266.150     6651.658     3557.143        4.098        1.024      198.725       44.154        0.049      342.587       18.099      870.339
03/15/2014  18:35:00      132.085      103.979      109.414      109.933       83.631       61.556    12085.366     6994.116     3789.100        3.154        1.143      168.101       58.306        0.120      342.545       18.027      870.329
03/15/2014  18:36:00      143.925       67.384       84.454      111.274      107.641       79.094    12381.929    11586.491     6255.861        3.130        1.511      158.918       69.570        0.192      342.519       17.984      870.303
03/15/2014  18:37:00      166.786       95.474      101.518      143.460       98.807       98.795    20580.682     9762.780     9760.497        4.366        2.005      192.180       87.891        0.209      342.476       17.908      870.275
03/15/2014  18:38:00      189.975      132.314      129.911      121.623       90.355       77.469    14792.195     8164.013     6001.384        4.971        1.448      231.511       74.503        0.104      342.460       17.880      870.265
03/15/2014  18:39:00      214.320      110.815       85.069      122.423       95.893       84.736    14987.401     9195.555     7180.211        4.840        1.568      241.274       66.787        0.077      342.442       17.851      870.281
03/15/2014  18:40:00      131.371      141.597      116.718      112.483      105.698       85.685    12652.414    11172.117     7341.952        4.104        1.558      193.152       68.704        0.127      342.440       17.850      870.283
03/15/2014  18:41:00      168.988      104.637       90.755      104.198       87.698       78.278    10857.251     7690.912     6127.442        3.620        1.234      198.761       59.269        0.089      342.422       17.816      870.282
03/15/2014  18:42:00       93.650       78.695       91.657       93.651       79.782       66.870     8770.501     6365.185     4471.535        2.148        0.980      122.325       42.472        0.121      342.406       17.790      870.308
03/15/2014  18:43:00      119.922       87.360       68.488       80.582       53.684       40.479     6493.472     2881.952     1638.560        1.886        0.551      148.368       24.859        0.028      342.385       17.756      870.342
03/15/2014  18:44:00      111.431       67.168       40.087       61.028       49.834       42.043     3724.428     2483.471     1767.583        1.325        0.399      130.109       32.803        0.064      342.348       17.695      870.356
03/15/2014  18:45:00      136.582       44.480       14.305       88.524       73.648       46.805     7836.516     5423.970     2190.715        1.814        0.773      143.643       26.848        0.035      342.330       17.660      870.362
03/15/2014  18:46:00      174.596       84.831       46.143       79.132       52.172       53.746     6261.808     2721.894     2888.583        2.584        0.594      194.113       42.907        0.049      342.336       17.671      870.365
03/15/2014  18:47:00       93.179       69.374       46.503       80.382       42.726       47.099     6461.241     1825.549     2218.273        1.308        0.525      116.168       41.624        0.128      342.322       17.650      870.364
03/15/2014  18:48:00      181.302       99.488       36.871       75.542       65.433       52.800     5706.522     4281.444     2787.804        2.845        0.639      206.805       47.026        0.052      342.346       17.687      870.352
03/15/2014  18:49:00      121.017       66.158       36.782       74.377       49.953       46.306     5531.985     2495.295     2144.255        1.527        0.509      137.920       41.892        0.092      342.289       17.593      870.353
03/15/2014  18:50:00      167.696       84.567       41.972       57.809       46.335       41.398     3341.889     2146.902     1713.818        2.212        0.360      187.812       23.494        0.016      342.252       17.529      870.346
03/15/2014  18:51:00       89.305       22.458       38.208       69.900       46.307       34.848     4886.070     2144.357     1214.376        0.909        0.412       92.086       21.060        0.052      342.191       17.428      870.344
03/15/2014  18:52:00       60.665       55.833       61.500       55.371       65.603       42.064     3065.932     4303.758     1769.382        0.986        0.457       82.448       43.157        0.274      342.150       17.358      870.346
03/15/2014  18:53:00      216.027      134.822       48.994      115.812       79.374       55.140    13412.324     6300.195     3040.416        4.499        1.138      254.646       41.337        0.026      342.133       17.326      870.352
03/15/2014  18:54:00      136.931       88.772       24.269       93.132       68.498       50.164     8673.575     4692.017     2516.387        2.155        0.794      163.189       49.790        0.093      342.102       17.276      870.357
03/15/2014  18:55:00       56.281       34.783       47.376       43.933       43.001       35.457     1930.145     1849.113     1257.195        0.583        0.252       66.162       27.747        0.176      341.995       17.096      870.376
03/15/2014  18:56:00      103.825       22.771       32.532       68.131       45.142       43.785     4641.878     2037.841     1917.124        1.047        0.430      106.292       41.469        0.152      342.031       17.155      870.380
03/15/2014  18:57:00      106.588       95.115       70.732       96.823       76.434       76.745     9374.763     5842.182     5889.823        2.325        1.055      142.856       42.451        0.088      342.082       17.240      870.377
03/15/2014  18:58:00      159.455      121.568       75.201      136.168       82.351       78.593    18541.769     6781.618     6176.872        3.867        1.575      200.510       82.064        0.168      342.093       17.259      870.379
03/15/2014  18:59:00      146.641       84.783       42.732       58.812       51.451       52.076     3458.830     2647.252     2711.879        1.967        0.441      169.387       28.915        0.029      342.029       17.152      870.392
03/15/2014  19:00:00      121.418       56.968       50.974       54.044       40.667       42.781     2920.797     1653.834     1830.234        1.349        0.320      134.118       23.617        0.031      341.983       17.075      870.402
03/15/2014  19:01:00      130.600       63.529       46.223       96.180       45.056       45.186     9250.633     2030.005     2041.801        1.827        0.666      145.232       46.842        0.104      341.974       17.059      870.397
03/15/2014  19:02:00      123.784       65.247       69.883       76.849       79.115       61.645     5905.756     6259.248     3800.096        2.021        0.798      139.928       52.859        0.143      342.004       17.107      870.400
03/15/2014  19:03:00      133.282       63.700       52.123      107.435       83.671       67.138    11542.320     7000.778     4507.457        2.379        1.153      147.722       56.366        0.146      342.036       17.162      870.392
03/15/2014  19:04:00      130.983       85.967       97.321       88.776       73.813       56.238     7881.108     5448.382     3162.748        2.525        0.825      156.674       43.914        0.079      342.062       17.206      870.394
03/15/2014  19:05:00       91.160       78.158       80.134       76.013       60.195       53.560     5777.903     3623.407     2868.704        1.655        0.614      120.078       38.426        0.102      342.077       17.233      870.397
03/15/2014  19:06:00       93.533       66.359       63.421       70.670       55.239       34.874     4994.229     3051.375     1216.216        1.322        0.463      114.681       29.004        0.064      341.970       17.054      870.402
03/15/2014  19:07:00      138.622       57.945       10.188       46.526       45.655       33.400     2164.693     2084.397     1115.566        1.402        0.268      150.245       12.778        0.007      341.981       17.072      870.420
03/15/2014  19:08:00       92.809       30.232       24.534       60.146       40.674       37.294     3617.506     1654.401     1390.873        0.839        0.333       97.609       31.801        0.106      341.858       16.862      870.419
03/15/2014  19:09:00       99.143       48.123       27.073       73.870       53.121       44.652     5456.843     2821.834     1993.808        1.157        0.514      110.206       25.146        0.052      341.837       16.828      870.424
03/15/2014  19:10:00       98.012       50.572       25.281       56.276       53.426       42.454     3166.965     2854.357     1802.344        1.031        0.391      110.290       36.484        0.109      341.851       16.852      870.436
03/15/2014  19:11:00      155.778       71.214       26.373       82.402       49.419       41.967     6790.037     2442.229     1761.203        2.051        0.550      171.284       18.224        0.011      341.878       16.896      870.451
03/15/2014  19:12:00      151.910       71.954       34.611       62.705       51.421       33.091     3931.923     2644.158     1095.037        1.856        0.384      168.090       23.792        0.020      341.944       17.005      870.459
03/15/2014  19:13:00      100.501       30.953       19.897       87.898       45.052       30.794     7726.076     2029.711      948.277        1.108        0.535      105.160       23.967        0.052      341.857       16.859      870.464
03/15/2014  19:14:00       57.859       10.726       15.962       52.113       36.480       26.722     2715.785     1330.777      714.043        0.424        0.238       58.844       13.743        0.055      341.700       16.595      870.480
03/15/2014  19:15:00       94.095       52.108       23.087       39.491       35.093       23.801     1559.540     1231.494      566.480        0.773        0.168      107.560       17.336        0.026      341.678       16.557      870.476
03/15/2014  19:16:00       56.765       43.709       59.385       67.805       40.224       39.480     4597.544     1617.970     1558.679        0.822        0.389       71.643       39.729        0.308      341.625       16.467      870.474
03/15/2014  19:17:00       57.485       52.647       47.655       55.526       43.533       44.765     3083.108     1895.109     2003.938        0.766        0.349       77.950       42.604        0.299      341.664       16.533      870.475
03/15/2014  19:18:00      102.627       68.748       34.426       60.353       39.725       39.880     3642.437     1578.087     1590.377        1.163        0.341      123.525       27.574        0.050      341.688       16.575      870.483
03/15/2014  19:19:00      111.682       30.276       27.706       73.136       52.819       43.134     5348.924     2789.842     1860.525        1.208        0.500      115.713       18.127        0.025      341.734       16.652      870.486
03/15/2014  19:20:00       74.370       39.215       19.938       59.644       56.302       39.606     3557.439     3169.870     1568.600        0.788        0.415       84.075        7.706        0.008      341.619       16.456      870.487
03/15/2014  19:21:00      149.337       97.611       48.731       63.057       59.129       46.826     3976.150     3496.242     2192.674        2.193        0.483      178.409       38.451        0.046      341.678       16.556      870.490
03/15/2014  19:22:00       93.004       25.736       38.981       72.738       42.341       38.091     5290.834     1792.744     1450.931        0.968        0.427       96.499       38.814        0.162      341.604       16.432      870.496
03/15/2014  19:23:00      114.743       40.412       13.460       49.144       45.468       29.712     2415.129     2067.315      882.797        1.017        0.268      121.652       21.195        0.030      341.607       16.437      870.500
03/15/2014  19:24:00      147.693       50.811       19.971       62.513       43.289       31.591     3907.929     1873.964      997.977        1.579        0.339      156.189       15.217        0.009      341.579       16.387      870.510
03/15/2014  19:25:00       73.075       27.855       33.356       81.628       47.625       36.140     6663.092     2268.106     1306.121        0.873        0.512       78.204       36.567        0.219      341.602       16.428      870.522
03/15/2014  19:26:00       74.883       58.529       31.004       53.790       33.464       23.955     2893.403     1119.828      573.829        0.729        0.229       95.042       19.594        0.043      341.539       16.323      870.544
03/15/2014  19:27:00       97.736       49.137       22.768       56.627       38.946       25.364     3206.594     1516.817      643.313        0.892        0.268      109.393        3.755        0.001      341.562       16.360      870.553
03/15/2014  19:28:00       43.920       18.623       -0.748       33.145       23.951       15.608     1098.604      573.629      243.614        0.210        0.096       47.705        9.013        0.036      341.468       16.199      870.565
03/15/2014  19:29:00       15.169        8.540        4.724       16.905        9.878       12.695      285.792       97.571      161.164        0.043        0.027       17.407        7.997        0.211      341.347       15.996      870.567
03/15/2014  19:30:00       35.116       20.880        7.351       23.374       12.678       11.464      546.353      160.725      131.415        0.128        0.042       40.855        6.523        0.025      341.438       16.151      870.574
03/15/2014  19:31:00       53.127       31.012       17.326       17.477       15.279       13.068      305.433      233.450      170.763        0.240        0.035       61.516        4.205        0.005      341.383       16.056      870.581
03/15/2014  19:32:00       25.017        3.622        2.636       28.930       17.381       12.201      836.965      302.109      148.873        0.097        0.064       25.277       12.081        0.228      341.418       16.117      870.586
03/15/2014  19:33:00       -7.536       13.375       25.736       11.355       24.235       17.747      128.939      587.330      314.960        0.096        0.052       15.352       17.007        1.227      341.332       15.970      870.590
03/15/2014  19:34:00        0.256      -11.754        5.835       10.384       22.236       10.819      107.827      494.443      117.043        0.045        0.036       11.757        6.293        0.287      341.418       16.116      870.591
03/15/2014  19:35:00       24.198       12.837        5.682       16.071       10.149        9.947      258.271      103.008       98.945        0.062        0.023       27.392        4.290        0.025      341.355       16.009      870.602
03/15/2014  19:36:00        1.522        5.275       18.970       13.867       28.700       11.511      192.299      823.688      132.511        0.077        0.057        5.490        3.612        0.433      341.342       15.988      870.609
03/15/2014  19:37:00       15.140       27.973       25.342       14.359       14.906        7.954      206.168      222.186       63.264        0.107        0.025       31.807        6.190        0.038      341.410       16.102      870.625
03/15/2014  19:38:00       21.402       27.734       25.012       13.681       20.165        8.463      187.163      406.617       71.617        0.126        0.033       35.032        4.073        0.014      341.402       16.089      870.632
03/15/2014  19:39:00       18.987       11.384       17.149       14.949       13.839       11.774      223.482      191.513      138.630        0.067        0.028       22.138        9.025        0.166      341.302       15.921      870.638
03/15/2014  19:40:00       50.153       19.608        1.920       11.678       13.141       11.713      136.384      172.697      137.197        0.167        0.022       53.850        4.654        0.007      341.386       16.062      870.636
03/15/2014  19:41:00       44.852       15.704        0.306       18.185       11.307       11.197      330.692      127.854      125.380        0.142        0.029       47.521        3.304        0.005      341.326       15.962      870.632
03/15/2014  19:42:00       36.316       10.676       11.066       16.911       12.611       10.521      285.979      159.026      110.694        0.106        0.028       37.853        7.471        0.039      341.248       15.828      870.634
03/15/2014  19:43:00       41.147       12.467        5.553       16.648       17.823       12.052      277.169      317.671      145.257        0.131        0.037       42.994        9.364        0.047      341.262       15.852      870.642
03/15/2014  19:44:00       34.165       20.196        0.264       10.496       11.872        8.343      110.156      140.941       69.600        0.095        0.016       39.688        6.865        0.030      341.365       16.029      870.642
03/15/2014  19:45:00       19.562        3.364        0.273        7.236        8.297        5.020       52.359       68.835       25.203        0.027        0.007       19.849        3.842        0.037      341.313       15.938      870.650
03/15/2014  19:46:00       20.771       10.230        0.141       12.659        6.546        5.896      160.250       42.845       34.768        0.039        0.012       23.154        4.694        0.041      341.279       15.883      870.662
03/15/2014  19:47:00       27.479       12.753        5.551       14.612        7.500        7.280      213.510       56.247       53.001        0.064        0.016       30.294        6.023        0.040      341.221       15.783      870.673
03/15/2014  19:48:00       34.504       16.034        0.977       16.375        8.524        5.708      268.150       72.661       32.577        0.091        0.019       38.048        4.351        0.013      341.243       15.821      870.680
03/15/2014  19:49:00       22.986        6.915       -1.943       13.297       11.081        8.412      176.801      122.793       70.760        0.048        0.019       24.003        8.136        0.115      341.217       15.776      870.684
03/15/2014  19:50:00       47.813       28.648        9.229       25.467       20.426       15.092      648.591      417.215      227.774        0.224        0.065       55.739        9.645        0.030      341.193       15.736      870.697
03/15/2014  19:51:00       78.156       44.402       17.818       21.750       17.481       14.807      473.069      305.570      219.259        0.470        0.050       89.888        9.937        0.012      341.178       15.710      870.692
03/15/2014  19:52:00       48.581       40.967        3.718       24.381       17.409       12.674      594.443      303.071      160.640        0.255        0.053       63.548       13.207        0.043      341.237       15.811      870.697
03/15/2014  19:53:00       80.780       51.293       18.013       37.064       24.282       26.036     1373.744      589.637      677.899        0.606        0.132       95.690       19.360        0.041      341.152       15.667      870.683
03/15/2014  19:54:00       98.366       73.081       15.539       28.013       19.421       13.669      784.725      377.168      186.835        0.830        0.067      122.542       11.011        0.008      341.172       15.701      870.684
03/15/2014  19:55:00       83.983       44.907       12.639       36.626       31.918       22.738     1341.497     1018.770      516.994        0.605        0.144       95.235       12.970        0.019      341.305       15.926      870.679
03/15/2014  19:56:00       64.950       43.616       15.456       29.291       21.383       19.551      857.963      457.253      382.238        0.403        0.085       78.236       12.656        0.026      341.136       15.641      870.673
03/15/2014  19:57:00       49.394       38.579       -5.817       33.184       26.532       22.868     1101.172      703.972      522.947        0.314        0.116       62.675       15.945        0.065      341.153       15.666      870.683
03/15/2014  19:58:00       44.457       25.293        9.076       45.133       21.212       15.124     2037.027      449.963      228.749        0.271        0.136       51.148        9.911        0.038      341.078       15.541      870.685
03/15/2014  19:59:00       30.648       21.179        0.690       25.734       22.519       17.766      662.228      507.087      315.642        0.144        0.074       37.254       14.865        0.159      340.995       15.402      870.698
03/15/2014  20:00:00        6.963       75.125      -12.344       20.824       36.368        8.104      433.623     1322.595       65.677        0.383        0.091       75.447       10.161        0.018      341.055       15.504      870.703
03/15/2014  20:01:00       -5.980       74.311      -10.664       26.720       29.991       17.202      713.944      899.474      295.913        0.379        0.095       74.551       14.568        0.038      341.115       15.605      870.716
03/15/2014  20:02:00       39.833       48.394        0.452       40.884       49.723       25.111     1671.533     2472.400      630.570        0.435        0.239       62.679       26.269        0.176      340.929       15.287      870.747
03/15/2014  20:03:00        3.370       81.491      -10.143       26.116       29.415       15.263      682.070      865.242      232.960        0.427        0.089       81.561       16.108        0.039      340.902       15.243      870.754
03/15/2014  20:04:00      -12.125       80.896      -18.529       25.829       20.459       12.366      667.112      418.585      152.922        0.414        0.062       81.799       10.381        0.016      340.929       15.287      870.780
03/15/2014  20:05:00        5.585       75.784      -10.073       22.171       25.043       14.708      491.535      627.149      216.337        0.361        0.067       75.989       14.320        0.036      340.925       15.283      870.805
03/15/2014  20:06:00       10.802       29.795       -9.190       27.235       26.163       16.336      741.761      684.529      266.867        0.139        0.085       31.693        3.922        0.015      340.767       15.016      870.832
03/15/2014  20:07:00       18.353       73.446      -20.322       24.489       32.855       14.613      599.717     1079.471      213.550        0.402        0.095       75.704       17.927        0.056      340.795       15.062      870.849
03/15/2014  20:08:00        8.145       70.539      -15.560       18.724       22.042        8.837      350.594      485.838       78.092        0.310        0.046       71.008        6.949        0.010      340.896       15.234      870.864
03/15/2014  20:09:00       -4.181       54.988      -11.784       20.537       16.431       10.082      421.780      269.989      101.650        0.199        0.040       55.147        7.891        0.020      340.924       15.280      870.883
03/15/2014  20:10:00       -7.702       62.514       -8.969       18.360       28.455       13.487      337.083      809.687      181.899        0.269        0.066       62.987       13.573        0.046      340.791       15.056      870.900
03/15/2014  20:11:00      -18.166       72.980       -6.022       27.895       27.483       16.107      778.106      755.312      259.440        0.374        0.090       75.207       15.443        0.042      340.789       15.052      870.923
03/15/2014  20:12:00      -11.157       74.248      -16.374       22.938       25.980       14.428      526.170      674.976      208.154        0.366        0.070       75.081        8.234        0.012      340.702       14.906      870.950
03/15/2014  20:13:00      -20.442       62.136      -17.368       23.920       37.369       12.132      572.185     1396.409      147.189        0.335        0.106       65.412       14.533        0.049      340.654       14.824      870.970
03/15/2014  20:14:00      -38.865       19.615      -11.204       25.034       27.454       12.705      626.701      753.713      161.408        0.178        0.077       43.534       10.389        0.057      340.255       14.148      870.990
03/15/2014  20:15:00      -21.430       -3.115       -4.384       35.515       19.260       19.384     1261.281      370.961      375.749        0.125        0.100       21.655       16.521        0.582      340.158       13.986      870.995
03/15/2014  20:16:00      -41.166        3.150      -10.152       23.816       18.445       10.898      567.214      340.204      118.760        0.142        0.051       41.286       11.552        0.078      339.903       13.556      871.015
03/15/2014  20:17:00      -59.800      -34.022      -11.806       20.298       14.682       11.639      412.004      215.552      135.472        0.282        0.038       68.800       10.964        0.025      339.907       13.563      871.018
03/15/2014  20:18:00      -83.604      -14.717      -17.973       21.830       16.096       12.107      476.539      259.077      146.574        0.421        0.044       84.889        4.740        0.003      339.707       13.224      871.027
03/15/2014  20:19:00     -110.015       -8.672      -20.300       27.782       29.549       16.842      771.831      873.168      283.644        0.726        0.096      110.357       15.631        0.020      339.671       13.165      871.023
03/15/2014  20:20:00      -84.863      -11.719      -16.591       40.195       23.355       19.749     1615.670      545.441      390.030        0.508        0.128       85.668       19.137        0.050      339.770       13.331      871.014
03/15/2014  20:21:00      -65.993       -9.024      -10.728       36.214       20.116       20.058     1311.459      404.654      402.334        0.333        0.106       66.607       17.376        0.068      339.703       13.219      871.016
03/15/2014  20:22:00      -62.457       -0.631      -17.919       40.740       31.775       19.457     1659.729     1009.673      378.587        0.363        0.152       62.460       18.947        0.092      340.019       13.751      871.001
03/15/2014  20:23:00      -76.323       -7.608      -14.042       31.412       16.785       21.759      986.693      281.728      473.456        0.391        0.087       76.701       20.223        0.070      339.806       13.392      871.000
03/15/2014  20:24:00      -42.389       -3.060       -9.634       26.723       18.899       13.615      714.117      357.179      185.357        0.158        0.063       42.500        8.085        0.036      339.965       13.659      870.993
03/15/2014  20:25:00      -87.658       -3.753      -19.546       30.044       19.677       15.079      902.614      387.177      227.384        0.480        0.076       87.738       11.762        0.018      339.861       13.484      870.992
03/15/2014  20:26:00      -81.630      -16.480      -17.492       23.540       15.205       13.610      554.152      231.185      185.228        0.411        0.049       83.277       10.436        0.016      339.701       13.215      870.983
03/15/2014  20:27:00      -90.188      -15.240      -15.763       20.892       17.153       13.789      436.486      294.211      190.128        0.477        0.046       91.466       10.336        0.013      339.643       13.117      870.993
03/15/2014  20:28:00      -65.036      -14.415       -9.335       22.713       17.816       14.633      515.877      317.427      214.127        0.279        0.052       66.614        4.101        0.004      339.565       12.984      871.007
03/15/2014  20:29:00      -46.498      -30.179      -12.007       19.640       21.865       12.934      385.743      478.060      167.301        0.212        0.052       55.433        7.226        0.017      339.575       13.004      871.027
03/15/2014  20:30:00      -73.511      -20.797      -10.074       23.290       20.170       12.450      542.422      406.842      155.003        0.352        0.055       76.396        9.858        0.017      339.626       13.088      871.043
03/15/2014  20:31:00      -52.273      -25.384      -14.360       27.759       14.246        8.666      770.576      202.949       75.092        0.232        0.052       58.110        7.614        0.017      339.631       13.097      871.063
03/15/2014  20:32:00      -14.118      -15.978       -4.866       19.758       17.100       15.081      390.371      292.412      227.429        0.069        0.046       21.322        5.728        0.072      339.770       13.332      871.091
03/15/2014  20:33:00      -50.419      -15.733      -10.511       16.850       13.206        9.908      283.906      174.388       98.169        0.173        0.028       52.816        9.058        0.029      339.703       13.216      871.104
03/15/2014  20:34:00      -44.525       -7.290      -18.495       25.990       20.797       15.026      675.491      432.497      225.768        0.186        0.067       45.117       11.420        0.064      339.882       13.519      871.116
03/15/2014  20:35:00      -47.842       -9.458      -12.530       18.056       18.499       12.299      326.029      342.197      151.254        0.168        0.041       48.768        6.780        0.019      339.608       13.059      871.122
03/15/2014  20:36:00      -87.587      -12.520      -20.938       22.504       16.447       10.855      506.431      270.501      117.820        0.458        0.045       88.478        9.226        0.011      339.439       12.772      871.138
03/15/2014  20:37:00      -92.979      -16.291      -17.601       14.622       13.204       12.144      213.816      174.337      147.467        0.488        0.027       94.396        8.870        0.009      339.447       12.786      871.134
03/15/2014  20:38:00      -93.553      -12.245      -21.691       19.491       17.824       12.600      379.891      317.703      158.768        0.511        0.043       94.351        9.866        0.011      339.445       12.782      871.148
03/15/2014  20:39:00      -62.408       -1.516      -16.096       29.661       17.057       15.911      879.778      290.933      253.169        0.279        0.071       62.427       15.485        0.062      339.397       12.702      871.160
03/15/2014  20:40:00      -64.287      -13.835      -17.170       18.509       12.337       10.845      342.582      152.192      117.607        0.262        0.031       65.759        3.155        0.002      339.416       12.733      871.172
03/15/2014  20:41:00      -74.260      -16.087      -12.973       16.047       14.620       12.784      257.493      213.754      163.437        0.329        0.032       75.983        2.738        0.001      339.432       12.760      871.172
03/15/2014  20:42:00      -53.772       -5.659       -9.432       18.436       23.745       14.105      339.870      563.813      198.960        0.206        0.055       54.069       10.457        0.037      339.639       13.111      871.192
03/15/2014  20:43:00      -55.892        4.177      -15.209       26.262       13.159        8.460      689.676      173.149       71.565        0.215        0.047       56.048       10.552        0.035      339.655       13.137      871.196
03/15/2014  20:44:00      -19.049        8.139       -7.872       22.554       30.437       16.507      508.696      926.418      272.486        0.110        0.085       20.715       17.181        0.688      339.995       13.711      871.209
03/15/2014  20:45:00      -49.962      -12.797      -11.800       17.929       16.344       13.907      321.447      267.126      193.416        0.179        0.039       51.575        4.586        0.008      339.555       12.967      871.222
03/15/2014  20:46:00      -52.904      -15.948      -12.694       23.161       13.571       14.007      536.430      184.169      196.208        0.207        0.046       55.255       13.793        0.062      339.482       12.846      871.247
03/15/2014  20:47:00      -35.108        7.990      -13.689       28.699       21.462       17.148      823.612      460.635      294.054        0.153        0.079       36.006       10.297        0.082      339.733       13.270      871.253
03/15/2014  20:48:00      -42.594       -2.439       -6.293       23.012       12.053       13.391      529.554      145.284      179.315        0.136        0.043       42.664       12.597        0.087      339.456       12.801      871.273
03/15/2014  20:49:00      -44.040        4.843      -12.312       24.789       26.942       19.184      614.479      725.859      368.022        0.191        0.085       44.305       17.832        0.162      339.853       13.471      871.273
03/15/2014  20:50:00      -40.855        2.170      -12.217       12.625       27.680       10.869      159.388      766.174      118.137        0.143        0.052       40.913        8.775        0.046      339.559       12.974      871.294
03/15/2014  20:51:00      -40.069       28.324       -7.451       17.544       24.497       14.409      307.780      600.100      207.617        0.179        0.056       49.069        9.013        0.034      339.868       13.497      871.303
03/15/2014  20:52:00      -32.528       33.464       -8.962       15.784       41.490       17.090      249.133     1721.454      292.052        0.226        0.113       46.668       19.774        0.180      339.935       13.611      871.317
03/15/2014  20:53:00      -49.515        4.593      -13.661       12.569       26.220       10.164      157.989      687.490      103.305        0.180        0.047       49.728        8.792        0.031      339.479       12.841      871.321
03/15/2014  20:54:00      -38.161       42.827      -10.274       32.822       26.426       15.779     1077.304      698.318      248.986        0.271        0.101       57.362        9.493        0.027      339.970       13.668      871.341
03/15/2014  20:55:00      -34.402       54.970      -11.146       26.716       35.303       18.424      713.743     1246.313      339.425        0.331        0.115       64.847       18.719        0.083      340.006       13.729      871.355
03/15/2014  20:56:00      -35.563       82.291      -19.649       34.018       36.436       18.791     1157.225     1327.555      353.086        0.563        0.142       89.647       22.702        0.064      340.184       14.031      871.369
03/15/2014  20:57:00      -17.438       43.658      -11.270       32.232       28.114       15.032     1038.878      790.380      225.950        0.220        0.103       47.012       13.341        0.081      339.982       13.690      871.392
03/15/2014  20:58:00      -26.221       98.028      -23.837       30.759       35.796       14.948      946.141     1281.386      223.446        0.666        0.123      101.474       13.031        0.016      340.276       14.187      871.394
03/15/2014  20:59:00      -24.953       76.959      -10.513       30.173       37.811       16.278      910.398     1429.680      264.984        0.463        0.130       80.903       17.010        0.044      340.018       13.751      871.395
03/15/2014  21:00:00      -23.750       61.884       -7.328       26.006       29.308       17.280      676.336      858.939      298.589        0.314        0.092       66.285       13.505        0.042      340.014       13.742      871.393
03/15/2014  21:01:00      -29.062       48.614       -4.325       31.927       32.422       19.818     1019.308     1051.156      392.764        0.284        0.123       56.639       13.560        0.057      339.903       13.555      871.382
03/15/2014  21:02:00      -31.834       16.715      -11.791       28.039       31.398       26.802      786.213      985.818      718.321        0.196        0.125       35.956       18.453        0.263      339.695       13.206      871.391
03/15/2014  21:03:00      -51.990      -11.024      -16.006       20.975       13.751        7.496      439.931      189.096       56.195        0.188        0.034       53.146        6.001        0.013      339.093       12.190      871.389
03/15/2014  21:04:00      -73.279       23.996      -20.472       28.483       32.370       11.190      811.279     1047.847      125.217        0.417        0.099       77.108        9.274        0.014      339.310       12.555      871.398
03/15/2014  21:05:00      -64.399       29.343      -14.427       37.344       41.865       19.154     1394.544     1752.698      366.882        0.436        0.176       70.769       15.457        0.048      339.564       12.984      871.403
03/15/2014  21:06:00      -86.830      -13.129      -20.362       20.510       20.635       16.042      420.645      425.801      257.340        0.461        0.055       87.816       10.019        0.013      339.164       12.310      871.407
03/15/2014  21:07:00      -40.465        4.919      -10.050       33.629       24.004       16.814     1130.921      576.179      282.720        0.188        0.099       40.762       13.860        0.116      339.481       12.843      871.412
03/15/2014  21:08:00      -49.894       33.027      -14.178       21.368       35.656       15.883      456.581     1271.320      252.267        0.288        0.099       59.835       16.648        0.077      339.570       12.994      871.408
03/15/2014  21:09:00      -43.805       12.353      -10.631       23.073       26.535       14.984      532.386      704.094      224.511        0.182        0.073       45.514       12.177        0.072      339.508       12.889      871.411
03/15/2014  21:10:00      -44.619       15.243       -6.926       19.564       28.448       14.019      382.733      809.268      196.540        0.183        0.069       47.151        9.019        0.037      339.464       12.816      871.425
03/15/2014  21:11:00      -37.643       13.636       -9.911       17.215       29.385       12.829      296.352      863.464      164.576        0.151        0.066       40.037       14.015        0.123      339.461       12.810      871.431
03/15/2014  21:12:00      -57.382       78.669      -19.086       32.310       45.039       20.727     1043.921     2028.478      429.591        0.667        0.175       97.373       25.055        0.066      339.854       13.472      871.445
03/15/2014  21:13:00      -32.458       18.494       -4.434       24.636       25.054       17.312      606.935      627.697      299.700        0.147        0.077       37.357       13.287        0.127      339.601       13.046      871.460
03/15/2014  21:14:00      -40.405       14.509       -4.800       22.381       32.166       17.641      500.921     1034.652      311.211        0.186        0.092       42.931        9.016        0.044      339.364       12.648      871.465
03/15/2014  21:15:00      -40.384       30.081       -8.437       20.698       36.436       13.041      428.420     1327.610      170.059        0.227        0.096       50.356       15.545        0.095      339.428       12.755      871.491
03/15/2014  21:16:00      -35.366       53.957      -12.128       23.733       51.765       19.166      563.276     2679.576      367.325        0.396        0.181       64.515       23.193        0.129      339.754       13.305      871.503
03/15/2014  21:17:00      -34.501       40.850      -11.644       26.927       38.096       15.616      725.076     1451.292      243.862        0.271        0.121       53.470       12.542        0.055      339.486       12.854      871.529
03/15/2014  21:18:00      -52.823       86.191      -22.583       31.577       43.281       12.411      997.111     1873.223      154.033        0.688        0.151      101.090        7.265        0.005      339.719       13.246      871.538
03/15/2014  21:19:00      -30.406       37.639       -8.719       40.495       32.929       19.626     1639.844     1084.347      385.184        0.276        0.155       48.386       13.586        0.079      339.607       13.057      871.550
03/15/2014  21:20:00      -25.157       60.487       -7.549       35.285       45.803       20.687     1245.051     2097.885      427.972        0.406        0.189       65.510       19.718        0.091      339.816       13.409      871.567
03/15/2014  21:21:00       -0.731       67.322      -11.826       60.129       47.751       21.997     3615.444     2280.115      483.856        0.552        0.319       67.326       26.097        0.150      339.648       13.125      871.572
03/15/2014  21:22:00      -39.299       55.413      -19.487       28.551       33.859       16.841      815.136     1146.439      283.614        0.362        0.112       67.934       17.579        0.067      339.808       13.396      871.588
03/15/2014  21:23:00      -35.059       43.827      -13.069       30.719       32.086       12.980      943.657     1029.510      168.476        0.273        0.107       56.124       12.319        0.048      339.658       13.141      871.602
03/15/2014  21:24:00      -24.721       50.129       -8.964       26.147       36.308       16.754      683.668     1318.266      280.689        0.274        0.114       55.893       17.319        0.096      339.735       13.273      871.607
03/15/2014  21:25:00      -47.320       25.251      -10.539       19.159       41.187       16.426      367.061     1696.386      269.810        0.266        0.117       53.636        9.235        0.030      339.422       12.744      871.621
03/15/2014  21:26:00      -27.963       55.964       -9.890       40.252       41.247       19.149     1620.201     1701.279      366.687        0.385        0.184       62.561       19.296        0.095      339.649       13.128      871.639
03/15/2014  21:27:00      -33.134       -5.940       -6.010       20.977       19.527       13.372      440.032      381.308      178.815        0.108        0.050       33.663       11.952        0.126      339.069       12.150      871.644
03/15/2014  21:28:00      -15.408       55.385      -15.856       40.793       56.949       20.951     1664.101     3243.164      438.938        0.445        0.267       57.489       26.759        0.217      339.468       12.822      871.658
03/15/2014  21:29:00      -49.587      -15.210       -1.017       22.668       30.930       18.955      513.835      956.665      359.303        0.226        0.091       51.868       19.563        0.142      339.133       12.260      871.674
03/15/2014  21:30:00      -70.942      -12.144      -13.682       20.020       13.440       10.022      400.814      180.630      100.439        0.302        0.034       71.974        7.084        0.010      338.943       11.940      871.674
03/15/2014  21:31:00      -41.701      -22.560      -13.813       14.314       14.031        8.886      204.882      196.882       78.966        0.146        0.024       47.412        5.071        0.011      338.724       11.572      871.694
03/15/2014  21:32:00      -48.636      -20.298      -10.204       14.343       14.141        9.294      205.725      199.981       86.371        0.169        0.025       52.702        4.197        0.006      338.768       11.642      871.703
03/15/2014  21:33:00      -42.202       -2.432      -11.826       14.651       16.364        8.812      214.659      267.767       77.658        0.124        0.028       42.272        6.896        0.027      338.993       12.022      871.711
03/15/2014  21:34:00      -29.030       32.961       -8.362       15.902       21.601       10.478      252.885      466.621      109.795        0.141        0.041       43.923        9.328        0.045      339.385       12.682      871.729
03/15/2014  21:35:00       -4.023      112.906      -22.554       24.961       24.556       12.260      623.062      603.009      150.313        0.732        0.069      112.978       10.883        0.009      339.818       13.413      871.742
03/15/2014  21:36:00        1.195      112.342      -20.181       22.021       17.641        7.791      484.929      311.188       60.703        0.694        0.043      112.348        3.934        0.001      339.705       13.222      871.756
03/15/2014  21:37:00      -20.247       82.924      -11.276       20.656       27.661       12.758      426.676      765.133      162.757        0.438        0.068       85.360       14.813        0.030      339.592       13.030      871.761
03/15/2014  21:38:00      -20.917       16.720        0.785       27.492       27.539       14.399      755.805      758.418      207.336        0.122        0.086       26.778       10.019        0.140      339.337       12.601      871.770
03/15/2014  21:39:00      -26.445        7.225       -4.914       33.340       32.997       19.165     1111.580     1088.774      367.299        0.167        0.128       27.415       20.179        0.542      339.268       12.485      871.765
03/15/2014  21:40:00      -42.894      -23.153       -4.702       19.371       17.881       11.224      375.250      319.727      125.972        0.161        0.041       48.744        8.510        0.030      338.913       11.887      871.760
03/15/2014  21:41:00      -62.444      -21.509      -12.503       14.410       14.598       14.488      207.662      213.111      209.912        0.257        0.032       66.044       10.228        0.024      338.651       11.446      871.752
03/15/2014  21:42:00      -82.521      -24.067      -16.319       13.834       15.184       13.278      191.367      230.559      176.294        0.413        0.030       85.959        7.952        0.009      338.511       11.212      871.757
03/15/2014  21:43:00      -85.291       -8.956      -15.490       26.172       16.668       15.300      684.951      277.810      234.076        0.440        0.060       85.760       13.982        0.027      338.531       11.245      871.755
03/15/2014  21:44:00      -95.803       -6.707      -24.073       20.980       19.259       11.187      440.152      370.903      125.150        0.537        0.047       96.037       10.536        0.012      338.641       11.431      871.757
03/15/2014  21:45:00      -94.776       -2.478      -19.815       19.423       14.118       13.988      377.250      199.312      195.659        0.508        0.039       94.808        9.185        0.009      338.552       11.280      871.762
03/15/2014  21:46:00      -62.888       10.094      -23.850       30.098       17.430       12.315      905.870      303.789      151.668        0.299        0.068       63.692        9.777        0.024      338.790       11.681      871.771
03/15/2014  21:47:00      -40.391        2.257      -13.038       24.936       20.028       19.540      621.786      401.103      381.795        0.161        0.070       40.454       16.309        0.163      338.826       11.742      871.773
03/15/2014  21:48:00      -55.590        9.837      -11.712       18.684       16.985       14.054      349.107      288.477      197.528        0.208        0.042       56.453        7.746        0.019      338.916       11.894      871.784
03/15/2014  21:49:00      -46.550       -7.389      -10.343       17.463       19.547        9.890      304.965      382.076       97.820        0.156        0.039       47.133        8.943        0.036      338.624       11.403      871.800
03/15/2014  21:50:00      -81.805       -7.458      -16.889       31.367       26.625       15.646      983.901      708.905      244.798        0.448        0.097       82.144       11.654        0.020      338.584       11.335      871.806
03/15/2014  21:51:00      -64.377       -8.940      -12.291       27.905       25.042       14.810      778.672      627.097      219.347        0.300        0.081       64.995        8.243        0.016      338.410       11.043      871.812
03/15/2014  21:52:00      -50.146      -17.817      -17.697       25.466       18.222       10.404      648.507      332.049      108.251        0.212        0.054       53.217        8.837        0.028      338.491       11.179      871.829
03/15/2014  21:53:00      -59.519       -4.544      -13.300       24.176       17.758       11.633      584.461      315.329      135.320        0.239        0.052       59.692        8.086        0.018      338.504       11.201      871.834
03/15/2014  21:54:00      -50.782      -13.209      -14.650       17.755       24.821       11.551      315.239      616.098      133.421        0.202        0.053       52.472        6.412        0.015      338.539       11.260      871.832
03/15/2014  21:55:00      -28.123       -9.900       -1.229       20.108       20.439       15.984      404.339      417.750      255.486        0.098        0.054       29.815       14.261        0.229      338.694       11.520      871.853
03/15/2014  21:56:00      -30.749      -12.942       -1.928       34.995       24.550       20.653     1224.657      602.726      426.540        0.168        0.113       33.362       20.602        0.381      338.644       11.437      871.865
03/15/2014  21:57:00      -62.148      -18.996      -11.433       25.308       25.109       16.576      640.477      630.474      274.756        0.295        0.077       64.986       10.982        0.029      338.319       10.891      871.863
03/15/2014  21:58:00      -85.891      -12.628      -15.006       23.192       16.134       11.167      537.847      260.293      124.704        0.434        0.046       86.814        3.710        0.002      338.189       10.670      871.876
03/15/2014  21:59:00      -89.344       -8.552      -19.178       26.665       19.841       13.583      710.997      393.658      184.504        0.486        0.064       89.753       10.542        0.014      338.245       10.766      871.864
03/15/2014  22:00:00      -96.193      -15.295      -24.909       21.044       15.087       10.591      442.835      227.631      112.166        0.544        0.039       97.402        9.480        0.009      338.137       10.584      871.863
03/15/2014  22:01:00     -100.052      -11.587      -22.415       19.377       18.818       10.698      375.480      354.119      114.457        0.575        0.042      100.720        8.501        0.007      338.189       10.671      871.875
03/15/2014  22:02:00      -79.457      -14.592      -20.090       20.708       17.905       12.397      428.840      320.582      153.694        0.392        0.045       80.786       10.674        0.017      338.309       10.873      871.872
03/15/2014  22:03:00      -74.889       -8.046      -20.341       15.204       12.830        8.457      231.159      164.599       71.524        0.328        0.023       75.320        4.822        0.004      338.276       10.817      871.877
03/15/2014  22:04:00      -60.106        0.976      -14.729       21.816       16.168       13.222      475.933      261.415      174.825        0.237        0.046       60.114       11.551        0.037      338.588       11.342      871.885
03/15/2014  22:05:00      -36.828       26.583       -9.559       22.028       25.206       14.969      485.221      635.336      224.085        0.175        0.067       45.420        9.598        0.045      338.987       12.011      871.882
03/15/2014  22:06:00      -38.796       36.987      -13.871       22.825       38.823       21.429      520.967     1507.259      459.220        0.278        0.124       53.601       21.276        0.158      338.955       11.958      871.883
03/15/2014  22:07:00      -33.137       64.444      -11.458       20.870       29.850       11.163      435.540      891.038      124.604        0.342        0.073       72.465       10.799        0.022      339.226       12.414      871.897
03/15/2014  22:08:00      -28.377       58.944       -8.051       25.654       25.734       15.559      658.117      662.264      242.097        0.295        0.078       65.419        9.108        0.019      339.024       12.076      871.895
03/15/2014  22:09:00      -36.965       71.051       -7.171       30.330       27.193       15.707      919.885      739.440      246.711        0.419        0.095       80.092       10.342        0.017      339.069       12.150      871.908
03/15/2014  22:10:00      -34.519       56.888       -7.420       28.592       40.626       23.766      817.518     1650.464      564.845        0.376        0.152       66.542       18.154        0.074      338.928       11.913      871.915
03/15/2014  22:11:00      -37.401       32.721       -6.063       34.518       33.437       20.369     1191.493     1118.026      414.904        0.261        0.136       49.694       16.491        0.110      338.695       11.521      871.925
03/15/2014  22:12:00      -42.754       43.949      -12.534       31.334       34.274       18.447      981.791     1174.740      340.302        0.321        0.125       61.315       17.765        0.084      338.938       11.931      871.939
03/15/2014  22:13:00      -36.180       19.505       -8.672       23.765       36.998       18.252      564.777     1368.846      333.131        0.202        0.113       41.103       15.592        0.144      338.672       11.482      871.927
03/15/2014  22:14:00      -58.361        7.291      -10.568       17.962       40.644        9.792      322.638     1651.912       95.889        0.282        0.104       58.814       11.470        0.038      338.275       10.816      871.931
03/15/2014  22:15:00      -86.535       -7.049      -21.404       17.816       22.053       11.717      317.421      486.333      137.280        0.447        0.047       86.822       11.190        0.017      337.918       10.216      871.933
03/15/2014  22:16:00      -99.610      -12.824      -22.915       17.809       17.207       16.521      317.161      296.095      272.945        0.575        0.044      100.432        8.343        0.007      338.025       10.396      871.923
03/15/2014  22:17:00      -89.806       -9.471      -24.852       18.324       16.188       11.268      335.752      262.060      126.965        0.475        0.036       90.305        6.754        0.006      338.068       10.470      871.925
03/15/2014  22:18:00      -86.819      -21.870      -13.206       21.946       14.303       11.222      481.648      204.567      125.934        0.450        0.041       89.531        9.268        0.011      337.962       10.290      871.936
03/15/2014  22:19:00      -73.531      -28.410      -16.398       17.411       15.962       11.729      303.127      254.783      137.566        0.359        0.035       78.829        7.665        0.009      338.038       10.418      871.946
03/15/2014  22:20:00      -68.797      -28.476      -16.139       17.200       15.825       13.600      295.842      250.433      184.964        0.327        0.037       74.458        4.104        0.003      338.111       10.541      871.949
03/15/2014  22:21:00      -73.141      -49.148      -11.767       13.862       13.386       10.803      192.152      179.194      116.697        0.420        0.024       88.120        5.342        0.004      338.022       10.389      871.962
03/15/2014  22:22:00      -86.415      -30.912      -15.507       15.033       18.217       14.246      226.004      331.872      202.947        0.471        0.038       91.777        6.800        0.005      337.983       10.326      871.963
03/15/2014  22:23:00      -83.314      -34.836      -18.463       12.283       11.123       11.717      150.878      123.710      137.293        0.445        0.021       90.304        7.170        0.006      337.948       10.266      871.967
03/15/2014  22:24:00      -77.042      -40.920      -20.603       12.532       12.200        9.405      157.053      148.834       88.459        0.421        0.020       87.235        6.310        0.005      337.862       10.123      871.982
03/15/2014  22:25:00      -94.336      -53.893      -15.259       14.075       14.192       12.414      198.110      201.419      154.115        0.629        0.028      108.645        7.492        0.005      337.824       10.058      871.995
03/15/2014  22:26:00     -115.535      -49.394      -17.854       18.926       15.228       15.135      358.202      231.882      229.082        0.846        0.041      125.651       13.043        0.011      337.847       10.096      871.997
03/15/2014  22:27:00     -125.290      -56.134      -14.864       18.476       19.896       16.677      341.381      395.867      278.138        1.004        0.051      137.290        9.908        0.005      337.900       10.187      872.017
03/15/2014  22:28:00     -143.275      -41.676      -15.970       15.572       17.975       11.656      242.499      323.106      135.861        1.161        0.035      149.213        6.660        0.002      337.961       10.288      872.031
03/15/2014  22:29:00     -102.982      -58.351       -9.811       26.806       14.352       12.873      718.556      205.980      165.703        0.760        0.055      118.364       11.667        0.010      337.990       10.339      872.040
03/15/2014  22:30:00     -106.175      -35.535       -5.837       26.645       15.743       12.596      709.931      247.841      158.655        0.684        0.056      111.964        8.870        0.006      337.990       10.338      872.046
03/15/2014  22:31:00     -112.616      -44.155      -13.162       20.257       17.955       13.465      410.346      322.375      181.304        0.786        0.046      120.963        9.851        0.007      338.024       10.395      872.057
03/15/2014  22:32:00     -135.785      -26.741      -21.274       18.475       18.623       14.783      341.324      346.800      218.522        1.026        0.045      138.393       10.347        0.006      338.007       10.367      872.063
03/15/2014  22:33:00     -146.421      -17.263      -21.264       27.264       19.321       16.548      743.342      373.297      273.836        1.179        0.070      147.436       17.114        0.013      337.963       10.292      872.059
03/15/2014  22:34:00     -124.287      -27.599      -14.326       18.428       17.058       11.269      339.581      290.991      126.993        0.859        0.038      127.315        7.659        0.004      337.848       10.099      872.059
03/15/2014  22:35:00     -104.068      -41.113      -19.001       14.364       15.235       11.541      206.338      232.105      133.197        0.673        0.029      111.894        9.416        0.007      337.842       10.089      872.076
03/15/2014  22:36:00     -113.358      -48.291      -15.278       18.470       13.373       11.760      341.145      178.831      138.289        0.804        0.033      123.215        7.117        0.003      337.807       10.031      872.077
03/15/2014  22:37:00     -130.724      -66.026      -13.715       14.384       13.574       11.911      206.891      184.242      141.871        1.108        0.027      146.452        9.903        0.005      337.677        9.811      872.080
03/15/2014  22:38:00     -138.493      -60.981      -14.034       14.585       13.085       12.795      212.724      171.219      163.709        1.182        0.027      151.324        8.986        0.004      337.630        9.734      872.091
03/15/2014  22:39:00     -125.696      -55.836       -7.727       18.424       18.543       13.331      339.446      343.845      177.712        0.992        0.043      137.540       10.542        0.006      337.674        9.808      872.099
03/15/2014  22:40:00     -120.657      -48.578       -7.167       14.519       15.360       10.920      210.796      235.945      119.247        0.877        0.028      130.069        8.181        0.004      337.656        9.778      872.104
03/15/2014  22:41:00     -131.331      -33.709      -12.147       14.549       12.943       11.694      211.662      167.517      136.761        0.952        0.026      135.588        8.152        0.004      337.596        9.677      872.113
03/15/2014  22:42:00     -103.752      -39.182      -16.429       26.610       18.530       11.767      708.099      343.359      138.464        0.688        0.059      110.904        7.863        0.005      337.595        9.675      872.128
03/15/2014  22:43:00     -113.110      -43.067      -18.728       15.867       13.912       11.994      251.765      193.539      143.858        0.779        0.029      121.031        2.496        0.000      337.604        9.691      872.127
03/15/2014  22:44:00     -117.883      -23.486      -11.707       23.061       23.810       17.655      531.829      566.911      311.709        0.800        0.071      120.199       12.886        0.011      337.666        9.795      872.122
03/15/2014  22:45:00     -115.188      -23.080       -6.347       34.013       29.220       21.116     1156.859      853.826      445.890        0.815        0.123      117.478       19.588        0.028      337.653        9.773      872.121
03/15/2014  22:46:00     -109.822      -17.103       -7.533       39.273       27.347       20.143     1542.407      747.867      405.728        0.755        0.135      111.146       17.549        0.025      337.593        9.671      872.122
03/15/2014  22:47:00     -121.419        3.310      -18.473       41.535       22.415       19.981     1725.135      502.434      399.245        0.886        0.131      121.464       15.831        0.017      337.581        9.651      872.120
03/15/2014  22:48:00     -109.638       -7.354      -18.470       32.593       25.070       18.218     1062.289      628.501      331.878        0.722        0.101      109.884       13.220        0.014      337.593        9.672      872.129
03/15/2014  22:49:00     -109.251      -16.133      -12.240       21.973       21.550       16.184      482.831      464.383      261.933        0.678        0.060      110.436       14.089        0.016      337.656        9.778      872.145
03/15/2014  22:50:00      -99.665      -27.333      -13.965       22.157       30.568       19.479      490.918      934.430      379.437        0.634        0.090      103.346       13.513        0.017      337.555        9.607      872.149
03/15/2014  22:51:00      -86.762      -40.956      -14.985       21.767       25.103       16.896      473.807      630.184      285.486        0.541        0.069       95.943        7.909        0.007      337.610        9.701      872.165
03/15/2014  22:52:00      -91.120      -29.566       -9.474       39.450       22.398       21.114     1556.335      501.671      445.801        0.588        0.125       95.797       21.619        0.051      337.573        9.640      872.185
03/15/2014  22:53:00      -91.951      -47.811      -21.882       24.925       22.135       19.041      621.265      489.953      362.548        0.635        0.074      103.638       10.622        0.011      337.566        9.626      872.214
03/15/2014  22:54:00     -113.656      -37.526      -22.804       20.173       20.745       14.959      406.947      430.374      223.783        0.795        0.053      119.691       12.283        0.011      337.606        9.694      872.233
03/15/2014  22:55:00     -103.035      -37.788      -23.110       32.035       23.851       21.714     1026.229      568.892      471.477        0.732        0.103      109.746        6.739        0.004      337.538        9.579      872.248
03/15/2014  22:56:00      -80.134      -38.346      -21.752       26.940       26.626       20.996      725.790      708.946      440.813        0.512        0.094       88.836       11.056        0.015      337.581        9.652      872.255
03/15/2014  22:57:00      -51.101       -8.387       -8.508       25.785       38.352       18.397      664.885     1470.839      338.434        0.261        0.124       51.785       12.909        0.062      337.825       10.060      872.269
03/15/2014  22:58:00      -58.327       -0.161       -7.926       34.589       34.224       20.130     1196.383     1171.273      405.214        0.312        0.139       58.327       18.581        0.101      337.988       10.334      872.264
03/15/2014  22:59:00      -50.655      -10.283      -12.244       29.718       25.827       17.686      883.148      667.052      312.789        0.234        0.093       51.688        9.570        0.034      337.971       10.306      872.260
03/15/2014  23:00:00      -88.974       -9.566      -13.870       30.498       21.749       16.099      930.139      473.016      259.167        0.493        0.083       89.487       12.428        0.019      337.696        9.844      872.253
03/15/2014  23:01:00      -74.281      -18.695      -11.790       23.221       20.655       13.540      539.215      426.631      183.336        0.358        0.057       76.597       10.979        0.021      337.670        9.800      872.257
03/15/2014  23:02:00      -72.766      -33.211       -8.130       18.038       17.342       12.036      325.367      300.734      144.872        0.362        0.039       79.987        6.409        0.006      337.669        9.798      872.249
03/15/2014  23:03:00      -89.237      -31.550      -10.334       20.591       15.926       14.224      423.995      253.631      202.321        0.497        0.044       94.650       10.082        0.011      337.568        9.630      872.236
03/15/2014  23:04:00     -119.663      -33.060      -21.222       26.061       21.313       13.907      679.193      454.243      193.405        0.859        0.066      124.146       11.880        0.009      337.436        9.408      872.238
03/15/2014  23:05:00     -106.307      -54.136      -22.501       25.741       21.351       17.543      662.587      455.851      307.756        0.808        0.071      119.297        3.597        0.001      337.508        9.530      872.241
03/15/2014  23:06:00      -97.590      -61.893      -21.240       25.080       19.599       14.827      629.014      384.128      219.830        0.752        0.062      115.562        7.481        0.004      337.406        9.358      872.251
03/15/2014  23:07:00     -121.261      -51.072      -23.385       23.715       17.063       17.052      562.406      291.162      290.774        0.950        0.057      131.577       13.758        0.011      337.315        9.205      872.263
03/15/2014  23:08:00     -105.199      -40.783      -22.755       23.261       14.848       13.985      541.073      220.453      195.569        0.710        0.048      112.827       11.861        0.011      337.255        9.106      872.284
03/15/2014  23:09:00      -91.714      -57.363      -13.447       25.904       17.823       11.943      671.012      317.644      142.637        0.651        0.057      108.176        8.429        0.006      337.316        9.209      872.288
03/15/2014  23:10:00      -43.603      -39.733       -3.844       53.883       24.770       21.794     2903.427      613.544      474.988        0.374        0.200       58.990       28.322        0.231      337.313        9.203      872.286
03/15/2014  23:11:00      -69.725      -54.764       -1.143       43.373       30.149       25.874     1881.201      908.987      669.487        0.566        0.173       88.660       30.326        0.117      337.297        9.177      872.281
03/15/2014  23:12:00      -27.604      -36.527        7.333       32.934       33.393       21.427     1084.648     1115.073      459.110        0.240        0.133       45.784       17.446        0.145      337.356        9.275      872.285
03/15/2014  23:13:00       -5.037      -17.473       11.776       22.052       23.434       23.503      486.273      549.162      552.409        0.103        0.079       18.184       15.685        0.744      337.307        9.195      872.291
03/15/2014  23:14:00      -62.620      -44.742       -8.119       39.287       27.665       17.377     1543.434      765.351      301.959        0.430        0.131       76.962       22.525        0.086      337.304        9.187      872.287
03/15/2014  23:15:00      -86.014      -38.748      -18.845       14.894       10.966       10.341      221.824      120.257      106.928        0.485        0.022       94.338        7.314        0.006      337.281        9.151      872.276
03/15/2014  23:16:00      -95.344      -52.692      -12.042       11.665       11.297       10.608      136.071      127.614      112.523        0.619        0.019      108.936        6.250        0.003      337.299        9.179      872.274
03/15/2014  23:17:00     -119.753      -34.981       -7.728       16.195       13.673       11.653      262.282      186.953      135.793        0.810        0.029      124.758        8.962        0.005      337.334        9.238      872.265
03/15/2014  23:18:00     -102.299      -46.009      -16.725       10.909        9.365        8.780      119.002       87.702       77.089        0.657        0.014      112.169        3.165        0.001      337.379        9.313      872.257
03/15/2014  23:19:00      -98.146      -51.082       -8.764       22.628       16.191       11.414      512.041      262.158      130.271        0.661        0.045      110.644        3.599        0.001      337.373        9.303      872.253
03/15/2014  23:20:00     -105.640      -39.173      -21.582       11.072       14.261        8.566      122.596      203.373       73.371        0.678        0.020      112.669        6.532        0.003      337.290        9.164      872.257
03/15/2014  23:21:00     -110.067      -46.371      -17.957       14.048       17.528       12.172      197.338      307.239      148.154        0.762        0.033      119.436        6.040        0.003      337.283        9.152      872.253
03/15/2014  23:22:00     -108.638      -24.494      -18.149       15.441       19.119       13.757      238.419      365.523      189.252        0.676        0.040      111.365        7.272        0.004      337.300        9.181      872.260
03/15/2014  23:23:00     -121.213      -32.444       -5.846       22.698       23.125       17.859      515.217      534.750      318.946        0.857        0.068      125.480       12.544        0.010      337.256        9.107      872.270
03/15/2014  23:24:00     -105.333      -57.854       -7.174       29.401       23.777       14.655      864.437      565.337      214.779        0.807        0.082      120.175       13.880        0.013      337.216        9.041      872.289
03/15/2014  23:25:00      -84.119      -35.854       -0.888       25.187       24.775       15.272      634.406      613.816      233.225        0.492        0.074       91.441       13.308        0.021      337.222        9.051      872.293
03/15/2014  23:26:00      -38.296      -22.785        8.348       38.654       28.081       20.548     1494.121      788.550      422.212        0.238        0.135       44.561       20.530        0.212      337.303        9.187      872.281
03/15/2014  23:27:00      -87.095      -31.412        0.034       38.501       20.097       15.129     1482.317      403.882      228.883        0.534        0.106       92.586       18.226        0.039      337.224        9.055      872.284
03/15/2014  23:28:00      -84.752      -42.423        3.528       33.692       27.468       18.164     1135.173      754.499      329.925        0.561        0.111       94.777       16.312        0.030      337.227        9.061      872.291
03/15/2014  23:29:00      -85.554      -36.685       -3.068       33.552       27.553       19.393     1125.747      759.168      376.079        0.547        0.113       93.088       18.867        0.041      337.230        9.063      872.295
03/15/2014  23:30:00     -111.737      -44.952       -6.391       24.511       22.961       16.382      600.771      527.216      268.363        0.797        0.070      120.440       10.836        0.008      337.166        8.957      872.292
03/15/2014  23:31:00     -106.338      -59.583       -0.238       33.206       21.645       15.940     1102.607      468.512      254.072        0.834        0.091      121.893       15.101        0.015      337.252        9.101      872.287
03/15/2014  23:32:00     -122.749      -35.167      -14.059       16.005       16.833       12.916      256.145      283.360      166.834        0.860        0.035      127.688        8.206        0.004      337.152        8.931      872.292
03/15/2014  23:33:00     -115.421      -53.694      -19.347       15.569       18.605       12.922      242.406      346.137      166.984        0.867        0.038      127.299        6.994        0.003      337.051        8.764      872.298
03/15/2014  23:34:00     -117.373      -36.127      -14.162       25.390       20.524       15.563      644.659      421.226      242.211        0.829        0.065      122.807       14.168        0.013      337.048        8.760      872.290
03/15/2014  23:35:00     -109.193      -19.955       -6.986       38.580       30.952       16.302     1488.437      958.014      265.767        0.754        0.136      111.002       16.841        0.023      337.017        8.706      872.280
03/15/2014  23:36:00     -113.933      -23.080        0.105       41.548       29.652       23.011     1726.231      879.232      529.513        0.832        0.157      116.248       24.090        0.043      337.071        8.797      872.262
03/15/2014  23:37:00     -107.444      -38.649       -5.012       29.046       31.176       16.695      843.699      971.966      278.731        0.758        0.105      114.183       12.642        0.012      336.963        8.616      872.266
03/15/2014  23:38:00     -104.473      -50.211      -11.081       22.492       27.056       13.855      505.880      732.045      191.972        0.749        0.071      115.912       10.879        0.009      337.000        8.678      872.274
03/15/2014  23:39:00      -78.141      -45.852        1.219       36.458       18.453       19.306     1329.201      340.502      372.723        0.513        0.102       90.600       22.588        0.062      336.963        8.617      872.269
03/15/2014  23:40:00      -56.816      -59.642       -1.954       26.601       26.454       24.467      707.595      699.820      598.645        0.440        0.100       82.372       15.794        0.037      336.909        8.528      872.259
03/15/2014  23:41:00      -90.241      -51.955      -12.117       17.591       21.548       15.315      309.454      464.312      234.547        0.600        0.050      104.129        7.078        0.005      336.876        8.471      872.257
03/15/2014  23:42:00      -84.965      -45.708      -13.460       23.014       15.440       10.554      529.641      238.405      111.393        0.518        0.044       96.480        9.335        0.009      336.938        8.575      872.264
03/15/2014  23:43:00      -89.719      -59.732       -6.751       32.797       19.889       18.901     1075.662      395.565      357.234        0.675        0.091      107.784       16.934        0.025      336.855        8.437      872.280
03/15/2014  23:44:00     -118.006      -63.938      -20.978       30.838       20.109       15.171      950.962      404.353      230.150        1.002        0.079      134.215        8.867        0.004      336.840        8.411      872.288
03/15/2014  23:45:00     -109.163      -28.264      -16.439       40.652       30.488       20.664     1652.554      929.536      427.010        0.800        0.150      112.762       23.423        0.043      336.818        8.376      872.288
03/15/2014  23:46:00      -82.301      -41.900       -3.762       36.946       21.042       17.542     1364.973      442.763      307.717        0.533        0.106       92.353       16.393        0.032      336.735        8.237      872.284
03/15/2014  23:47:00      -82.854      -55.046       -6.352       29.114       33.310       21.327      847.632     1109.525      454.851        0.617        0.121       99.473       15.319        0.024      336.781        8.314      872.277
03/15/2014  23:48:00      -59.928      -34.248       -7.885       26.044       32.890       19.193      678.271     1081.768      368.367        0.348        0.106       69.024       12.019        0.030      336.815        8.370      872.278
03/15/2014  23:49:00      -31.489      -11.542       -7.650       19.189       18.232       12.879      368.213      332.393      165.869        0.102        0.043       33.537        8.178        0.059      336.851        8.431      872.278
03/15/2014  23:50:00      -70.586      -21.971       -9.410       22.041       12.709       17.510      485.784      161.518      306.591        0.325        0.048       73.926       13.828        0.035      336.911        8.529      872.278
03/15/2014  23:51:00      -79.372      -37.213      -12.106       17.040       17.615       18.071      290.373      310.292      326.553        0.438        0.046       87.662        5.192        0.004      336.897        8.506      872.277
03/15/2014  23:52:00      -62.654      -29.864      -18.918       19.019       16.449       11.728      361.728      270.581      137.541        0.297        0.038       69.407        8.910        0.016      336.792        8.333      872.277
03/15/2014  23:53:00      -50.122      -22.256      -10.805       13.838       10.558       10.168      191.484      111.470      103.396        0.177        0.020       54.841        4.546        0.007      336.838        8.409      872.284
03/15/2014  23:54:00      -40.819      -23.435       -5.768       13.256       14.113        9.964      175.715      199.179       99.284        0.136        0.024       47.068        6.857        0.021      336.841        8.413      872.272
03/15/2014  23:55:00      -16.317      -11.981        3.086       14.193        9.480       10.120      201.437       89.879      102.414        0.041        0.020       20.243        5.913        0.085      336.818        8.374      872.253
03/15/2014  23:56:00      -31.219      -18.912      -10.211       19.920       10.635        8.102      396.810      113.113       65.636        0.101        0.029       36.501        4.807        0.017      336.900        8.513      872.242
03/15/2014  23:57:00      -45.051      -18.428       -4.389       14.620       14.296        7.358      213.746      204.375       54.142        0.143        0.024       48.674        8.108        0.028      336.872        8.465      872.239
03/15/2014  23:58:00      -57.613      -17.200      -13.335       10.864        7.852        8.225      118.025       61.653       67.643        0.202        0.012       60.125        4.706        0.006      336.722        8.216      872.251
03/15/2014  23:59:00      -75.488      -30.613      -12.455       11.548        9.961        7.755      133.350       99.226       60.135        0.354        0.015       81.460        3.209        0.002      336.686        8.155      872.261
